<?xml version="1.0"?>
<gpx xmlns="http://www.topografix.com/GPX/1/1" xmlns:xsi="http://www.w3.org/2001/XMLSchema-instance" version="1.1" creator="GPX RubyGem 1.0.0 -- http://dougfales.github.io/gpx/" xsi:schemaLocation="http://www.topografix.com/GPX/1/1 http://www.topografix.com/GPX/1/1/gpx.xsd">
  <metadata>
    <name/>
    <time>2026-05-07T22:43:48+00:00</time>
    <bound minlat="90.0" minlon="180.0" maxlat="-90.0" maxlon="-180.0"/>
  </metadata>
  <trk>
    <name/>
    <trkseg>
      <trkpt lat="46.112755" lon="6.751442">
        <time>1970-01-01T00:00:00+00:00</time>
        <ele>1130.0</ele>
      </trkpt>
      <trkpt lat="46.112755" lon="6.751442">
        <time>1970-01-01T00:00:00+00:00</time>
        <ele>1130.0</ele>
      </trkpt>
      <trkpt lat="46.112785" lon="6.751615">
        <time>1970-01-01T00:00:00+00:00</time>
        <ele>1134.0</ele>
      </trkpt>
      <trkpt lat="46.112785" lon="6.751615">
        <time>1970-01-01T00:00:00+00:00</time>
        <ele>1134.0</ele>
      </trkpt>
      <trkpt lat="46.112779" lon="6.75175">
        <time>1970-01-01T00:00:00+00:00</time>
        <ele>1137.0</ele>
      </trkpt>
      <trkpt lat="46.112779" lon="6.75175">
        <time>1970-01-01T00:00:00+00:00</time>
        <ele>1137.0</ele>
      </trkpt>
      <trkpt lat="46.112798" lon="6.751879">
        <time>1970-01-01T00:00:00+00:00</time>
        <ele>1140.0</ele>
      </trkpt>
      <trkpt lat="46.112798" lon="6.751879">
        <time>1970-01-01T00:00:00+00:00</time>
        <ele>1140.0</ele>
      </trkpt>
      <trkpt lat="46.112882" lon="6.751995">
        <time>1970-01-01T00:00:00+00:00</time>
        <ele>1142.0</ele>
      </trkpt>
      <trkpt lat="46.112882" lon="6.751995">
        <time>1970-01-01T00:00:00+00:00</time>
        <ele>1142.0</ele>
      </trkpt>
      <trkpt lat="46.112949618688454" lon="6.752235422003386">
        <time>1970-01-01T00:00:00+00:00</time>
        <ele>1146.0</ele>
      </trkpt>
      <trkpt lat="46.112954" lon="6.752251">
        <time>1970-01-01T00:00:00+00:00</time>
        <ele>1146.0</ele>
      </trkpt>
      <trkpt lat="46.112954" lon="6.752251">
        <time>1970-01-01T00:00:00+00:00</time>
        <ele>1146.0</ele>
      </trkpt>
      <trkpt lat="46.112956" lon="6.752391">
        <time>1970-01-01T00:00:00+00:00</time>
        <ele>1148.0</ele>
      </trkpt>
      <trkpt lat="46.112956" lon="6.752391">
        <time>1970-01-01T00:00:00+00:00</time>
        <ele>1148.0</ele>
      </trkpt>
      <trkpt lat="46.113018" lon="6.752493">
        <time>1970-01-01T00:00:00+00:00</time>
        <ele>1149.0</ele>
      </trkpt>
      <trkpt lat="46.113018" lon="6.752493">
        <time>1970-01-01T00:00:00+00:00</time>
        <ele>1149.0</ele>
      </trkpt>
      <trkpt lat="46.113106" lon="6.752544">
        <time>1970-01-01T00:00:00+00:00</time>
        <ele>1149.0</ele>
      </trkpt>
      <trkpt lat="46.113106" lon="6.752544">
        <time>1970-01-01T00:00:00+00:00</time>
        <ele>1149.0</ele>
      </trkpt>
      <trkpt lat="46.113183" lon="6.752616">
        <time>1970-01-01T00:00:00+00:00</time>
        <ele>1148.0</ele>
      </trkpt>
      <trkpt lat="46.113183" lon="6.752616">
        <time>1970-01-01T00:00:00+00:00</time>
        <ele>1148.0</ele>
      </trkpt>
      <trkpt lat="46.113131" lon="6.752727">
        <time>1970-01-01T00:00:00+00:00</time>
        <ele>1150.0</ele>
      </trkpt>
      <trkpt lat="46.113131" lon="6.752727">
        <time>1970-01-01T00:00:00+00:00</time>
        <ele>1150.0</ele>
      </trkpt>
      <trkpt lat="46.113141" lon="6.752877">
        <time>1970-01-01T00:00:00+00:00</time>
        <ele>1152.0</ele>
      </trkpt>
      <trkpt lat="46.113141" lon="6.752877">
        <time>1970-01-01T00:00:00+00:00</time>
        <ele>1152.0</ele>
      </trkpt>
      <trkpt lat="46.113172" lon="6.753001">
        <time>1970-01-01T00:00:00+00:00</time>
        <ele>1153.0</ele>
      </trkpt>
      <trkpt lat="46.113172" lon="6.753001">
        <time>1970-01-01T00:00:00+00:00</time>
        <ele>1153.0</ele>
      </trkpt>
      <trkpt lat="46.113308423015596" lon="6.753170087681296">
        <time>1970-01-01T00:00:00+00:00</time>
        <ele>1154.0</ele>
      </trkpt>
      <trkpt lat="46.113385" lon="6.753265">
        <time>1970-01-01T00:00:00+00:00</time>
        <ele>1156.0</ele>
      </trkpt>
      <trkpt lat="46.113385" lon="6.753265">
        <time>1970-01-01T00:00:00+00:00</time>
        <ele>1156.0</ele>
      </trkpt>
      <trkpt lat="46.113476" lon="6.753258">
        <time>1970-01-01T00:00:00+00:00</time>
        <ele>1156.0</ele>
      </trkpt>
      <trkpt lat="46.113476" lon="6.753258">
        <time>1970-01-01T00:00:00+00:00</time>
        <ele>1156.0</ele>
      </trkpt>
      <trkpt lat="46.11353" lon="6.753363">
        <time>1970-01-01T00:00:00+00:00</time>
        <ele>1159.0</ele>
      </trkpt>
      <trkpt lat="46.11353" lon="6.753363">
        <time>1970-01-01T00:00:00+00:00</time>
        <ele>1159.0</ele>
      </trkpt>
      <trkpt lat="46.113615" lon="6.753421">
        <time>1970-01-01T00:00:00+00:00</time>
        <ele>1160.0</ele>
      </trkpt>
      <trkpt lat="46.113615" lon="6.753421">
        <time>1970-01-01T00:00:00+00:00</time>
        <ele>1160.0</ele>
      </trkpt>
      <trkpt lat="46.113704" lon="6.753479">
        <time>1970-01-01T00:00:00+00:00</time>
        <ele>1162.0</ele>
      </trkpt>
      <trkpt lat="46.113704" lon="6.753479">
        <time>1970-01-01T00:00:00+00:00</time>
        <ele>1162.0</ele>
      </trkpt>
      <trkpt lat="46.11387646267253" lon="6.753405335039371">
        <time>1970-01-01T00:00:00+00:00</time>
        <ele>1160.0</ele>
      </trkpt>
      <trkpt lat="46.113903" lon="6.753394">
        <time>1970-01-01T00:00:00+00:00</time>
        <ele>1160.0</ele>
      </trkpt>
      <trkpt lat="46.113903" lon="6.753394">
        <time>1970-01-01T00:00:00+00:00</time>
        <ele>1160.0</ele>
      </trkpt>
      <trkpt lat="46.113993" lon="6.753394">
        <time>1970-01-01T00:00:00+00:00</time>
        <ele>1161.0</ele>
      </trkpt>
      <trkpt lat="46.113993" lon="6.753394">
        <time>1970-01-01T00:00:00+00:00</time>
        <ele>1161.0</ele>
      </trkpt>
      <trkpt lat="46.114078" lon="6.753323">
        <time>1970-01-01T00:00:00+00:00</time>
        <ele>1160.0</ele>
      </trkpt>
      <trkpt lat="46.114078" lon="6.753323">
        <time>1970-01-01T00:00:00+00:00</time>
        <ele>1160.0</ele>
      </trkpt>
      <trkpt lat="46.11418" lon="6.753307">
        <time>1970-01-01T00:00:00+00:00</time>
        <ele>1161.0</ele>
      </trkpt>
      <trkpt lat="46.11418" lon="6.753307">
        <time>1970-01-01T00:00:00+00:00</time>
        <ele>1161.0</ele>
      </trkpt>
      <trkpt lat="46.11434014275623" lon="6.753188874897637">
        <time>1970-01-01T00:00:00+00:00</time>
        <ele>1162.0</ele>
      </trkpt>
      <trkpt lat="46.114382" lon="6.753158">
        <time>1970-01-01T00:00:00+00:00</time>
        <ele>1162.0</ele>
      </trkpt>
      <trkpt lat="46.114382" lon="6.753158">
        <time>1970-01-01T00:00:00+00:00</time>
        <ele>1162.0</ele>
      </trkpt>
      <trkpt lat="46.114477" lon="6.753138">
        <time>1970-01-01T00:00:00+00:00</time>
        <ele>1163.0</ele>
      </trkpt>
      <trkpt lat="46.114477" lon="6.753138">
        <time>1970-01-01T00:00:00+00:00</time>
        <ele>1163.0</ele>
      </trkpt>
      <trkpt lat="46.114531" lon="6.753247">
        <time>1970-01-01T00:00:00+00:00</time>
        <ele>1165.0</ele>
      </trkpt>
      <trkpt lat="46.114531" lon="6.753247">
        <time>1970-01-01T00:00:00+00:00</time>
        <ele>1165.0</ele>
      </trkpt>
      <trkpt lat="46.114626" lon="6.753241">
        <time>1970-01-01T00:00:00+00:00</time>
        <ele>1166.0</ele>
      </trkpt>
      <trkpt lat="46.114626" lon="6.753241">
        <time>1970-01-01T00:00:00+00:00</time>
        <ele>1166.0</ele>
      </trkpt>
      <trkpt lat="46.114714" lon="6.753274">
        <time>1970-01-01T00:00:00+00:00</time>
        <ele>1167.0</ele>
      </trkpt>
      <trkpt lat="46.114714" lon="6.753274">
        <time>1970-01-01T00:00:00+00:00</time>
        <ele>1167.0</ele>
      </trkpt>
      <trkpt lat="46.114812" lon="6.753253">
        <time>1970-01-01T00:00:00+00:00</time>
        <ele>1168.0</ele>
      </trkpt>
      <trkpt lat="46.114812" lon="6.753253">
        <time>1970-01-01T00:00:00+00:00</time>
        <ele>1168.0</ele>
      </trkpt>
      <trkpt lat="46.114884" lon="6.753349">
        <time>1970-01-01T00:00:00+00:00</time>
        <ele>1170.0</ele>
      </trkpt>
      <trkpt lat="46.114884" lon="6.753349">
        <time>1970-01-01T00:00:00+00:00</time>
        <ele>1170.0</ele>
      </trkpt>
      <trkpt lat="46.11497" lon="6.753414">
        <time>1970-01-01T00:00:00+00:00</time>
        <ele>1171.0</ele>
      </trkpt>
      <trkpt lat="46.11497" lon="6.753414">
        <time>1970-01-01T00:00:00+00:00</time>
        <ele>1171.0</ele>
      </trkpt>
      <trkpt lat="46.115004" lon="6.753551">
        <time>1970-01-01T00:00:00+00:00</time>
        <ele>1173.0</ele>
      </trkpt>
      <trkpt lat="46.115004" lon="6.753551">
        <time>1970-01-01T00:00:00+00:00</time>
        <ele>1173.0</ele>
      </trkpt>
      <trkpt lat="46.115006" lon="6.753693">
        <time>1970-01-01T00:00:00+00:00</time>
        <ele>1174.0</ele>
      </trkpt>
      <trkpt lat="46.115006" lon="6.753693">
        <time>1970-01-01T00:00:00+00:00</time>
        <ele>1174.0</ele>
      </trkpt>
      <trkpt lat="46.114976" lon="6.75383">
        <time>1970-01-01T00:00:00+00:00</time>
        <ele>1176.0</ele>
      </trkpt>
      <trkpt lat="46.114976" lon="6.75383">
        <time>1970-01-01T00:00:00+00:00</time>
        <ele>1176.0</ele>
      </trkpt>
      <trkpt lat="46.115076" lon="6.753853">
        <time>1970-01-01T00:00:00+00:00</time>
        <ele>1176.0</ele>
      </trkpt>
      <trkpt lat="46.115076" lon="6.753853">
        <time>1970-01-01T00:00:00+00:00</time>
        <ele>1176.0</ele>
      </trkpt>
      <trkpt lat="46.115059" lon="6.753983">
        <time>1970-01-01T00:00:00+00:00</time>
        <ele>1179.0</ele>
      </trkpt>
      <trkpt lat="46.115059" lon="6.753983">
        <time>1970-01-01T00:00:00+00:00</time>
        <ele>1179.0</ele>
      </trkpt>
      <trkpt lat="46.115116" lon="6.754087">
        <time>1970-01-01T00:00:00+00:00</time>
        <ele>1181.0</ele>
      </trkpt>
      <trkpt lat="46.115116" lon="6.754087">
        <time>1970-01-01T00:00:00+00:00</time>
        <ele>1181.0</ele>
      </trkpt>
      <trkpt lat="46.115203" lon="6.754171">
        <time>1970-01-01T00:00:00+00:00</time>
        <ele>1182.0</ele>
      </trkpt>
      <trkpt lat="46.115203" lon="6.754171">
        <time>1970-01-01T00:00:00+00:00</time>
        <ele>1182.0</ele>
      </trkpt>
      <trkpt lat="46.115295" lon="6.754227">
        <time>1970-01-01T00:00:00+00:00</time>
        <ele>1182.0</ele>
      </trkpt>
      <trkpt lat="46.115295" lon="6.754227">
        <time>1970-01-01T00:00:00+00:00</time>
        <ele>1182.0</ele>
      </trkpt>
      <trkpt lat="46.115373" lon="6.754293">
        <time>1970-01-01T00:00:00+00:00</time>
        <ele>1183.0</ele>
      </trkpt>
      <trkpt lat="46.115373" lon="6.754293">
        <time>1970-01-01T00:00:00+00:00</time>
        <ele>1183.0</ele>
      </trkpt>
      <trkpt lat="46.115469" lon="6.754331">
        <time>1970-01-01T00:00:00+00:00</time>
        <ele>1182.0</ele>
      </trkpt>
      <trkpt lat="46.115469" lon="6.754331">
        <time>1970-01-01T00:00:00+00:00</time>
        <ele>1182.0</ele>
      </trkpt>
      <trkpt lat="46.115487" lon="6.754459">
        <time>1970-01-01T00:00:00+00:00</time>
        <ele>1184.0</ele>
      </trkpt>
      <trkpt lat="46.115487" lon="6.754459">
        <time>1970-01-01T00:00:00+00:00</time>
        <ele>1184.0</ele>
      </trkpt>
      <trkpt lat="46.11559873743704" lon="6.7546623255001865">
        <time>1970-01-01T00:00:00+00:00</time>
        <ele>1186.0</ele>
      </trkpt>
      <trkpt lat="46.115609" lon="6.754681">
        <time>1970-01-01T00:00:00+00:00</time>
        <ele>1186.0</ele>
      </trkpt>
      <trkpt lat="46.115609" lon="6.754681">
        <time>1970-01-01T00:00:00+00:00</time>
        <ele>1186.0</ele>
      </trkpt>
      <trkpt lat="46.115628" lon="6.754812">
        <time>1970-01-01T00:00:00+00:00</time>
        <ele>1188.0</ele>
      </trkpt>
      <trkpt lat="46.115628" lon="6.754812">
        <time>1970-01-01T00:00:00+00:00</time>
        <ele>1188.0</ele>
      </trkpt>
      <trkpt lat="46.115609" lon="6.754944">
        <time>1970-01-01T00:00:00+00:00</time>
        <ele>1191.0</ele>
      </trkpt>
      <trkpt lat="46.115609" lon="6.754944">
        <time>1970-01-01T00:00:00+00:00</time>
        <ele>1191.0</ele>
      </trkpt>
      <trkpt lat="46.11557" lon="6.755065">
        <time>1970-01-01T00:00:00+00:00</time>
        <ele>1193.0</ele>
      </trkpt>
      <trkpt lat="46.11557" lon="6.755065">
        <time>1970-01-01T00:00:00+00:00</time>
        <ele>1193.0</ele>
      </trkpt>
      <trkpt lat="46.115548" lon="6.755207">
        <time>1970-01-01T00:00:00+00:00</time>
        <ele>1196.0</ele>
      </trkpt>
      <trkpt lat="46.115548" lon="6.755207">
        <time>1970-01-01T00:00:00+00:00</time>
        <ele>1196.0</ele>
      </trkpt>
      <trkpt lat="46.11558898539542" lon="6.755459641318053">
        <time>1970-01-01T00:00:00+00:00</time>
        <ele>1200.0</ele>
      </trkpt>
      <trkpt lat="46.115615" lon="6.75562">
        <time>1970-01-01T00:00:00+00:00</time>
        <ele>1203.0</ele>
      </trkpt>
      <trkpt lat="46.115615" lon="6.75562">
        <time>1970-01-01T00:00:00+00:00</time>
        <ele>1203.0</ele>
      </trkpt>
      <trkpt lat="46.115566" lon="6.755732">
        <time>1970-01-01T00:00:00+00:00</time>
        <ele>1207.0</ele>
      </trkpt>
      <trkpt lat="46.115566" lon="6.755732">
        <time>1970-01-01T00:00:00+00:00</time>
        <ele>1207.0</ele>
      </trkpt>
      <trkpt lat="46.115505" lon="6.755835">
        <time>1970-01-01T00:00:00+00:00</time>
        <ele>1211.0</ele>
      </trkpt>
      <trkpt lat="46.115505" lon="6.755835">
        <time>1970-01-01T00:00:00+00:00</time>
        <ele>1211.0</ele>
      </trkpt>
      <trkpt lat="46.115529" lon="6.755972">
        <time>1970-01-01T00:00:00+00:00</time>
        <ele>1213.0</ele>
      </trkpt>
      <trkpt lat="46.115529" lon="6.755972">
        <time>1970-01-01T00:00:00+00:00</time>
        <ele>1213.0</ele>
      </trkpt>
      <trkpt lat="46.115513" lon="6.756107">
        <time>1970-01-01T00:00:00+00:00</time>
        <ele>1218.0</ele>
      </trkpt>
      <trkpt lat="46.115513" lon="6.756107">
        <time>1970-01-01T00:00:00+00:00</time>
        <ele>1218.0</ele>
      </trkpt>
      <trkpt lat="46.115525" lon="6.756239">
        <time>1970-01-01T00:00:00+00:00</time>
        <ele>1222.0</ele>
      </trkpt>
      <trkpt lat="46.115525" lon="6.756239">
        <time>1970-01-01T00:00:00+00:00</time>
        <ele>1222.0</ele>
      </trkpt>
      <trkpt lat="46.115576" lon="6.756404">
        <time>1970-01-01T00:00:00+00:00</time>
        <ele>1229.0</ele>
      </trkpt>
      <trkpt lat="46.115576" lon="6.756404">
        <time>1970-01-01T00:00:00+00:00</time>
        <ele>1229.0</ele>
      </trkpt>
      <trkpt lat="46.115668" lon="6.756497">
        <time>1970-01-01T00:00:00+00:00</time>
        <ele>1231.0</ele>
      </trkpt>
      <trkpt lat="46.115668" lon="6.756497">
        <time>1970-01-01T00:00:00+00:00</time>
        <ele>1231.0</ele>
      </trkpt>
      <trkpt lat="46.11576859375604" lon="6.756712094482953">
        <time>1970-01-01T00:00:00+00:00</time>
        <ele>1239.0</ele>
      </trkpt>
      <trkpt lat="46.115869187512075" lon="6.756927188965906">
        <time>1970-01-01T00:00:00+00:00</time>
        <ele>1247.0</ele>
      </trkpt>
      <trkpt lat="46.115885" lon="6.756961">
        <time>1970-01-01T00:00:00+00:00</time>
        <ele>1248.0</ele>
      </trkpt>
      <trkpt lat="46.115885" lon="6.756961">
        <time>1970-01-01T00:00:00+00:00</time>
        <ele>1248.0</ele>
      </trkpt>
      <trkpt lat="46.115934" lon="6.75714">
        <time>1970-01-01T00:00:00+00:00</time>
        <ele>1256.0</ele>
      </trkpt>
      <trkpt lat="46.115934" lon="6.75714">
        <time>1970-01-01T00:00:00+00:00</time>
        <ele>1256.0</ele>
      </trkpt>
      <trkpt lat="46.115996" lon="6.757245">
        <time>1970-01-01T00:00:00+00:00</time>
        <ele>1259.0</ele>
      </trkpt>
      <trkpt lat="46.115996" lon="6.757245">
        <time>1970-01-01T00:00:00+00:00</time>
        <ele>1259.0</ele>
      </trkpt>
      <trkpt lat="46.116173506705586" lon="6.757286873376703">
        <time>1970-01-01T00:00:00+00:00</time>
        <ele>1251.0</ele>
      </trkpt>
      <trkpt lat="46.116191" lon="6.757291">
        <time>1970-01-01T00:00:00+00:00</time>
        <ele>1251.0</ele>
      </trkpt>
      <trkpt lat="46.116191" lon="6.757291">
        <time>1970-01-01T00:00:00+00:00</time>
        <ele>1251.0</ele>
      </trkpt>
      <trkpt lat="46.116283" lon="6.757265">
        <time>1970-01-01T00:00:00+00:00</time>
        <ele>1244.0</ele>
      </trkpt>
      <trkpt lat="46.116283" lon="6.757265">
        <time>1970-01-01T00:00:00+00:00</time>
        <ele>1244.0</ele>
      </trkpt>
      <trkpt lat="46.116451" lon="6.757286">
        <time>1970-01-01T00:00:00+00:00</time>
        <ele>1236.0</ele>
      </trkpt>
      <trkpt lat="46.116451" lon="6.757286">
        <time>1970-01-01T00:00:00+00:00</time>
        <ele>1236.0</ele>
      </trkpt>
      <trkpt lat="46.116523" lon="6.757368">
        <time>1970-01-01T00:00:00+00:00</time>
        <ele>1237.0</ele>
      </trkpt>
      <trkpt lat="46.116523" lon="6.757368">
        <time>1970-01-01T00:00:00+00:00</time>
        <ele>1237.0</ele>
      </trkpt>
      <trkpt lat="46.116615" lon="6.757398">
        <time>1970-01-01T00:00:00+00:00</time>
        <ele>1235.0</ele>
      </trkpt>
      <trkpt lat="46.116615" lon="6.757398">
        <time>1970-01-01T00:00:00+00:00</time>
        <ele>1235.0</ele>
      </trkpt>
      <trkpt lat="46.116702" lon="6.75733">
        <time>1970-01-01T00:00:00+00:00</time>
        <ele>1231.0</ele>
      </trkpt>
      <trkpt lat="46.116702" lon="6.75733">
        <time>1970-01-01T00:00:00+00:00</time>
        <ele>1231.0</ele>
      </trkpt>
      <trkpt lat="46.11675" lon="6.757202">
        <time>1970-01-01T00:00:00+00:00</time>
        <ele>1227.0</ele>
      </trkpt>
      <trkpt lat="46.11675" lon="6.757202">
        <time>1970-01-01T00:00:00+00:00</time>
        <ele>1227.0</ele>
      </trkpt>
      <trkpt lat="46.11690125600835" lon="6.757061593578755">
        <time>1970-01-01T00:00:00+00:00</time>
        <ele>1225.0</ele>
      </trkpt>
      <trkpt lat="46.116987" lon="6.756982">
        <time>1970-01-01T00:00:00+00:00</time>
        <ele>1226.0</ele>
      </trkpt>
      <trkpt lat="46.116987" lon="6.756982">
        <time>1970-01-01T00:00:00+00:00</time>
        <ele>1226.0</ele>
      </trkpt>
      <trkpt lat="46.117073" lon="6.756898">
        <time>1970-01-01T00:00:00+00:00</time>
        <ele>1228.0</ele>
      </trkpt>
      <trkpt lat="46.117073" lon="6.756898">
        <time>1970-01-01T00:00:00+00:00</time>
        <ele>1228.0</ele>
      </trkpt>
      <trkpt lat="46.11717605276797" lon="6.756685336560654">
        <time>1970-01-01T00:00:00+00:00</time>
        <ele>1230.0</ele>
      </trkpt>
      <trkpt lat="46.117183" lon="6.756671">
        <time>1970-01-01T00:00:00+00:00</time>
        <ele>1230.0</ele>
      </trkpt>
      <trkpt lat="46.117183" lon="6.756671">
        <time>1970-01-01T00:00:00+00:00</time>
        <ele>1230.0</ele>
      </trkpt>
      <trkpt lat="46.117171" lon="6.756539">
        <time>1970-01-01T00:00:00+00:00</time>
        <ele>1229.0</ele>
      </trkpt>
      <trkpt lat="46.117171" lon="6.756539">
        <time>1970-01-01T00:00:00+00:00</time>
        <ele>1229.0</ele>
      </trkpt>
      <trkpt lat="46.11727268723731" lon="6.75632497257671">
        <time>1970-01-01T00:00:00+00:00</time>
        <ele>1231.0</ele>
      </trkpt>
      <trkpt lat="46.117276" lon="6.756318">
        <time>1970-01-01T00:00:00+00:00</time>
        <ele>1232.0</ele>
      </trkpt>
      <trkpt lat="46.117276" lon="6.756318">
        <time>1970-01-01T00:00:00+00:00</time>
        <ele>1232.0</ele>
      </trkpt>
      <trkpt lat="46.117308" lon="6.756185">
        <time>1970-01-01T00:00:00+00:00</time>
        <ele>1232.0</ele>
      </trkpt>
      <trkpt lat="46.117308" lon="6.756185">
        <time>1970-01-01T00:00:00+00:00</time>
        <ele>1232.0</ele>
      </trkpt>
      <trkpt lat="46.117349" lon="6.756055">
        <time>1970-01-01T00:00:00+00:00</time>
        <ele>1232.0</ele>
      </trkpt>
      <trkpt lat="46.117349" lon="6.756055">
        <time>1970-01-01T00:00:00+00:00</time>
        <ele>1232.0</ele>
      </trkpt>
      <trkpt lat="46.117442" lon="6.756024">
        <time>1970-01-01T00:00:00+00:00</time>
        <ele>1236.0</ele>
      </trkpt>
      <trkpt lat="46.117442" lon="6.756024">
        <time>1970-01-01T00:00:00+00:00</time>
        <ele>1236.0</ele>
      </trkpt>
      <trkpt lat="46.117616998801935" lon="6.755964055659009">
        <time>1970-01-01T00:00:00+00:00</time>
        <ele>1244.0</ele>
      </trkpt>
      <trkpt lat="46.117623" lon="6.755962">
        <time>1970-01-01T00:00:00+00:00</time>
        <ele>1244.0</ele>
      </trkpt>
      <trkpt lat="46.117623" lon="6.755962">
        <time>1970-01-01T00:00:00+00:00</time>
        <ele>1244.0</ele>
      </trkpt>
      <trkpt lat="46.117709" lon="6.755894">
        <time>1970-01-01T00:00:00+00:00</time>
        <ele>1247.0</ele>
      </trkpt>
      <trkpt lat="46.117709" lon="6.755894">
        <time>1970-01-01T00:00:00+00:00</time>
        <ele>1247.0</ele>
      </trkpt>
      <trkpt lat="46.117729" lon="6.755762">
        <time>1970-01-01T00:00:00+00:00</time>
        <ele>1247.0</ele>
      </trkpt>
      <trkpt lat="46.117729" lon="6.755762">
        <time>1970-01-01T00:00:00+00:00</time>
        <ele>1247.0</ele>
      </trkpt>
      <trkpt lat="46.117707" lon="6.755628">
        <time>1970-01-01T00:00:00+00:00</time>
        <ele>1246.0</ele>
      </trkpt>
      <trkpt lat="46.117707" lon="6.755628">
        <time>1970-01-01T00:00:00+00:00</time>
        <ele>1246.0</ele>
      </trkpt>
      <trkpt lat="46.117758" lon="6.755509">
        <time>1970-01-01T00:00:00+00:00</time>
        <ele>1248.0</ele>
      </trkpt>
      <trkpt lat="46.117758" lon="6.755509">
        <time>1970-01-01T00:00:00+00:00</time>
        <ele>1248.0</ele>
      </trkpt>
      <trkpt lat="46.117775" lon="6.755361">
        <time>1970-01-01T00:00:00+00:00</time>
        <ele>1249.0</ele>
      </trkpt>
      <trkpt lat="46.117775" lon="6.755361">
        <time>1970-01-01T00:00:00+00:00</time>
        <ele>1249.0</ele>
      </trkpt>
      <trkpt lat="46.11776" lon="6.75522">
        <time>1970-01-01T00:00:00+00:00</time>
        <ele>1249.0</ele>
      </trkpt>
      <trkpt lat="46.11776" lon="6.75522">
        <time>1970-01-01T00:00:00+00:00</time>
        <ele>1249.0</ele>
      </trkpt>
      <trkpt lat="46.117721" lon="6.755089">
        <time>1970-01-01T00:00:00+00:00</time>
        <ele>1248.0</ele>
      </trkpt>
      <trkpt lat="46.117721" lon="6.755089">
        <time>1970-01-01T00:00:00+00:00</time>
        <ele>1248.0</ele>
      </trkpt>
      <trkpt lat="46.117705" lon="6.754942">
        <time>1970-01-01T00:00:00+00:00</time>
        <ele>1249.0</ele>
      </trkpt>
      <trkpt lat="46.117705" lon="6.754942">
        <time>1970-01-01T00:00:00+00:00</time>
        <ele>1249.0</ele>
      </trkpt>
      <trkpt lat="46.117772365459956" lon="6.75470140907161">
        <time>1970-01-01T00:00:00+00:00</time>
        <ele>1256.0</ele>
      </trkpt>
      <trkpt lat="46.117775" lon="6.754692">
        <time>1970-01-01T00:00:00+00:00</time>
        <ele>1256.0</ele>
      </trkpt>
      <trkpt lat="46.117775" lon="6.754692">
        <time>1970-01-01T00:00:00+00:00</time>
        <ele>1256.0</ele>
      </trkpt>
      <trkpt lat="46.117853" lon="6.754615">
        <time>1970-01-01T00:00:00+00:00</time>
        <ele>1263.0</ele>
      </trkpt>
      <trkpt lat="46.117853" lon="6.754615">
        <time>1970-01-01T00:00:00+00:00</time>
        <ele>1263.0</ele>
      </trkpt>
      <trkpt lat="46.11794" lon="6.754648">
        <time>1970-01-01T00:00:00+00:00</time>
        <ele>1268.0</ele>
      </trkpt>
      <trkpt lat="46.11794" lon="6.754648">
        <time>1970-01-01T00:00:00+00:00</time>
        <ele>1268.0</ele>
      </trkpt>
      <trkpt lat="46.11799" lon="6.754757">
        <time>1970-01-01T00:00:00+00:00</time>
        <ele>1271.0</ele>
      </trkpt>
      <trkpt lat="46.11799" lon="6.754757">
        <time>1970-01-01T00:00:00+00:00</time>
        <ele>1271.0</ele>
      </trkpt>
      <trkpt lat="46.11814848036461" lon="6.754879710501747">
        <time>1970-01-01T00:00:00+00:00</time>
        <ele>1284.0</ele>
      </trkpt>
      <trkpt lat="46.118306960729214" lon="6.755002421003495">
        <time>1970-01-01T00:00:00+00:00</time>
        <ele>1298.0</ele>
      </trkpt>
      <trkpt lat="46.118309" lon="6.755004">
        <time>1970-01-01T00:00:00+00:00</time>
        <ele>1298.0</ele>
      </trkpt>
      <trkpt lat="46.118309" lon="6.755004">
        <time>1970-01-01T00:00:00+00:00</time>
        <ele>1298.0</ele>
      </trkpt>
      <trkpt lat="46.11848781704838" lon="6.755031960483929">
        <time>1970-01-01T00:00:00+00:00</time>
        <ele>1317.0</ele>
      </trkpt>
      <trkpt lat="46.118584" lon="6.755047">
        <time>1970-01-01T00:00:00+00:00</time>
        <ele>1327.0</ele>
      </trkpt>
      <trkpt lat="46.118584" lon="6.755047">
        <time>1970-01-01T00:00:00+00:00</time>
        <ele>1327.0</ele>
      </trkpt>
      <trkpt lat="46.118500512924776" lon="6.755276835007079">
        <time>1970-01-01T00:00:00+00:00</time>
        <ele>1312.0</ele>
      </trkpt>
      <trkpt lat="46.118499" lon="6.755281">
        <time>1970-01-01T00:00:00+00:00</time>
        <ele>1312.0</ele>
      </trkpt>
      <trkpt lat="46.118499" lon="6.755281">
        <time>1970-01-01T00:00:00+00:00</time>
        <ele>1312.0</ele>
      </trkpt>
      <trkpt lat="46.11839660311032" lon="6.755494326853509">
        <time>1970-01-01T00:00:00+00:00</time>
        <ele>1296.0</ele>
      </trkpt>
      <trkpt lat="46.118391" lon="6.755506">
        <time>1970-01-01T00:00:00+00:00</time>
        <ele>1296.0</ele>
      </trkpt>
      <trkpt lat="46.118391" lon="6.755506">
        <time>1970-01-01T00:00:00+00:00</time>
        <ele>1296.0</ele>
      </trkpt>
      <trkpt lat="46.118389" lon="6.755662">
        <time>1970-01-01T00:00:00+00:00</time>
        <ele>1293.0</ele>
      </trkpt>
      <trkpt lat="46.118389" lon="6.755662">
        <time>1970-01-01T00:00:00+00:00</time>
        <ele>1293.0</ele>
      </trkpt>
      <trkpt lat="46.11828116754054" lon="6.755869677329333">
        <time>1970-01-01T00:00:00+00:00</time>
        <ele>1282.0</ele>
      </trkpt>
      <trkpt lat="46.118227" lon="6.755974">
        <time>1970-01-01T00:00:00+00:00</time>
        <ele>1277.0</ele>
      </trkpt>
      <trkpt lat="46.118227" lon="6.755974">
        <time>1970-01-01T00:00:00+00:00</time>
        <ele>1277.0</ele>
      </trkpt>
      <trkpt lat="46.11824392497476" lon="6.756232328562221">
        <time>1970-01-01T00:00:00+00:00</time>
        <ele>1279.0</ele>
      </trkpt>
      <trkpt lat="46.118246" lon="6.756264">
        <time>1970-01-01T00:00:00+00:00</time>
        <ele>1280.0</ele>
      </trkpt>
      <trkpt lat="46.118246" lon="6.756264">
        <time>1970-01-01T00:00:00+00:00</time>
        <ele>1280.0</ele>
      </trkpt>
      <trkpt lat="46.118246" lon="6.7564">
        <time>1970-01-01T00:00:00+00:00</time>
        <ele>1280.0</ele>
      </trkpt>
      <trkpt lat="46.118246" lon="6.7564">
        <time>1970-01-01T00:00:00+00:00</time>
        <ele>1280.0</ele>
      </trkpt>
      <trkpt lat="46.11833842082003" lon="6.756622604985871">
        <time>1970-01-01T00:00:00+00:00</time>
        <ele>1286.0</ele>
      </trkpt>
      <trkpt lat="46.118339" lon="6.756624">
        <time>1970-01-01T00:00:00+00:00</time>
        <ele>1286.0</ele>
      </trkpt>
      <trkpt lat="46.118339" lon="6.756624">
        <time>1970-01-01T00:00:00+00:00</time>
        <ele>1286.0</ele>
      </trkpt>
      <trkpt lat="46.11842755718267" lon="6.756849850532992">
        <time>1970-01-01T00:00:00+00:00</time>
        <ele>1293.0</ele>
      </trkpt>
      <trkpt lat="46.118488" lon="6.757004">
        <time>1970-01-01T00:00:00+00:00</time>
        <ele>1298.0</ele>
      </trkpt>
      <trkpt lat="46.118488" lon="6.757004">
        <time>1970-01-01T00:00:00+00:00</time>
        <ele>1298.0</ele>
      </trkpt>
      <trkpt lat="46.118462" lon="6.757145">
        <time>1970-01-01T00:00:00+00:00</time>
        <ele>1298.0</ele>
      </trkpt>
      <trkpt lat="46.118462" lon="6.757145">
        <time>1970-01-01T00:00:00+00:00</time>
        <ele>1298.0</ele>
      </trkpt>
      <trkpt lat="46.118328595847814" lon="6.757319043827691">
        <time>1970-01-01T00:00:00+00:00</time>
        <ele>1292.0</ele>
      </trkpt>
      <trkpt lat="46.118311" lon="6.757342">
        <time>1970-01-01T00:00:00+00:00</time>
        <ele>1292.0</ele>
      </trkpt>
      <trkpt lat="46.118311" lon="6.757342">
        <time>1970-01-01T00:00:00+00:00</time>
        <ele>1292.0</ele>
      </trkpt>
      <trkpt lat="46.118223" lon="6.757395">
        <time>1970-01-01T00:00:00+00:00</time>
        <ele>1287.0</ele>
      </trkpt>
      <trkpt lat="46.118223" lon="6.757395">
        <time>1970-01-01T00:00:00+00:00</time>
        <ele>1287.0</ele>
      </trkpt>
      <trkpt lat="46.11824790127409" lon="6.757651981148564">
        <time>1970-01-01T00:00:00+00:00</time>
        <ele>1291.0</ele>
      </trkpt>
      <trkpt lat="46.118248" lon="6.757653">
        <time>1970-01-01T00:00:00+00:00</time>
        <ele>1291.0</ele>
      </trkpt>
      <trkpt lat="46.118248" lon="6.757653">
        <time>1970-01-01T00:00:00+00:00</time>
        <ele>1291.0</ele>
      </trkpt>
      <trkpt lat="46.118193" lon="6.75776">
        <time>1970-01-01T00:00:00+00:00</time>
        <ele>1289.0</ele>
      </trkpt>
      <trkpt lat="46.118193" lon="6.75776">
        <time>1970-01-01T00:00:00+00:00</time>
        <ele>1289.0</ele>
      </trkpt>
      <trkpt lat="46.118189" lon="6.757889">
        <time>1970-01-01T00:00:00+00:00</time>
        <ele>1290.0</ele>
      </trkpt>
      <trkpt lat="46.118189" lon="6.757889">
        <time>1970-01-01T00:00:00+00:00</time>
        <ele>1290.0</ele>
      </trkpt>
      <trkpt lat="46.11825" lon="6.758004">
        <time>1970-01-01T00:00:00+00:00</time>
        <ele>1294.0</ele>
      </trkpt>
      <trkpt lat="46.11825" lon="6.758004">
        <time>1970-01-01T00:00:00+00:00</time>
        <ele>1294.0</ele>
      </trkpt>
      <trkpt lat="46.118343" lon="6.758038">
        <time>1970-01-01T00:00:00+00:00</time>
        <ele>1299.0</ele>
      </trkpt>
      <trkpt lat="46.118343" lon="6.758038">
        <time>1970-01-01T00:00:00+00:00</time>
        <ele>1299.0</ele>
      </trkpt>
      <trkpt lat="46.11846057181998" lon="6.757841630045354">
        <time>1970-01-01T00:00:00+00:00</time>
        <ele>1304.0</ele>
      </trkpt>
      <trkpt lat="46.118531" lon="6.757724">
        <time>1970-01-01T00:00:00+00:00</time>
        <ele>1306.0</ele>
      </trkpt>
      <trkpt lat="46.118531" lon="6.757724">
        <time>1970-01-01T00:00:00+00:00</time>
        <ele>1306.0</ele>
      </trkpt>
      <trkpt lat="46.118571" lon="6.757606">
        <time>1970-01-01T00:00:00+00:00</time>
        <ele>1307.0</ele>
      </trkpt>
      <trkpt lat="46.118571" lon="6.757606">
        <time>1970-01-01T00:00:00+00:00</time>
        <ele>1307.0</ele>
      </trkpt>
      <trkpt lat="46.118538" lon="6.757353">
        <time>1970-01-01T00:00:00+00:00</time>
        <ele>1304.0</ele>
      </trkpt>
      <trkpt lat="46.118538" lon="6.757353">
        <time>1970-01-01T00:00:00+00:00</time>
        <ele>1304.0</ele>
      </trkpt>
      <trkpt lat="46.11866651535786" lon="6.7571714608231686">
        <time>1970-01-01T00:00:00+00:00</time>
        <ele>1310.0</ele>
      </trkpt>
      <trkpt lat="46.118681" lon="6.757151">
        <time>1970-01-01T00:00:00+00:00</time>
        <ele>1311.0</ele>
      </trkpt>
      <trkpt lat="46.118681" lon="6.757151">
        <time>1970-01-01T00:00:00+00:00</time>
        <ele>1311.0</ele>
      </trkpt>
      <trkpt lat="46.118768" lon="6.757069">
        <time>1970-01-01T00:00:00+00:00</time>
        <ele>1316.0</ele>
      </trkpt>
      <trkpt lat="46.118768" lon="6.757069">
        <time>1970-01-01T00:00:00+00:00</time>
        <ele>1316.0</ele>
      </trkpt>
      <trkpt lat="46.118829" lon="6.756964">
        <time>1970-01-01T00:00:00+00:00</time>
        <ele>1320.0</ele>
      </trkpt>
      <trkpt lat="46.118829" lon="6.756964">
        <time>1970-01-01T00:00:00+00:00</time>
        <ele>1320.0</ele>
      </trkpt>
      <trkpt lat="46.118795" lon="6.75683">
        <time>1970-01-01T00:00:00+00:00</time>
        <ele>1318.0</ele>
      </trkpt>
      <trkpt lat="46.118795" lon="6.75683">
        <time>1970-01-01T00:00:00+00:00</time>
        <ele>1318.0</ele>
      </trkpt>
      <trkpt lat="46.11888157348889" lon="6.756602552490715">
        <time>1970-01-01T00:00:00+00:00</time>
        <ele>1327.0</ele>
      </trkpt>
      <trkpt lat="46.118964" lon="6.756386">
        <time>1970-01-01T00:00:00+00:00</time>
        <ele>1338.0</ele>
      </trkpt>
      <trkpt lat="46.118964" lon="6.756386">
        <time>1970-01-01T00:00:00+00:00</time>
        <ele>1338.0</ele>
      </trkpt>
      <trkpt lat="46.119052" lon="6.756351">
        <time>1970-01-01T00:00:00+00:00</time>
        <ele>1348.0</ele>
      </trkpt>
      <trkpt lat="46.119052" lon="6.756351">
        <time>1970-01-01T00:00:00+00:00</time>
        <ele>1348.0</ele>
      </trkpt>
      <trkpt lat="46.119127" lon="6.756433">
        <time>1970-01-01T00:00:00+00:00</time>
        <ele>1353.0</ele>
      </trkpt>
      <trkpt lat="46.119127" lon="6.756433">
        <time>1970-01-01T00:00:00+00:00</time>
        <ele>1353.0</ele>
      </trkpt>
      <trkpt lat="46.1190300660121" lon="6.756651576639372">
        <time>1970-01-01T00:00:00+00:00</time>
        <ele>1340.0</ele>
      </trkpt>
      <trkpt lat="46.119025" lon="6.756663">
        <time>1970-01-01T00:00:00+00:00</time>
        <ele>1339.0</ele>
      </trkpt>
      <trkpt lat="46.119025" lon="6.756663">
        <time>1970-01-01T00:00:00+00:00</time>
        <ele>1339.0</ele>
      </trkpt>
      <trkpt lat="46.119006" lon="6.756793">
        <time>1970-01-01T00:00:00+00:00</time>
        <ele>1335.0</ele>
      </trkpt>
      <trkpt lat="46.119006" lon="6.756793">
        <time>1970-01-01T00:00:00+00:00</time>
        <ele>1335.0</ele>
      </trkpt>
      <trkpt lat="46.119007" lon="6.756926">
        <time>1970-01-01T00:00:00+00:00</time>
        <ele>1334.0</ele>
      </trkpt>
      <trkpt lat="46.119007" lon="6.756926">
        <time>1970-01-01T00:00:00+00:00</time>
        <ele>1334.0</ele>
      </trkpt>
      <trkpt lat="46.119066" lon="6.75703">
        <time>1970-01-01T00:00:00+00:00</time>
        <ele>1338.0</ele>
      </trkpt>
      <trkpt lat="46.119066" lon="6.75703">
        <time>1970-01-01T00:00:00+00:00</time>
        <ele>1338.0</ele>
      </trkpt>
      <trkpt lat="46.119086" lon="6.757158">
        <time>1970-01-01T00:00:00+00:00</time>
        <ele>1339.0</ele>
      </trkpt>
      <trkpt lat="46.119086" lon="6.757158">
        <time>1970-01-01T00:00:00+00:00</time>
        <ele>1339.0</ele>
      </trkpt>
      <trkpt lat="46.119066" lon="6.75729">
        <time>1970-01-01T00:00:00+00:00</time>
        <ele>1337.0</ele>
      </trkpt>
      <trkpt lat="46.119066" lon="6.75729">
        <time>1970-01-01T00:00:00+00:00</time>
        <ele>1337.0</ele>
      </trkpt>
      <trkpt lat="46.119106" lon="6.757408">
        <time>1970-01-01T00:00:00+00:00</time>
        <ele>1340.0</ele>
      </trkpt>
      <trkpt lat="46.119106" lon="6.757408">
        <time>1970-01-01T00:00:00+00:00</time>
        <ele>1340.0</ele>
      </trkpt>
      <trkpt lat="46.11917" lon="6.75751">
        <time>1970-01-01T00:00:00+00:00</time>
        <ele>1345.0</ele>
      </trkpt>
      <trkpt lat="46.11917" lon="6.75751">
        <time>1970-01-01T00:00:00+00:00</time>
        <ele>1345.0</ele>
      </trkpt>
      <trkpt lat="46.11915463250981" lon="6.757768535423161">
        <time>1970-01-01T00:00:00+00:00</time>
        <ele>1343.0</ele>
      </trkpt>
      <trkpt lat="46.119153" lon="6.757796">
        <time>1970-01-01T00:00:00+00:00</time>
        <ele>1343.0</ele>
      </trkpt>
      <trkpt lat="46.119153" lon="6.757796">
        <time>1970-01-01T00:00:00+00:00</time>
        <ele>1343.0</ele>
      </trkpt>
      <trkpt lat="46.119074" lon="6.757883">
        <time>1970-01-01T00:00:00+00:00</time>
        <ele>1337.0</ele>
      </trkpt>
      <trkpt lat="46.119074" lon="6.757883">
        <time>1970-01-01T00:00:00+00:00</time>
        <ele>1337.0</ele>
      </trkpt>
      <trkpt lat="46.119232770776" lon="6.7580049289384725">
        <time>1970-01-01T00:00:00+00:00</time>
        <ele>1349.0</ele>
      </trkpt>
      <trkpt lat="46.119255" lon="6.758022">
        <time>1970-01-01T00:00:00+00:00</time>
        <ele>1351.0</ele>
      </trkpt>
      <trkpt lat="46.119255" lon="6.758022">
        <time>1970-01-01T00:00:00+00:00</time>
        <ele>1351.0</ele>
      </trkpt>
      <trkpt lat="46.119356" lon="6.75823">
        <time>1970-01-01T00:00:00+00:00</time>
        <ele>1358.0</ele>
      </trkpt>
      <trkpt lat="46.119356" lon="6.75823">
        <time>1970-01-01T00:00:00+00:00</time>
        <ele>1358.0</ele>
      </trkpt>
      <trkpt lat="46.119352" lon="6.758369">
        <time>1970-01-01T00:00:00+00:00</time>
        <ele>1358.0</ele>
      </trkpt>
      <trkpt lat="46.119352" lon="6.758369">
        <time>1970-01-01T00:00:00+00:00</time>
        <ele>1358.0</ele>
      </trkpt>
      <trkpt lat="46.11924437038937" lon="6.758576899931659">
        <time>1970-01-01T00:00:00+00:00</time>
        <ele>1353.0</ele>
      </trkpt>
      <trkpt lat="46.119235" lon="6.758595">
        <time>1970-01-01T00:00:00+00:00</time>
        <ele>1353.0</ele>
      </trkpt>
      <trkpt lat="46.119235" lon="6.758595">
        <time>1970-01-01T00:00:00+00:00</time>
        <ele>1353.0</ele>
      </trkpt>
      <trkpt lat="46.119273" lon="6.758717">
        <time>1970-01-01T00:00:00+00:00</time>
        <ele>1356.0</ele>
      </trkpt>
      <trkpt lat="46.119273" lon="6.758717">
        <time>1970-01-01T00:00:00+00:00</time>
        <ele>1356.0</ele>
      </trkpt>
      <trkpt lat="46.119366" lon="6.758784">
        <time>1970-01-01T00:00:00+00:00</time>
        <ele>1362.0</ele>
      </trkpt>
      <trkpt lat="46.119366" lon="6.758784">
        <time>1970-01-01T00:00:00+00:00</time>
        <ele>1362.0</ele>
      </trkpt>
      <trkpt lat="46.119411" lon="6.758905">
        <time>1970-01-01T00:00:00+00:00</time>
        <ele>1366.0</ele>
      </trkpt>
      <trkpt lat="46.119411" lon="6.758905">
        <time>1970-01-01T00:00:00+00:00</time>
        <ele>1366.0</ele>
      </trkpt>
      <trkpt lat="46.119391" lon="6.759037">
        <time>1970-01-01T00:00:00+00:00</time>
        <ele>1367.0</ele>
      </trkpt>
      <trkpt lat="46.119391" lon="6.759037">
        <time>1970-01-01T00:00:00+00:00</time>
        <ele>1367.0</ele>
      </trkpt>
      <trkpt lat="46.119269063291135" lon="6.759227752475251">
        <time>1970-01-01T00:00:00+00:00</time>
        <ele>1364.0</ele>
      </trkpt>
      <trkpt lat="46.119189" lon="6.759353">
        <time>1970-01-01T00:00:00+00:00</time>
        <ele>1363.0</ele>
      </trkpt>
      <trkpt lat="46.119189" lon="6.759353">
        <time>1970-01-01T00:00:00+00:00</time>
        <ele>1363.0</ele>
      </trkpt>
      <trkpt lat="46.119224" lon="6.759476">
        <time>1970-01-01T00:00:00+00:00</time>
        <ele>1367.0</ele>
      </trkpt>
      <trkpt lat="46.119224" lon="6.759476">
        <time>1970-01-01T00:00:00+00:00</time>
        <ele>1367.0</ele>
      </trkpt>
      <trkpt lat="46.119215" lon="6.759617">
        <time>1970-01-01T00:00:00+00:00</time>
        <ele>1370.0</ele>
      </trkpt>
      <trkpt lat="46.119215" lon="6.759617">
        <time>1970-01-01T00:00:00+00:00</time>
        <ele>1370.0</ele>
      </trkpt>
      <trkpt lat="46.119143" lon="6.759771">
        <time>1970-01-01T00:00:00+00:00</time>
        <ele>1370.0</ele>
      </trkpt>
      <trkpt lat="46.119143" lon="6.759771">
        <time>1970-01-01T00:00:00+00:00</time>
        <ele>1370.0</ele>
      </trkpt>
      <trkpt lat="46.119145" lon="6.759915">
        <time>1970-01-01T00:00:00+00:00</time>
        <ele>1374.0</ele>
      </trkpt>
      <trkpt lat="46.119145" lon="6.759915">
        <time>1970-01-01T00:00:00+00:00</time>
        <ele>1374.0</ele>
      </trkpt>
      <trkpt lat="46.119068" lon="6.760003">
        <time>1970-01-01T00:00:00+00:00</time>
        <ele>1372.0</ele>
      </trkpt>
      <trkpt lat="46.119068" lon="6.760003">
        <time>1970-01-01T00:00:00+00:00</time>
        <ele>1372.0</ele>
      </trkpt>
      <trkpt lat="46.119012" lon="6.76013">
        <time>1970-01-01T00:00:00+00:00</time>
        <ele>1372.0</ele>
      </trkpt>
      <trkpt lat="46.119012" lon="6.76013">
        <time>1970-01-01T00:00:00+00:00</time>
        <ele>1372.0</ele>
      </trkpt>
      <trkpt lat="46.11908434581803" lon="6.76036756802407">
        <time>1970-01-01T00:00:00+00:00</time>
        <ele>1380.0</ele>
      </trkpt>
      <trkpt lat="46.119086" lon="6.760373">
        <time>1970-01-01T00:00:00+00:00</time>
        <ele>1380.0</ele>
      </trkpt>
      <trkpt lat="46.119086" lon="6.760373">
        <time>1970-01-01T00:00:00+00:00</time>
        <ele>1380.0</ele>
      </trkpt>
      <trkpt lat="46.119007573384145" lon="6.76060651745172">
        <time>1970-01-01T00:00:00+00:00</time>
        <ele>1381.0</ele>
      </trkpt>
      <trkpt lat="46.118997" lon="6.760638">
        <time>1970-01-01T00:00:00+00:00</time>
        <ele>1381.0</ele>
      </trkpt>
      <trkpt lat="46.118997" lon="6.760638">
        <time>1970-01-01T00:00:00+00:00</time>
        <ele>1381.0</ele>
      </trkpt>
      <trkpt lat="46.11898" lon="6.760767">
        <time>1970-01-01T00:00:00+00:00</time>
        <ele>1383.0</ele>
      </trkpt>
      <trkpt lat="46.11898" lon="6.760767">
        <time>1970-01-01T00:00:00+00:00</time>
        <ele>1383.0</ele>
      </trkpt>
      <trkpt lat="46.119009" lon="6.760895">
        <time>1970-01-01T00:00:00+00:00</time>
        <ele>1388.0</ele>
      </trkpt>
      <trkpt lat="46.119009" lon="6.760895">
        <time>1970-01-01T00:00:00+00:00</time>
        <ele>1388.0</ele>
      </trkpt>
      <trkpt lat="46.118972" lon="6.761021">
        <time>1970-01-01T00:00:00+00:00</time>
        <ele>1389.0</ele>
      </trkpt>
      <trkpt lat="46.118972" lon="6.761021">
        <time>1970-01-01T00:00:00+00:00</time>
        <ele>1389.0</ele>
      </trkpt>
      <trkpt lat="46.118919" lon="6.761127">
        <time>1970-01-01T00:00:00+00:00</time>
        <ele>1389.0</ele>
      </trkpt>
      <trkpt lat="46.118919" lon="6.761127">
        <time>1970-01-01T00:00:00+00:00</time>
        <ele>1389.0</ele>
      </trkpt>
      <trkpt lat="46.118885" lon="6.76125">
        <time>1970-01-01T00:00:00+00:00</time>
        <ele>1390.0</ele>
      </trkpt>
      <trkpt lat="46.118885" lon="6.76125">
        <time>1970-01-01T00:00:00+00:00</time>
        <ele>1390.0</ele>
      </trkpt>
      <trkpt lat="46.118924" lon="6.761368">
        <time>1970-01-01T00:00:00+00:00</time>
        <ele>1395.0</ele>
      </trkpt>
      <trkpt lat="46.118924" lon="6.761368">
        <time>1970-01-01T00:00:00+00:00</time>
        <ele>1395.0</ele>
      </trkpt>
      <trkpt lat="46.11886071570593" lon="6.761610891147733">
        <time>1970-01-01T00:00:00+00:00</time>
        <ele>1397.0</ele>
      </trkpt>
      <trkpt lat="46.118819" lon="6.761771">
        <time>1970-01-01T00:00:00+00:00</time>
        <ele>1399.0</ele>
      </trkpt>
      <trkpt lat="46.118819" lon="6.761771">
        <time>1970-01-01T00:00:00+00:00</time>
        <ele>1399.0</ele>
      </trkpt>
      <trkpt lat="46.11881" lon="6.761902">
        <time>1970-01-01T00:00:00+00:00</time>
        <ele>1402.0</ele>
      </trkpt>
      <trkpt lat="46.11881" lon="6.761902">
        <time>1970-01-01T00:00:00+00:00</time>
        <ele>1402.0</ele>
      </trkpt>
      <trkpt lat="46.118766" lon="6.762028">
        <time>1970-01-01T00:00:00+00:00</time>
        <ele>1402.0</ele>
      </trkpt>
      <trkpt lat="46.118766" lon="6.762028">
        <time>1970-01-01T00:00:00+00:00</time>
        <ele>1402.0</ele>
      </trkpt>
      <trkpt lat="46.118774" lon="6.762158">
        <time>1970-01-01T00:00:00+00:00</time>
        <ele>1405.0</ele>
      </trkpt>
      <trkpt lat="46.118774" lon="6.762158">
        <time>1970-01-01T00:00:00+00:00</time>
        <ele>1405.0</ele>
      </trkpt>
      <trkpt lat="46.118798" lon="6.762285">
        <time>1970-01-01T00:00:00+00:00</time>
        <ele>1409.0</ele>
      </trkpt>
      <trkpt lat="46.118798" lon="6.762285">
        <time>1970-01-01T00:00:00+00:00</time>
        <ele>1409.0</ele>
      </trkpt>
      <trkpt lat="46.118748369596005" lon="6.762534408485889">
        <time>1970-01-01T00:00:00+00:00</time>
        <ele>1414.0</ele>
      </trkpt>
      <trkpt lat="46.118719" lon="6.762682">
        <time>1970-01-01T00:00:00+00:00</time>
        <ele>1417.0</ele>
      </trkpt>
      <trkpt lat="46.118719" lon="6.762682">
        <time>1970-01-01T00:00:00+00:00</time>
        <ele>1417.0</ele>
      </trkpt>
      <trkpt lat="46.118683" lon="6.762811">
        <time>1970-01-01T00:00:00+00:00</time>
        <ele>1419.0</ele>
      </trkpt>
      <trkpt lat="46.118683" lon="6.762811">
        <time>1970-01-01T00:00:00+00:00</time>
        <ele>1419.0</ele>
      </trkpt>
      <trkpt lat="46.118677" lon="6.762949">
        <time>1970-01-01T00:00:00+00:00</time>
        <ele>1423.0</ele>
      </trkpt>
      <trkpt lat="46.118677" lon="6.762949">
        <time>1970-01-01T00:00:00+00:00</time>
        <ele>1423.0</ele>
      </trkpt>
      <trkpt lat="46.118647" lon="6.763072">
        <time>1970-01-01T00:00:00+00:00</time>
        <ele>1426.0</ele>
      </trkpt>
      <trkpt lat="46.118647" lon="6.763072">
        <time>1970-01-01T00:00:00+00:00</time>
        <ele>1426.0</ele>
      </trkpt>
      <trkpt lat="46.11856" lon="6.763105">
        <time>1970-01-01T00:00:00+00:00</time>
        <ele>1425.0</ele>
      </trkpt>
      <trkpt lat="46.11856" lon="6.763105">
        <time>1970-01-01T00:00:00+00:00</time>
        <ele>1425.0</ele>
      </trkpt>
      <trkpt lat="46.118464" lon="6.763137">
        <time>1970-01-01T00:00:00+00:00</time>
        <ele>1425.0</ele>
      </trkpt>
      <trkpt lat="46.118464" lon="6.763137">
        <time>1970-01-01T00:00:00+00:00</time>
        <ele>1425.0</ele>
      </trkpt>
      <trkpt lat="46.118383" lon="6.763214">
        <time>1970-01-01T00:00:00+00:00</time>
        <ele>1426.0</ele>
      </trkpt>
      <trkpt lat="46.118383" lon="6.763214">
        <time>1970-01-01T00:00:00+00:00</time>
        <ele>1426.0</ele>
      </trkpt>
      <trkpt lat="46.118291" lon="6.76322">
        <time>1970-01-01T00:00:00+00:00</time>
        <ele>1426.0</ele>
      </trkpt>
      <trkpt lat="46.118291" lon="6.76322">
        <time>1970-01-01T00:00:00+00:00</time>
        <ele>1426.0</ele>
      </trkpt>
      <trkpt lat="46.118219" lon="6.763322">
        <time>1970-01-01T00:00:00+00:00</time>
        <ele>1430.0</ele>
      </trkpt>
      <trkpt lat="46.118219" lon="6.763322">
        <time>1970-01-01T00:00:00+00:00</time>
        <ele>1430.0</ele>
      </trkpt>
      <trkpt lat="46.11815157141016" lon="6.76356255605023">
        <time>1970-01-01T00:00:00+00:00</time>
        <ele>1438.0</ele>
      </trkpt>
      <trkpt lat="46.118145" lon="6.763586">
        <time>1970-01-01T00:00:00+00:00</time>
        <ele>1439.0</ele>
      </trkpt>
      <trkpt lat="46.118145" lon="6.763586">
        <time>1970-01-01T00:00:00+00:00</time>
        <ele>1439.0</ele>
      </trkpt>
      <trkpt lat="46.118105" lon="6.763706">
        <time>1970-01-01T00:00:00+00:00</time>
        <ele>1444.0</ele>
      </trkpt>
      <trkpt lat="46.118105" lon="6.763706">
        <time>1970-01-01T00:00:00+00:00</time>
        <ele>1444.0</ele>
      </trkpt>
      <trkpt lat="46.118101" lon="6.763841">
        <time>1970-01-01T00:00:00+00:00</time>
        <ele>1448.0</ele>
      </trkpt>
      <trkpt lat="46.118101" lon="6.763841">
        <time>1970-01-01T00:00:00+00:00</time>
        <ele>1448.0</ele>
      </trkpt>
      <trkpt lat="46.118012" lon="6.763817">
        <time>1970-01-01T00:00:00+00:00</time>
        <ele>1448.0</ele>
      </trkpt>
      <trkpt lat="46.118012" lon="6.763817">
        <time>1970-01-01T00:00:00+00:00</time>
        <ele>1448.0</ele>
      </trkpt>
      <trkpt lat="46.117933" lon="6.763892">
        <time>1970-01-01T00:00:00+00:00</time>
        <ele>1452.0</ele>
      </trkpt>
      <trkpt lat="46.117933" lon="6.763892">
        <time>1970-01-01T00:00:00+00:00</time>
        <ele>1452.0</ele>
      </trkpt>
      <trkpt lat="46.117827" lon="6.763862">
        <time>1970-01-01T00:00:00+00:00</time>
        <ele>1452.0</ele>
      </trkpt>
      <trkpt lat="46.117827" lon="6.763862">
        <time>1970-01-01T00:00:00+00:00</time>
        <ele>1452.0</ele>
      </trkpt>
      <trkpt lat="46.117692" lon="6.763871">
        <time>1970-01-01T00:00:00+00:00</time>
        <ele>1454.0</ele>
      </trkpt>
      <trkpt lat="46.117692" lon="6.763871">
        <time>1970-01-01T00:00:00+00:00</time>
        <ele>1454.0</ele>
      </trkpt>
      <trkpt lat="46.11761" lon="6.763797">
        <time>1970-01-01T00:00:00+00:00</time>
        <ele>1453.0</ele>
      </trkpt>
      <trkpt lat="46.11761" lon="6.763797">
        <time>1970-01-01T00:00:00+00:00</time>
        <ele>1453.0</ele>
      </trkpt>
      <trkpt lat="46.11743997352461" lon="6.76371236126996">
        <time>1970-01-01T00:00:00+00:00</time>
        <ele>1451.0</ele>
      </trkpt>
      <trkpt lat="46.117383" lon="6.763684">
        <time>1970-01-01T00:00:00+00:00</time>
        <ele>1451.0</ele>
      </trkpt>
      <trkpt lat="46.117383" lon="6.763684">
        <time>1970-01-01T00:00:00+00:00</time>
        <ele>1451.0</ele>
      </trkpt>
      <trkpt lat="46.117303" lon="6.763548">
        <time>1970-01-01T00:00:00+00:00</time>
        <ele>1448.0</ele>
      </trkpt>
      <trkpt lat="46.117303" lon="6.763548">
        <time>1970-01-01T00:00:00+00:00</time>
        <ele>1448.0</ele>
      </trkpt>
      <trkpt lat="46.117211" lon="6.763449">
        <time>1970-01-01T00:00:00+00:00</time>
        <ele>1446.0</ele>
      </trkpt>
      <trkpt lat="46.117211" lon="6.763449">
        <time>1970-01-01T00:00:00+00:00</time>
        <ele>1446.0</ele>
      </trkpt>
      <trkpt lat="46.11711" lon="6.763526">
        <time>1970-01-01T00:00:00+00:00</time>
        <ele>1445.0</ele>
      </trkpt>
      <trkpt lat="46.11711" lon="6.763526">
        <time>1970-01-01T00:00:00+00:00</time>
        <ele>1445.0</ele>
      </trkpt>
      <trkpt lat="46.117023" lon="6.763641">
        <time>1970-01-01T00:00:00+00:00</time>
        <ele>1444.0</ele>
      </trkpt>
      <trkpt lat="46.117023" lon="6.763641">
        <time>1970-01-01T00:00:00+00:00</time>
        <ele>1444.0</ele>
      </trkpt>
      <trkpt lat="46.117092" lon="6.763742">
        <time>1970-01-01T00:00:00+00:00</time>
        <ele>1447.0</ele>
      </trkpt>
      <trkpt lat="46.117092" lon="6.763742">
        <time>1970-01-01T00:00:00+00:00</time>
        <ele>1447.0</ele>
      </trkpt>
      <trkpt lat="46.11725511760961" lon="6.763851332884276">
        <time>1970-01-01T00:00:00+00:00</time>
        <ele>1452.0</ele>
      </trkpt>
      <trkpt lat="46.117277" lon="6.763866">
        <time>1970-01-01T00:00:00+00:00</time>
        <ele>1452.0</ele>
      </trkpt>
      <trkpt lat="46.117277" lon="6.763866">
        <time>1970-01-01T00:00:00+00:00</time>
        <ele>1452.0</ele>
      </trkpt>
      <trkpt lat="46.1173" lon="6.763997">
        <time>1970-01-01T00:00:00+00:00</time>
        <ele>1454.0</ele>
      </trkpt>
      <trkpt lat="46.1173" lon="6.763997">
        <time>1970-01-01T00:00:00+00:00</time>
        <ele>1454.0</ele>
      </trkpt>
      <trkpt lat="46.117326" lon="6.764133">
        <time>1970-01-01T00:00:00+00:00</time>
        <ele>1456.0</ele>
      </trkpt>
      <trkpt lat="46.117326" lon="6.764133">
        <time>1970-01-01T00:00:00+00:00</time>
        <ele>1456.0</ele>
      </trkpt>
      <trkpt lat="46.11749996738471" lon="6.76419889673663">
        <time>1970-01-01T00:00:00+00:00</time>
        <ele>1460.0</ele>
      </trkpt>
      <trkpt lat="46.117524" lon="6.764208">
        <time>1970-01-01T00:00:00+00:00</time>
        <ele>1460.0</ele>
      </trkpt>
      <trkpt lat="46.117524" lon="6.764208">
        <time>1970-01-01T00:00:00+00:00</time>
        <ele>1460.0</ele>
      </trkpt>
      <trkpt lat="46.117599" lon="6.764282">
        <time>1970-01-01T00:00:00+00:00</time>
        <ele>1462.0</ele>
      </trkpt>
      <trkpt lat="46.117599" lon="6.764282">
        <time>1970-01-01T00:00:00+00:00</time>
        <ele>1462.0</ele>
      </trkpt>
      <trkpt lat="46.1175879531608" lon="6.764540987007888">
        <time>1970-01-01T00:00:00+00:00</time>
        <ele>1465.0</ele>
      </trkpt>
      <trkpt lat="46.117581" lon="6.764704">
        <time>1970-01-01T00:00:00+00:00</time>
        <ele>1466.0</ele>
      </trkpt>
      <trkpt lat="46.117581" lon="6.764704">
        <time>1970-01-01T00:00:00+00:00</time>
        <ele>1466.0</ele>
      </trkpt>
      <trkpt lat="46.11761" lon="6.76483">
        <time>1970-01-01T00:00:00+00:00</time>
        <ele>1468.0</ele>
      </trkpt>
      <trkpt lat="46.11761" lon="6.76483">
        <time>1970-01-01T00:00:00+00:00</time>
        <ele>1468.0</ele>
      </trkpt>
      <trkpt lat="46.11766" lon="6.764948">
        <time>1970-01-01T00:00:00+00:00</time>
        <ele>1470.0</ele>
      </trkpt>
      <trkpt lat="46.11766" lon="6.764948">
        <time>1970-01-01T00:00:00+00:00</time>
        <ele>1470.0</ele>
      </trkpt>
      <trkpt lat="46.11758510689537" lon="6.765183913279577">
        <time>1970-01-01T00:00:00+00:00</time>
        <ele>1470.0</ele>
      </trkpt>
      <trkpt lat="46.11758" lon="6.7652">
        <time>1970-01-01T00:00:00+00:00</time>
        <ele>1470.0</ele>
      </trkpt>
      <trkpt lat="46.11758" lon="6.7652">
        <time>1970-01-01T00:00:00+00:00</time>
        <ele>1470.0</ele>
      </trkpt>
      <trkpt lat="46.117582" lon="6.765341">
        <time>1970-01-01T00:00:00+00:00</time>
        <ele>1471.0</ele>
      </trkpt>
      <trkpt lat="46.117582" lon="6.765341">
        <time>1970-01-01T00:00:00+00:00</time>
        <ele>1471.0</ele>
      </trkpt>
      <trkpt lat="46.117648" lon="6.765446">
        <time>1970-01-01T00:00:00+00:00</time>
        <ele>1473.0</ele>
      </trkpt>
      <trkpt lat="46.117648" lon="6.765446">
        <time>1970-01-01T00:00:00+00:00</time>
        <ele>1473.0</ele>
      </trkpt>
      <trkpt lat="46.117711" lon="6.765592">
        <time>1970-01-01T00:00:00+00:00</time>
        <ele>1475.0</ele>
      </trkpt>
      <trkpt lat="46.117711" lon="6.765592">
        <time>1970-01-01T00:00:00+00:00</time>
        <ele>1475.0</ele>
      </trkpt>
      <trkpt lat="46.117715" lon="6.765726">
        <time>1970-01-01T00:00:00+00:00</time>
        <ele>1476.0</ele>
      </trkpt>
      <trkpt lat="46.117715" lon="6.765726">
        <time>1970-01-01T00:00:00+00:00</time>
        <ele>1476.0</ele>
      </trkpt>
      <trkpt lat="46.117693" lon="6.765867">
        <time>1970-01-01T00:00:00+00:00</time>
        <ele>1477.0</ele>
      </trkpt>
      <trkpt lat="46.117693" lon="6.765867">
        <time>1970-01-01T00:00:00+00:00</time>
        <ele>1477.0</ele>
      </trkpt>
      <trkpt lat="46.117636" lon="6.765969">
        <time>1970-01-01T00:00:00+00:00</time>
        <ele>1477.0</ele>
      </trkpt>
      <trkpt lat="46.117636" lon="6.765969">
        <time>1970-01-01T00:00:00+00:00</time>
        <ele>1477.0</ele>
      </trkpt>
      <trkpt lat="46.117588" lon="6.766164">
        <time>1970-01-01T00:00:00+00:00</time>
        <ele>1478.0</ele>
      </trkpt>
      <trkpt lat="46.117588" lon="6.766164">
        <time>1970-01-01T00:00:00+00:00</time>
        <ele>1478.0</ele>
      </trkpt>
      <trkpt lat="46.117547" lon="6.766298">
        <time>1970-01-01T00:00:00+00:00</time>
        <ele>1478.0</ele>
      </trkpt>
      <trkpt lat="46.117547" lon="6.766298">
        <time>1970-01-01T00:00:00+00:00</time>
        <ele>1478.0</ele>
      </trkpt>
      <trkpt lat="46.117603" lon="6.766431">
        <time>1970-01-01T00:00:00+00:00</time>
        <ele>1482.0</ele>
      </trkpt>
      <trkpt lat="46.117603" lon="6.766431">
        <time>1970-01-01T00:00:00+00:00</time>
        <ele>1482.0</ele>
      </trkpt>
      <trkpt lat="46.117673" lon="6.766521">
        <time>1970-01-01T00:00:00+00:00</time>
        <ele>1485.0</ele>
      </trkpt>
      <trkpt lat="46.117673" lon="6.766521">
        <time>1970-01-01T00:00:00+00:00</time>
        <ele>1485.0</ele>
      </trkpt>
      <trkpt lat="46.11782231177161" lon="6.766665674760067">
        <time>1970-01-01T00:00:00+00:00</time>
        <ele>1489.0</ele>
      </trkpt>
      <trkpt lat="46.117834" lon="6.766677">
        <time>1970-01-01T00:00:00+00:00</time>
        <ele>1489.0</ele>
      </trkpt>
      <trkpt lat="46.117834" lon="6.766677">
        <time>1970-01-01T00:00:00+00:00</time>
        <ele>1489.0</ele>
      </trkpt>
      <trkpt lat="46.11786" lon="6.766807">
        <time>1970-01-01T00:00:00+00:00</time>
        <ele>1491.0</ele>
      </trkpt>
      <trkpt lat="46.11786" lon="6.766807">
        <time>1970-01-01T00:00:00+00:00</time>
        <ele>1491.0</ele>
      </trkpt>
      <trkpt lat="46.117936" lon="6.766877">
        <time>1970-01-01T00:00:00+00:00</time>
        <ele>1492.0</ele>
      </trkpt>
      <trkpt lat="46.117936" lon="6.766877">
        <time>1970-01-01T00:00:00+00:00</time>
        <ele>1492.0</ele>
      </trkpt>
      <trkpt lat="46.118024" lon="6.766918">
        <time>1970-01-01T00:00:00+00:00</time>
        <ele>1494.0</ele>
      </trkpt>
      <trkpt lat="46.118024" lon="6.766918">
        <time>1970-01-01T00:00:00+00:00</time>
        <ele>1494.0</ele>
      </trkpt>
      <trkpt lat="46.118122" lon="6.766931">
        <time>1970-01-01T00:00:00+00:00</time>
        <ele>1497.0</ele>
      </trkpt>
      <trkpt lat="46.118122" lon="6.766931">
        <time>1970-01-01T00:00:00+00:00</time>
        <ele>1497.0</ele>
      </trkpt>
      <trkpt lat="46.118194" lon="6.766842">
        <time>1970-01-01T00:00:00+00:00</time>
        <ele>1498.0</ele>
      </trkpt>
      <trkpt lat="46.118194" lon="6.766842">
        <time>1970-01-01T00:00:00+00:00</time>
        <ele>1498.0</ele>
      </trkpt>
      <trkpt lat="46.11828" lon="6.766804">
        <time>1970-01-01T00:00:00+00:00</time>
        <ele>1500.0</ele>
      </trkpt>
      <trkpt lat="46.11828" lon="6.766804">
        <time>1970-01-01T00:00:00+00:00</time>
        <ele>1500.0</ele>
      </trkpt>
      <trkpt lat="46.118333" lon="6.766917">
        <time>1970-01-01T00:00:00+00:00</time>
        <ele>1503.0</ele>
      </trkpt>
      <trkpt lat="46.118333" lon="6.766917">
        <time>1970-01-01T00:00:00+00:00</time>
        <ele>1503.0</ele>
      </trkpt>
      <trkpt lat="46.118306" lon="6.767049">
        <time>1970-01-01T00:00:00+00:00</time>
        <ele>1503.0</ele>
      </trkpt>
      <trkpt lat="46.118306" lon="6.767049">
        <time>1970-01-01T00:00:00+00:00</time>
        <ele>1503.0</ele>
      </trkpt>
      <trkpt lat="46.118302" lon="6.767187">
        <time>1970-01-01T00:00:00+00:00</time>
        <ele>1504.0</ele>
      </trkpt>
      <trkpt lat="46.118302" lon="6.767187">
        <time>1970-01-01T00:00:00+00:00</time>
        <ele>1504.0</ele>
      </trkpt>
      <trkpt lat="46.118344" lon="6.767315">
        <time>1970-01-01T00:00:00+00:00</time>
        <ele>1506.0</ele>
      </trkpt>
      <trkpt lat="46.118344" lon="6.767315">
        <time>1970-01-01T00:00:00+00:00</time>
        <ele>1506.0</ele>
      </trkpt>
      <trkpt lat="46.118333" lon="6.767445">
        <time>1970-01-01T00:00:00+00:00</time>
        <ele>1506.0</ele>
      </trkpt>
      <trkpt lat="46.118333" lon="6.767445">
        <time>1970-01-01T00:00:00+00:00</time>
        <ele>1506.0</ele>
      </trkpt>
      <trkpt lat="46.118353" lon="6.767576">
        <time>1970-01-01T00:00:00+00:00</time>
        <ele>1508.0</ele>
      </trkpt>
      <trkpt lat="46.118353" lon="6.767576">
        <time>1970-01-01T00:00:00+00:00</time>
        <ele>1508.0</ele>
      </trkpt>
      <trkpt lat="46.118412" lon="6.767683">
        <time>1970-01-01T00:00:00+00:00</time>
        <ele>1512.0</ele>
      </trkpt>
      <trkpt lat="46.118412" lon="6.767683">
        <time>1970-01-01T00:00:00+00:00</time>
        <ele>1512.0</ele>
      </trkpt>
      <trkpt lat="46.11838" lon="6.767814">
        <time>1970-01-01T00:00:00+00:00</time>
        <ele>1512.0</ele>
      </trkpt>
      <trkpt lat="46.11838" lon="6.767814">
        <time>1970-01-01T00:00:00+00:00</time>
        <ele>1512.0</ele>
      </trkpt>
      <trkpt lat="46.118368" lon="6.767952">
        <time>1970-01-01T00:00:00+00:00</time>
        <ele>1514.0</ele>
      </trkpt>
      <trkpt lat="46.118368" lon="6.767952">
        <time>1970-01-01T00:00:00+00:00</time>
        <ele>1514.0</ele>
      </trkpt>
      <trkpt lat="46.118298219555214" lon="6.768191156615302">
        <time>1970-01-01T00:00:00+00:00</time>
        <ele>1515.0</ele>
      </trkpt>
      <trkpt lat="46.118258" lon="6.768329">
        <time>1970-01-01T00:00:00+00:00</time>
        <ele>1517.0</ele>
      </trkpt>
      <trkpt lat="46.118258" lon="6.768329">
        <time>1970-01-01T00:00:00+00:00</time>
        <ele>1517.0</ele>
      </trkpt>
      <trkpt lat="46.118342" lon="6.768397">
        <time>1970-01-01T00:00:00+00:00</time>
        <ele>1519.0</ele>
      </trkpt>
      <trkpt lat="46.118342" lon="6.768397">
        <time>1970-01-01T00:00:00+00:00</time>
        <ele>1519.0</ele>
      </trkpt>
      <trkpt lat="46.11835145698942" lon="6.768656121510162">
        <time>1970-01-01T00:00:00+00:00</time>
        <ele>1523.0</ele>
      </trkpt>
      <trkpt lat="46.118352" lon="6.768671">
        <time>1970-01-01T00:00:00+00:00</time>
        <ele>1523.0</ele>
      </trkpt>
      <trkpt lat="46.118352" lon="6.768671">
        <time>1970-01-01T00:00:00+00:00</time>
        <ele>1523.0</ele>
      </trkpt>
      <trkpt lat="46.11826041321591" lon="6.76889432119957">
        <time>1970-01-01T00:00:00+00:00</time>
        <ele>1529.0</ele>
      </trkpt>
      <trkpt lat="46.118206" lon="6.769027">
        <time>1970-01-01T00:00:00+00:00</time>
        <ele>1534.0</ele>
      </trkpt>
      <trkpt lat="46.118206" lon="6.769027">
        <time>1970-01-01T00:00:00+00:00</time>
        <ele>1534.0</ele>
      </trkpt>
      <trkpt lat="46.118194" lon="6.769191">
        <time>1970-01-01T00:00:00+00:00</time>
        <ele>1540.0</ele>
      </trkpt>
      <trkpt lat="46.118194" lon="6.769191">
        <time>1970-01-01T00:00:00+00:00</time>
        <ele>1540.0</ele>
      </trkpt>
      <trkpt lat="46.118286" lon="6.769229">
        <time>1970-01-01T00:00:00+00:00</time>
        <ele>1539.0</ele>
      </trkpt>
      <trkpt lat="46.118286" lon="6.769229">
        <time>1970-01-01T00:00:00+00:00</time>
        <ele>1539.0</ele>
      </trkpt>
      <trkpt lat="46.118451071821454" lon="6.769125949383142">
        <time>1970-01-01T00:00:00+00:00</time>
        <ele>1536.0</ele>
      </trkpt>
      <trkpt lat="46.1186161436429" lon="6.769022898766282">
        <time>1970-01-01T00:00:00+00:00</time>
        <ele>1535.0</ele>
      </trkpt>
      <trkpt lat="46.118632" lon="6.769013">
        <time>1970-01-01T00:00:00+00:00</time>
        <ele>1535.0</ele>
      </trkpt>
      <trkpt lat="46.118632" lon="6.769013">
        <time>1970-01-01T00:00:00+00:00</time>
        <ele>1535.0</ele>
      </trkpt>
      <trkpt lat="46.118668" lon="6.768887">
        <time>1970-01-01T00:00:00+00:00</time>
        <ele>1534.0</ele>
      </trkpt>
      <trkpt lat="46.118668" lon="6.768887">
        <time>1970-01-01T00:00:00+00:00</time>
        <ele>1534.0</ele>
      </trkpt>
      <trkpt lat="46.1188070819237" lon="6.768722465175226">
        <time>1970-01-01T00:00:00+00:00</time>
        <ele>1537.0</ele>
      </trkpt>
      <trkpt lat="46.118821" lon="6.768706">
        <time>1970-01-01T00:00:00+00:00</time>
        <ele>1537.0</ele>
      </trkpt>
      <trkpt lat="46.118821" lon="6.768706">
        <time>1970-01-01T00:00:00+00:00</time>
        <ele>1537.0</ele>
      </trkpt>
      <trkpt lat="46.118834" lon="6.768574">
        <time>1970-01-01T00:00:00+00:00</time>
        <ele>1537.0</ele>
      </trkpt>
      <trkpt lat="46.118834" lon="6.768574">
        <time>1970-01-01T00:00:00+00:00</time>
        <ele>1537.0</ele>
      </trkpt>
      <trkpt lat="46.118912207742255" lon="6.768340330526187">
        <time>1970-01-01T00:00:00+00:00</time>
        <ele>1539.0</ele>
      </trkpt>
      <trkpt lat="46.118916" lon="6.768329">
        <time>1970-01-01T00:00:00+00:00</time>
        <ele>1539.0</ele>
      </trkpt>
      <trkpt lat="46.118916" lon="6.768329">
        <time>1970-01-01T00:00:00+00:00</time>
        <ele>1539.0</ele>
      </trkpt>
      <trkpt lat="46.118998" lon="6.768108">
        <time>1970-01-01T00:00:00+00:00</time>
        <ele>1542.0</ele>
      </trkpt>
      <trkpt lat="46.118998" lon="6.768108">
        <time>1970-01-01T00:00:00+00:00</time>
        <ele>1542.0</ele>
      </trkpt>
      <trkpt lat="46.119093" lon="6.768114">
        <time>1970-01-01T00:00:00+00:00</time>
        <ele>1546.0</ele>
      </trkpt>
      <trkpt lat="46.119093" lon="6.768114">
        <time>1970-01-01T00:00:00+00:00</time>
        <ele>1546.0</ele>
      </trkpt>
      <trkpt lat="46.119183" lon="6.768112">
        <time>1970-01-01T00:00:00+00:00</time>
        <ele>1548.0</ele>
      </trkpt>
      <trkpt lat="46.119183" lon="6.768112">
        <time>1970-01-01T00:00:00+00:00</time>
        <ele>1548.0</ele>
      </trkpt>
      <trkpt lat="46.119259" lon="6.768197">
        <time>1970-01-01T00:00:00+00:00</time>
        <ele>1550.0</ele>
      </trkpt>
      <trkpt lat="46.119259" lon="6.768197">
        <time>1970-01-01T00:00:00+00:00</time>
        <ele>1550.0</ele>
      </trkpt>
      <trkpt lat="46.119340219722304" lon="6.768428522886584">
        <time>1970-01-01T00:00:00+00:00</time>
        <ele>1553.0</ele>
      </trkpt>
      <trkpt lat="46.119346" lon="6.768445">
        <time>1970-01-01T00:00:00+00:00</time>
        <ele>1553.0</ele>
      </trkpt>
      <trkpt lat="46.119346" lon="6.768445">
        <time>1970-01-01T00:00:00+00:00</time>
        <ele>1553.0</ele>
      </trkpt>
      <trkpt lat="46.119396" lon="6.768569">
        <time>1970-01-01T00:00:00+00:00</time>
        <ele>1555.0</ele>
      </trkpt>
      <trkpt lat="46.119396" lon="6.768569">
        <time>1970-01-01T00:00:00+00:00</time>
        <ele>1555.0</ele>
      </trkpt>
      <trkpt lat="46.119522700084644" lon="6.768753178659626">
        <time>1970-01-01T00:00:00+00:00</time>
        <ele>1559.0</ele>
      </trkpt>
      <trkpt lat="46.119601" lon="6.768867">
        <time>1970-01-01T00:00:00+00:00</time>
        <ele>1561.0</ele>
      </trkpt>
      <trkpt lat="46.119601" lon="6.768867">
        <time>1970-01-01T00:00:00+00:00</time>
        <ele>1561.0</ele>
      </trkpt>
      <trkpt lat="46.119637" lon="6.768989">
        <time>1970-01-01T00:00:00+00:00</time>
        <ele>1564.0</ele>
      </trkpt>
      <trkpt lat="46.119637" lon="6.768989">
        <time>1970-01-01T00:00:00+00:00</time>
        <ele>1564.0</ele>
      </trkpt>
      <trkpt lat="46.11967" lon="6.769117">
        <time>1970-01-01T00:00:00+00:00</time>
        <ele>1566.0</ele>
      </trkpt>
      <trkpt lat="46.11967" lon="6.769117">
        <time>1970-01-01T00:00:00+00:00</time>
        <ele>1566.0</ele>
      </trkpt>
      <trkpt lat="46.119591" lon="6.769196">
        <time>1970-01-01T00:00:00+00:00</time>
        <ele>1567.0</ele>
      </trkpt>
      <trkpt lat="46.119591" lon="6.769196">
        <time>1970-01-01T00:00:00+00:00</time>
        <ele>1567.0</ele>
      </trkpt>
      <trkpt lat="46.11941547010051" lon="6.769252622548221">
        <time>1970-01-01T00:00:00+00:00</time>
        <ele>1565.0</ele>
      </trkpt>
      <trkpt lat="46.119405" lon="6.769256">
        <time>1970-01-01T00:00:00+00:00</time>
        <ele>1565.0</ele>
      </trkpt>
      <trkpt lat="46.119405" lon="6.769256">
        <time>1970-01-01T00:00:00+00:00</time>
        <ele>1565.0</ele>
      </trkpt>
      <trkpt lat="46.119361" lon="6.769375">
        <time>1970-01-01T00:00:00+00:00</time>
        <ele>1564.0</ele>
      </trkpt>
      <trkpt lat="46.119361" lon="6.769375">
        <time>1970-01-01T00:00:00+00:00</time>
        <ele>1564.0</ele>
      </trkpt>
      <trkpt lat="46.119432" lon="6.769493">
        <time>1970-01-01T00:00:00+00:00</time>
        <ele>1569.0</ele>
      </trkpt>
      <trkpt lat="46.119432" lon="6.769493">
        <time>1970-01-01T00:00:00+00:00</time>
        <ele>1569.0</ele>
      </trkpt>
      <trkpt lat="46.11947795222645" lon="6.769743874317355">
        <time>1970-01-01T00:00:00+00:00</time>
        <ele>1573.0</ele>
      </trkpt>
      <trkpt lat="46.119506" lon="6.769897">
        <time>1970-01-01T00:00:00+00:00</time>
        <ele>1575.0</ele>
      </trkpt>
      <trkpt lat="46.119506" lon="6.769897">
        <time>1970-01-01T00:00:00+00:00</time>
        <ele>1575.0</ele>
      </trkpt>
      <trkpt lat="46.119489" lon="6.770031">
        <time>1970-01-01T00:00:00+00:00</time>
        <ele>1575.0</ele>
      </trkpt>
      <trkpt lat="46.119489" lon="6.770031">
        <time>1970-01-01T00:00:00+00:00</time>
        <ele>1575.0</ele>
      </trkpt>
      <trkpt lat="46.11936718503118" lon="6.770221914687974">
        <time>1970-01-01T00:00:00+00:00</time>
        <ele>1574.0</ele>
      </trkpt>
      <trkpt lat="46.119318" lon="6.770299">
        <time>1970-01-01T00:00:00+00:00</time>
        <ele>1574.0</ele>
      </trkpt>
      <trkpt lat="46.119318" lon="6.770299">
        <time>1970-01-01T00:00:00+00:00</time>
        <ele>1574.0</ele>
      </trkpt>
      <trkpt lat="46.119367" lon="6.77041">
        <time>1970-01-01T00:00:00+00:00</time>
        <ele>1577.0</ele>
      </trkpt>
      <trkpt lat="46.119367" lon="6.77041">
        <time>1970-01-01T00:00:00+00:00</time>
        <ele>1577.0</ele>
      </trkpt>
      <trkpt lat="46.119388" lon="6.770608">
        <time>1970-01-01T00:00:00+00:00</time>
        <ele>1580.0</ele>
      </trkpt>
      <trkpt lat="46.119388" lon="6.770608">
        <time>1970-01-01T00:00:00+00:00</time>
        <ele>1580.0</ele>
      </trkpt>
      <trkpt lat="46.119438" lon="6.770718">
        <time>1970-01-01T00:00:00+00:00</time>
        <ele>1581.0</ele>
      </trkpt>
      <trkpt lat="46.119438" lon="6.770718">
        <time>1970-01-01T00:00:00+00:00</time>
        <ele>1581.0</ele>
      </trkpt>
      <trkpt lat="46.119373" lon="6.770827">
        <time>1970-01-01T00:00:00+00:00</time>
        <ele>1583.0</ele>
      </trkpt>
      <trkpt lat="46.119373" lon="6.770827">
        <time>1970-01-01T00:00:00+00:00</time>
        <ele>1583.0</ele>
      </trkpt>
      <trkpt lat="46.119302" lon="6.770963">
        <time>1970-01-01T00:00:00+00:00</time>
        <ele>1585.0</ele>
      </trkpt>
      <trkpt lat="46.119302" lon="6.770963">
        <time>1970-01-01T00:00:00+00:00</time>
        <ele>1585.0</ele>
      </trkpt>
      <trkpt lat="46.119327" lon="6.771097">
        <time>1970-01-01T00:00:00+00:00</time>
        <ele>1587.0</ele>
      </trkpt>
      <trkpt lat="46.119327" lon="6.771097">
        <time>1970-01-01T00:00:00+00:00</time>
        <ele>1587.0</ele>
      </trkpt>
      <trkpt lat="46.11932" lon="6.771245">
        <time>1970-01-01T00:00:00+00:00</time>
        <ele>1590.0</ele>
      </trkpt>
      <trkpt lat="46.11932" lon="6.771245">
        <time>1970-01-01T00:00:00+00:00</time>
        <ele>1590.0</ele>
      </trkpt>
      <trkpt lat="46.119396" lon="6.771339">
        <time>1970-01-01T00:00:00+00:00</time>
        <ele>1591.0</ele>
      </trkpt>
      <trkpt lat="46.119396" lon="6.771339">
        <time>1970-01-01T00:00:00+00:00</time>
        <ele>1591.0</ele>
      </trkpt>
      <trkpt lat="46.119495" lon="6.771366">
        <time>1970-01-01T00:00:00+00:00</time>
        <ele>1591.0</ele>
      </trkpt>
      <trkpt lat="46.119495" lon="6.771366">
        <time>1970-01-01T00:00:00+00:00</time>
        <ele>1591.0</ele>
      </trkpt>
      <trkpt lat="46.119582" lon="6.771282">
        <time>1970-01-01T00:00:00+00:00</time>
        <ele>1591.0</ele>
      </trkpt>
      <trkpt lat="46.119582" lon="6.771282">
        <time>1970-01-01T00:00:00+00:00</time>
        <ele>1591.0</ele>
      </trkpt>
      <trkpt lat="46.11965424150866" lon="6.77104436345835">
        <time>1970-01-01T00:00:00+00:00</time>
        <ele>1588.0</ele>
      </trkpt>
      <trkpt lat="46.119658" lon="6.771032">
        <time>1970-01-01T00:00:00+00:00</time>
        <ele>1588.0</ele>
      </trkpt>
      <trkpt lat="46.119658" lon="6.771032">
        <time>1970-01-01T00:00:00+00:00</time>
        <ele>1588.0</ele>
      </trkpt>
      <trkpt lat="46.1198" lon="6.770979">
        <time>1970-01-01T00:00:00+00:00</time>
        <ele>1592.0</ele>
      </trkpt>
      <trkpt lat="46.1198" lon="6.770979">
        <time>1970-01-01T00:00:00+00:00</time>
        <ele>1592.0</ele>
      </trkpt>
      <trkpt lat="46.119894" lon="6.770988">
        <time>1970-01-01T00:00:00+00:00</time>
        <ele>1595.0</ele>
      </trkpt>
      <trkpt lat="46.119894" lon="6.770988">
        <time>1970-01-01T00:00:00+00:00</time>
        <ele>1595.0</ele>
      </trkpt>
      <trkpt lat="46.119958" lon="6.771094">
        <time>1970-01-01T00:00:00+00:00</time>
        <ele>1597.0</ele>
      </trkpt>
      <trkpt lat="46.119958" lon="6.771094">
        <time>1970-01-01T00:00:00+00:00</time>
        <ele>1597.0</ele>
      </trkpt>
      <trkpt lat="46.120053" lon="6.771156">
        <time>1970-01-01T00:00:00+00:00</time>
        <ele>1600.0</ele>
      </trkpt>
      <trkpt lat="46.120053" lon="6.771156">
        <time>1970-01-01T00:00:00+00:00</time>
        <ele>1600.0</ele>
      </trkpt>
      <trkpt lat="46.120134" lon="6.771361">
        <time>1970-01-01T00:00:00+00:00</time>
        <ele>1605.0</ele>
      </trkpt>
      <trkpt lat="46.120134" lon="6.771361">
        <time>1970-01-01T00:00:00+00:00</time>
        <ele>1605.0</ele>
      </trkpt>
      <trkpt lat="46.120105" lon="6.771566">
        <time>1970-01-01T00:00:00+00:00</time>
        <ele>1608.0</ele>
      </trkpt>
      <trkpt lat="46.120105" lon="6.771566">
        <time>1970-01-01T00:00:00+00:00</time>
        <ele>1608.0</ele>
      </trkpt>
      <trkpt lat="46.120104" lon="6.771702">
        <time>1970-01-01T00:00:00+00:00</time>
        <ele>1611.0</ele>
      </trkpt>
      <trkpt lat="46.120104" lon="6.771702">
        <time>1970-01-01T00:00:00+00:00</time>
        <ele>1611.0</ele>
      </trkpt>
      <trkpt lat="46.120238016476065" lon="6.771875067634653">
        <time>1970-01-01T00:00:00+00:00</time>
        <ele>1618.0</ele>
      </trkpt>
      <trkpt lat="46.120255" lon="6.771897">
        <time>1970-01-01T00:00:00+00:00</time>
        <ele>1619.0</ele>
      </trkpt>
      <trkpt lat="46.120255" lon="6.771897">
        <time>1970-01-01T00:00:00+00:00</time>
        <ele>1619.0</ele>
      </trkpt>
      <trkpt lat="46.12028" lon="6.772059">
        <time>1970-01-01T00:00:00+00:00</time>
        <ele>1622.0</ele>
      </trkpt>
      <trkpt lat="46.12028" lon="6.772059">
        <time>1970-01-01T00:00:00+00:00</time>
        <ele>1622.0</ele>
      </trkpt>
      <trkpt lat="46.120395" lon="6.772129">
        <time>1970-01-01T00:00:00+00:00</time>
        <ele>1626.0</ele>
      </trkpt>
      <trkpt lat="46.120395" lon="6.772129">
        <time>1970-01-01T00:00:00+00:00</time>
        <ele>1626.0</ele>
      </trkpt>
      <trkpt lat="46.120458" lon="6.772225">
        <time>1970-01-01T00:00:00+00:00</time>
        <ele>1628.0</ele>
      </trkpt>
      <trkpt lat="46.120458" lon="6.772225">
        <time>1970-01-01T00:00:00+00:00</time>
        <ele>1628.0</ele>
      </trkpt>
      <trkpt lat="46.120581999898526" lon="6.77241296810015">
        <time>1970-01-01T00:00:00+00:00</time>
        <ele>1631.0</ele>
      </trkpt>
      <trkpt lat="46.120584" lon="6.772416">
        <time>1970-01-01T00:00:00+00:00</time>
        <ele>1631.0</ele>
      </trkpt>
      <trkpt lat="46.120584" lon="6.772416">
        <time>1970-01-01T00:00:00+00:00</time>
        <ele>1631.0</ele>
      </trkpt>
      <trkpt lat="46.12063801385433" lon="6.772663514035813">
        <time>1970-01-01T00:00:00+00:00</time>
        <ele>1633.0</ele>
      </trkpt>
      <trkpt lat="46.120675" lon="6.772833">
        <time>1970-01-01T00:00:00+00:00</time>
        <ele>1635.0</ele>
      </trkpt>
      <trkpt lat="46.120675" lon="6.772833">
        <time>1970-01-01T00:00:00+00:00</time>
        <ele>1635.0</ele>
      </trkpt>
      <trkpt lat="46.120634" lon="6.772959">
        <time>1970-01-01T00:00:00+00:00</time>
        <ele>1636.0</ele>
      </trkpt>
      <trkpt lat="46.120634" lon="6.772959">
        <time>1970-01-01T00:00:00+00:00</time>
        <ele>1636.0</ele>
      </trkpt>
      <trkpt lat="46.120648530509904" lon="6.7732176430763165">
        <time>1970-01-01T00:00:00+00:00</time>
        <ele>1642.0</ele>
      </trkpt>
      <trkpt lat="46.120649" lon="6.773226">
        <time>1970-01-01T00:00:00+00:00</time>
        <ele>1642.0</ele>
      </trkpt>
      <trkpt lat="46.120649" lon="6.773226">
        <time>1970-01-01T00:00:00+00:00</time>
        <ele>1642.0</ele>
      </trkpt>
      <trkpt lat="46.120721" lon="6.773315">
        <time>1970-01-01T00:00:00+00:00</time>
        <ele>1644.0</ele>
      </trkpt>
      <trkpt lat="46.120721" lon="6.773315">
        <time>1970-01-01T00:00:00+00:00</time>
        <ele>1644.0</ele>
      </trkpt>
      <trkpt lat="46.12073" lon="6.773452">
        <time>1970-01-01T00:00:00+00:00</time>
        <ele>1646.0</ele>
      </trkpt>
      <trkpt lat="46.12073" lon="6.773452">
        <time>1970-01-01T00:00:00+00:00</time>
        <ele>1646.0</ele>
      </trkpt>
      <trkpt lat="46.120705" lon="6.773581">
        <time>1970-01-01T00:00:00+00:00</time>
        <ele>1647.0</ele>
      </trkpt>
      <trkpt lat="46.120705" lon="6.773581">
        <time>1970-01-01T00:00:00+00:00</time>
        <ele>1647.0</ele>
      </trkpt>
      <trkpt lat="46.120715" lon="6.773712">
        <time>1970-01-01T00:00:00+00:00</time>
        <ele>1649.0</ele>
      </trkpt>
      <trkpt lat="46.120715" lon="6.773712">
        <time>1970-01-01T00:00:00+00:00</time>
        <ele>1649.0</ele>
      </trkpt>
      <trkpt lat="46.120788" lon="6.773789">
        <time>1970-01-01T00:00:00+00:00</time>
        <ele>1651.0</ele>
      </trkpt>
      <trkpt lat="46.120788" lon="6.773789">
        <time>1970-01-01T00:00:00+00:00</time>
        <ele>1651.0</ele>
      </trkpt>
      <trkpt lat="46.120825" lon="6.773908">
        <time>1970-01-01T00:00:00+00:00</time>
        <ele>1652.0</ele>
      </trkpt>
      <trkpt lat="46.120825" lon="6.773908">
        <time>1970-01-01T00:00:00+00:00</time>
        <ele>1652.0</ele>
      </trkpt>
      <trkpt lat="46.120852" lon="6.774041">
        <time>1970-01-01T00:00:00+00:00</time>
        <ele>1653.0</ele>
      </trkpt>
      <trkpt lat="46.120852" lon="6.774041">
        <time>1970-01-01T00:00:00+00:00</time>
        <ele>1653.0</ele>
      </trkpt>
      <trkpt lat="46.120929" lon="6.77411">
        <time>1970-01-01T00:00:00+00:00</time>
        <ele>1655.0</ele>
      </trkpt>
      <trkpt lat="46.120929" lon="6.77411">
        <time>1970-01-01T00:00:00+00:00</time>
        <ele>1655.0</ele>
      </trkpt>
      <trkpt lat="46.120995" lon="6.774214">
        <time>1970-01-01T00:00:00+00:00</time>
        <ele>1658.0</ele>
      </trkpt>
      <trkpt lat="46.120995" lon="6.774214">
        <time>1970-01-01T00:00:00+00:00</time>
        <ele>1658.0</ele>
      </trkpt>
      <trkpt lat="46.121001" lon="6.774355">
        <time>1970-01-01T00:00:00+00:00</time>
        <ele>1660.0</ele>
      </trkpt>
      <trkpt lat="46.121001" lon="6.774355">
        <time>1970-01-01T00:00:00+00:00</time>
        <ele>1660.0</ele>
      </trkpt>
      <trkpt lat="46.121037" lon="6.774477">
        <time>1970-01-01T00:00:00+00:00</time>
        <ele>1662.0</ele>
      </trkpt>
      <trkpt lat="46.121037" lon="6.774477">
        <time>1970-01-01T00:00:00+00:00</time>
        <ele>1662.0</ele>
      </trkpt>
      <trkpt lat="46.121031" lon="6.774608">
        <time>1970-01-01T00:00:00+00:00</time>
        <ele>1664.0</ele>
      </trkpt>
      <trkpt lat="46.121031" lon="6.774608">
        <time>1970-01-01T00:00:00+00:00</time>
        <ele>1664.0</ele>
      </trkpt>
      <trkpt lat="46.121053" lon="6.774736">
        <time>1970-01-01T00:00:00+00:00</time>
        <ele>1665.0</ele>
      </trkpt>
      <trkpt lat="46.121053" lon="6.774736">
        <time>1970-01-01T00:00:00+00:00</time>
        <ele>1665.0</ele>
      </trkpt>
      <trkpt lat="46.121044" lon="6.774874">
        <time>1970-01-01T00:00:00+00:00</time>
        <ele>1667.0</ele>
      </trkpt>
      <trkpt lat="46.121044" lon="6.774874">
        <time>1970-01-01T00:00:00+00:00</time>
        <ele>1667.0</ele>
      </trkpt>
      <trkpt lat="46.121069" lon="6.775">
        <time>1970-01-01T00:00:00+00:00</time>
        <ele>1670.0</ele>
      </trkpt>
      <trkpt lat="46.121069" lon="6.775">
        <time>1970-01-01T00:00:00+00:00</time>
        <ele>1670.0</ele>
      </trkpt>
      <trkpt lat="46.121146" lon="6.775083">
        <time>1970-01-01T00:00:00+00:00</time>
        <ele>1672.0</ele>
      </trkpt>
      <trkpt lat="46.121146" lon="6.775083">
        <time>1970-01-01T00:00:00+00:00</time>
        <ele>1672.0</ele>
      </trkpt>
      <trkpt lat="46.121172" lon="6.775213">
        <time>1970-01-01T00:00:00+00:00</time>
        <ele>1675.0</ele>
      </trkpt>
      <trkpt lat="46.121172" lon="6.775213">
        <time>1970-01-01T00:00:00+00:00</time>
        <ele>1675.0</ele>
      </trkpt>
      <trkpt lat="46.121271066311245" lon="6.775429586151061">
        <time>1970-01-01T00:00:00+00:00</time>
        <ele>1680.0</ele>
      </trkpt>
      <trkpt lat="46.121274" lon="6.775436">
        <time>1970-01-01T00:00:00+00:00</time>
        <ele>1680.0</ele>
      </trkpt>
      <trkpt lat="46.121274" lon="6.775436">
        <time>1970-01-01T00:00:00+00:00</time>
        <ele>1680.0</ele>
      </trkpt>
      <trkpt lat="46.12128791628521" lon="6.775694716393239">
        <time>1970-01-01T00:00:00+00:00</time>
        <ele>1686.0</ele>
      </trkpt>
      <trkpt lat="46.121296" lon="6.775845">
        <time>1970-01-01T00:00:00+00:00</time>
        <ele>1690.0</ele>
      </trkpt>
      <trkpt lat="46.121296" lon="6.775845">
        <time>1970-01-01T00:00:00+00:00</time>
        <ele>1690.0</ele>
      </trkpt>
      <trkpt lat="46.12143694202202" lon="6.776006214504639">
        <time>1970-01-01T00:00:00+00:00</time>
        <ele>1695.0</ele>
      </trkpt>
      <trkpt lat="46.121442" lon="6.776012">
        <time>1970-01-01T00:00:00+00:00</time>
        <ele>1695.0</ele>
      </trkpt>
      <trkpt lat="46.121442" lon="6.776012">
        <time>1970-01-01T00:00:00+00:00</time>
        <ele>1695.0</ele>
      </trkpt>
      <trkpt lat="46.121431" lon="6.776227">
        <time>1970-01-01T00:00:00+00:00</time>
        <ele>1700.0</ele>
      </trkpt>
      <trkpt lat="46.121431" lon="6.776227">
        <time>1970-01-01T00:00:00+00:00</time>
        <ele>1700.0</ele>
      </trkpt>
      <trkpt lat="46.12136" lon="6.776312">
        <time>1970-01-01T00:00:00+00:00</time>
        <ele>1703.0</ele>
      </trkpt>
      <trkpt lat="46.12136" lon="6.776312">
        <time>1970-01-01T00:00:00+00:00</time>
        <ele>1703.0</ele>
      </trkpt>
      <trkpt lat="46.121341" lon="6.77644">
        <time>1970-01-01T00:00:00+00:00</time>
        <ele>1708.0</ele>
      </trkpt>
      <trkpt lat="46.121341" lon="6.77644">
        <time>1970-01-01T00:00:00+00:00</time>
        <ele>1708.0</ele>
      </trkpt>
      <trkpt lat="46.121402" lon="6.776578">
        <time>1970-01-01T00:00:00+00:00</time>
        <ele>1713.0</ele>
      </trkpt>
      <trkpt lat="46.121402" lon="6.776578">
        <time>1970-01-01T00:00:00+00:00</time>
        <ele>1713.0</ele>
      </trkpt>
      <trkpt lat="46.121480922373784" lon="6.776811179740722">
        <time>1970-01-01T00:00:00+00:00</time>
        <ele>1719.0</ele>
      </trkpt>
      <trkpt lat="46.12149" lon="6.776838">
        <time>1970-01-01T00:00:00+00:00</time>
        <ele>1719.0</ele>
      </trkpt>
      <trkpt lat="46.12149" lon="6.776838">
        <time>1970-01-01T00:00:00+00:00</time>
        <ele>1719.0</ele>
      </trkpt>
      <trkpt lat="46.121559" lon="6.776927">
        <time>1970-01-01T00:00:00+00:00</time>
        <ele>1720.0</ele>
      </trkpt>
      <trkpt lat="46.121559" lon="6.776927">
        <time>1970-01-01T00:00:00+00:00</time>
        <ele>1720.0</ele>
      </trkpt>
      <trkpt lat="46.12166202257444" lon="6.777139711315465">
        <time>1970-01-01T00:00:00+00:00</time>
        <ele>1723.0</ele>
      </trkpt>
      <trkpt lat="46.121729" lon="6.777278">
        <time>1970-01-01T00:00:00+00:00</time>
        <ele>1726.0</ele>
      </trkpt>
      <trkpt lat="46.121729" lon="6.777278">
        <time>1970-01-01T00:00:00+00:00</time>
        <ele>1726.0</ele>
      </trkpt>
      <trkpt lat="46.12183761473238" lon="6.777484840229484">
        <time>1970-01-01T00:00:00+00:00</time>
        <ele>1728.0</ele>
      </trkpt>
      <trkpt lat="46.121844" lon="6.777497">
        <time>1970-01-01T00:00:00+00:00</time>
        <ele>1729.0</ele>
      </trkpt>
      <trkpt lat="46.121844" lon="6.777497">
        <time>1970-01-01T00:00:00+00:00</time>
        <ele>1729.0</ele>
      </trkpt>
      <trkpt lat="46.121896554237196" lon="6.777745172786754">
        <time>1970-01-01T00:00:00+00:00</time>
        <ele>1734.0</ele>
      </trkpt>
      <trkpt lat="46.121898" lon="6.777752">
        <time>1970-01-01T00:00:00+00:00</time>
        <ele>1735.0</ele>
      </trkpt>
      <trkpt lat="46.121898" lon="6.777752">
        <time>1970-01-01T00:00:00+00:00</time>
        <ele>1735.0</ele>
      </trkpt>
      <trkpt lat="46.12188" lon="6.777889">
        <time>1970-01-01T00:00:00+00:00</time>
        <ele>1739.0</ele>
      </trkpt>
      <trkpt lat="46.12188" lon="6.777889">
        <time>1970-01-01T00:00:00+00:00</time>
        <ele>1739.0</ele>
      </trkpt>
      <trkpt lat="46.121923" lon="6.778011">
        <time>1970-01-01T00:00:00+00:00</time>
        <ele>1743.0</ele>
      </trkpt>
      <trkpt lat="46.121923" lon="6.778011">
        <time>1970-01-01T00:00:00+00:00</time>
        <ele>1743.0</ele>
      </trkpt>
      <trkpt lat="46.121988" lon="6.778108">
        <time>1970-01-01T00:00:00+00:00</time>
        <ele>1745.0</ele>
      </trkpt>
      <trkpt lat="46.121988" lon="6.778108">
        <time>1970-01-01T00:00:00+00:00</time>
        <ele>1745.0</ele>
      </trkpt>
      <trkpt lat="46.122073" lon="6.778175">
        <time>1970-01-01T00:00:00+00:00</time>
        <ele>1744.0</ele>
      </trkpt>
      <trkpt lat="46.122073" lon="6.778175">
        <time>1970-01-01T00:00:00+00:00</time>
        <ele>1744.0</ele>
      </trkpt>
      <trkpt lat="46.122123" lon="6.778291">
        <time>1970-01-01T00:00:00+00:00</time>
        <ele>1746.0</ele>
      </trkpt>
      <trkpt lat="46.122123" lon="6.778291">
        <time>1970-01-01T00:00:00+00:00</time>
        <ele>1746.0</ele>
      </trkpt>
      <trkpt lat="46.122148" lon="6.778418">
        <time>1970-01-01T00:00:00+00:00</time>
        <ele>1749.0</ele>
      </trkpt>
      <trkpt lat="46.122148" lon="6.778418">
        <time>1970-01-01T00:00:00+00:00</time>
        <ele>1749.0</ele>
      </trkpt>
      <trkpt lat="46.122217" lon="6.778506">
        <time>1970-01-01T00:00:00+00:00</time>
        <ele>1749.0</ele>
      </trkpt>
      <trkpt lat="46.122217" lon="6.778506">
        <time>1970-01-01T00:00:00+00:00</time>
        <ele>1749.0</ele>
      </trkpt>
      <trkpt lat="46.122166" lon="6.778614">
        <time>1970-01-01T00:00:00+00:00</time>
        <ele>1752.0</ele>
      </trkpt>
      <trkpt lat="46.122166" lon="6.778614">
        <time>1970-01-01T00:00:00+00:00</time>
        <ele>1752.0</ele>
      </trkpt>
      <trkpt lat="46.12214839191629" lon="6.778872251894514">
        <time>1970-01-01T00:00:00+00:00</time>
        <ele>1759.0</ele>
      </trkpt>
      <trkpt lat="46.122148" lon="6.778878">
        <time>1970-01-01T00:00:00+00:00</time>
        <ele>1759.0</ele>
      </trkpt>
      <trkpt lat="46.122148" lon="6.778878">
        <time>1970-01-01T00:00:00+00:00</time>
        <ele>1759.0</ele>
      </trkpt>
      <trkpt lat="46.12221" lon="6.778988">
        <time>1970-01-01T00:00:00+00:00</time>
        <ele>1759.0</ele>
      </trkpt>
      <trkpt lat="46.12221" lon="6.778988">
        <time>1970-01-01T00:00:00+00:00</time>
        <ele>1759.0</ele>
      </trkpt>
      <trkpt lat="46.122312" lon="6.779035">
        <time>1970-01-01T00:00:00+00:00</time>
        <ele>1756.0</ele>
      </trkpt>
      <trkpt lat="46.122312" lon="6.779035">
        <time>1970-01-01T00:00:00+00:00</time>
        <ele>1756.0</ele>
      </trkpt>
      <trkpt lat="46.122337" lon="6.779168">
        <time>1970-01-01T00:00:00+00:00</time>
        <ele>1758.0</ele>
      </trkpt>
      <trkpt lat="46.122337" lon="6.779168">
        <time>1970-01-01T00:00:00+00:00</time>
        <ele>1758.0</ele>
      </trkpt>
      <trkpt lat="46.122325" lon="6.779303">
        <time>1970-01-01T00:00:00+00:00</time>
        <ele>1763.0</ele>
      </trkpt>
      <trkpt lat="46.122325" lon="6.779303">
        <time>1970-01-01T00:00:00+00:00</time>
        <ele>1763.0</ele>
      </trkpt>
      <trkpt lat="46.122333" lon="6.779433">
        <time>1970-01-01T00:00:00+00:00</time>
        <ele>1766.0</ele>
      </trkpt>
      <trkpt lat="46.122333" lon="6.779433">
        <time>1970-01-01T00:00:00+00:00</time>
        <ele>1766.0</ele>
      </trkpt>
      <trkpt lat="46.12240177014965" lon="6.779672782645697">
        <time>1970-01-01T00:00:00+00:00</time>
        <ele>1771.0</ele>
      </trkpt>
      <trkpt lat="46.122446" lon="6.779827">
        <time>1970-01-01T00:00:00+00:00</time>
        <ele>1772.0</ele>
      </trkpt>
      <trkpt lat="46.122446" lon="6.779827">
        <time>1970-01-01T00:00:00+00:00</time>
        <ele>1772.0</ele>
      </trkpt>
      <trkpt lat="46.12245" lon="6.77997">
        <time>1970-01-01T00:00:00+00:00</time>
        <ele>1777.0</ele>
      </trkpt>
      <trkpt lat="46.12245" lon="6.77997">
        <time>1970-01-01T00:00:00+00:00</time>
        <ele>1777.0</ele>
      </trkpt>
      <trkpt lat="46.122549003670336" lon="6.78018665088898">
        <time>1970-01-01T00:00:00+00:00</time>
        <ele>1781.0</ele>
      </trkpt>
      <trkpt lat="46.122604" lon="6.780307">
        <time>1970-01-01T00:00:00+00:00</time>
        <ele>1782.0</ele>
      </trkpt>
      <trkpt lat="46.122604" lon="6.780307">
        <time>1970-01-01T00:00:00+00:00</time>
        <ele>1782.0</ele>
      </trkpt>
      <trkpt lat="46.122628" lon="6.780433">
        <time>1970-01-01T00:00:00+00:00</time>
        <ele>1786.0</ele>
      </trkpt>
      <trkpt lat="46.122628" lon="6.780433">
        <time>1970-01-01T00:00:00+00:00</time>
        <ele>1786.0</ele>
      </trkpt>
      <trkpt lat="46.12268" lon="6.780541">
        <time>1970-01-01T00:00:00+00:00</time>
        <ele>1787.0</ele>
      </trkpt>
      <trkpt lat="46.12268" lon="6.780541">
        <time>1970-01-01T00:00:00+00:00</time>
        <ele>1787.0</ele>
      </trkpt>
      <trkpt lat="46.12272335847742" lon="6.780792848177391">
        <time>1970-01-01T00:00:00+00:00</time>
        <ele>1797.0</ele>
      </trkpt>
      <trkpt lat="46.122727" lon="6.780814">
        <time>1970-01-01T00:00:00+00:00</time>
        <ele>1798.0</ele>
      </trkpt>
      <trkpt lat="46.122727" lon="6.780814">
        <time>1970-01-01T00:00:00+00:00</time>
        <ele>1798.0</ele>
      </trkpt>
      <trkpt lat="46.12278" lon="6.780929">
        <time>1970-01-01T00:00:00+00:00</time>
        <ele>1796.0</ele>
      </trkpt>
      <trkpt lat="46.12278" lon="6.780929">
        <time>1970-01-01T00:00:00+00:00</time>
        <ele>1796.0</ele>
      </trkpt>
      <trkpt lat="46.122857" lon="6.781001">
        <time>1970-01-01T00:00:00+00:00</time>
        <ele>1791.0</ele>
      </trkpt>
      <trkpt lat="46.122857" lon="6.781001">
        <time>1970-01-01T00:00:00+00:00</time>
        <ele>1791.0</ele>
      </trkpt>
      <trkpt lat="46.122959" lon="6.781079">
        <time>1970-01-01T00:00:00+00:00</time>
        <ele>1784.0</ele>
      </trkpt>
      <trkpt lat="46.122959" lon="6.781079">
        <time>1970-01-01T00:00:00+00:00</time>
        <ele>1784.0</ele>
      </trkpt>
      <trkpt lat="46.122924" lon="6.781309">
        <time>1970-01-01T00:00:00+00:00</time>
        <ele>1800.0</ele>
      </trkpt>
      <trkpt lat="46.122924" lon="6.781309">
        <time>1970-01-01T00:00:00+00:00</time>
        <ele>1800.0</ele>
      </trkpt>
      <trkpt lat="46.122986" lon="6.781268">
        <time>1970-01-01T00:00:00+00:00</time>
        <ele>1790.0</ele>
      </trkpt>
      <trkpt lat="46.122986" lon="6.781268">
        <time>1970-01-01T00:00:00+00:00</time>
        <ele>1790.0</ele>
      </trkpt>
      <trkpt lat="46.122927" lon="6.781221">
        <time>1970-01-01T00:00:00+00:00</time>
        <ele>1795.0</ele>
      </trkpt>
      <trkpt lat="46.122927" lon="6.781221">
        <time>1970-01-01T00:00:00+00:00</time>
        <ele>1795.0</ele>
      </trkpt>
      <trkpt lat="46.122841" lon="6.781298">
        <time>1970-01-01T00:00:00+00:00</time>
        <ele>1811.0</ele>
      </trkpt>
      <trkpt lat="46.122841" lon="6.781298">
        <time>1970-01-01T00:00:00+00:00</time>
        <ele>1811.0</ele>
      </trkpt>
      <trkpt lat="46.12302006471774" lon="6.781273557931703">
        <time>1970-01-01T00:00:00+00:00</time>
        <ele>1787.0</ele>
      </trkpt>
      <trkpt lat="46.123178" lon="6.781252">
        <time>1970-01-01T00:00:00+00:00</time>
        <ele>1781.0</ele>
      </trkpt>
      <trkpt lat="46.123178" lon="6.781252">
        <time>1970-01-01T00:00:00+00:00</time>
        <ele>1781.0</ele>
      </trkpt>
      <trkpt lat="46.123108" lon="6.781146">
        <time>1970-01-01T00:00:00+00:00</time>
        <ele>1780.0</ele>
      </trkpt>
      <trkpt lat="46.123108" lon="6.781146">
        <time>1970-01-01T00:00:00+00:00</time>
        <ele>1780.0</ele>
      </trkpt>
      <trkpt lat="46.122997" lon="6.781192">
        <time>1970-01-01T00:00:00+00:00</time>
        <ele>1785.0</ele>
      </trkpt>
      <trkpt lat="46.122997" lon="6.781192">
        <time>1970-01-01T00:00:00+00:00</time>
        <ele>1785.0</ele>
      </trkpt>
      <trkpt lat="46.123084" lon="6.781299">
        <time>1970-01-01T00:00:00+00:00</time>
        <ele>1786.0</ele>
      </trkpt>
      <trkpt lat="46.123084" lon="6.781299">
        <time>1970-01-01T00:00:00+00:00</time>
        <ele>1786.0</ele>
      </trkpt>
      <trkpt lat="46.123201" lon="6.781271">
        <time>1970-01-01T00:00:00+00:00</time>
        <ele>1781.0</ele>
      </trkpt>
      <trkpt lat="46.123201" lon="6.781271">
        <time>1970-01-01T00:00:00+00:00</time>
        <ele>1781.0</ele>
      </trkpt>
      <trkpt lat="46.12334505438356" lon="6.781115611388291">
        <time>1970-01-01T00:00:00+00:00</time>
        <ele>1781.0</ele>
      </trkpt>
      <trkpt lat="46.123489108767124" lon="6.78096022277658">
        <time>1970-01-01T00:00:00+00:00</time>
        <ele>1778.0</ele>
      </trkpt>
      <trkpt lat="46.123595" lon="6.780846">
        <time>1970-01-01T00:00:00+00:00</time>
        <ele>1774.0</ele>
      </trkpt>
      <trkpt lat="46.123595" lon="6.780846">
        <time>1970-01-01T00:00:00+00:00</time>
        <ele>1774.0</ele>
      </trkpt>
      <trkpt lat="46.12343362906077" lon="6.780960613281923">
        <time>1970-01-01T00:00:00+00:00</time>
        <ele>1778.0</ele>
      </trkpt>
      <trkpt lat="46.123312" lon="6.781047">
        <time>1970-01-01T00:00:00+00:00</time>
        <ele>1779.0</ele>
      </trkpt>
      <trkpt lat="46.123312" lon="6.781047">
        <time>1970-01-01T00:00:00+00:00</time>
        <ele>1779.0</ele>
      </trkpt>
      <trkpt lat="46.123223" lon="6.781091">
        <time>1970-01-01T00:00:00+00:00</time>
        <ele>1778.0</ele>
      </trkpt>
      <trkpt lat="46.123223" lon="6.781091">
        <time>1970-01-01T00:00:00+00:00</time>
        <ele>1778.0</ele>
      </trkpt>
      <trkpt lat="46.123123" lon="6.781148">
        <time>1970-01-01T00:00:00+00:00</time>
        <ele>1780.0</ele>
      </trkpt>
      <trkpt lat="46.123123" lon="6.781148">
        <time>1970-01-01T00:00:00+00:00</time>
        <ele>1780.0</ele>
      </trkpt>
      <trkpt lat="46.123082" lon="6.781297">
        <time>1970-01-01T00:00:00+00:00</time>
        <ele>1786.0</ele>
      </trkpt>
      <trkpt lat="46.123082" lon="6.781297">
        <time>1970-01-01T00:00:00+00:00</time>
        <ele>1786.0</ele>
      </trkpt>
      <trkpt lat="46.123066" lon="6.781425">
        <time>1970-01-01T00:00:00+00:00</time>
        <ele>1792.0</ele>
      </trkpt>
      <trkpt lat="46.123066" lon="6.781425">
        <time>1970-01-01T00:00:00+00:00</time>
        <ele>1792.0</ele>
      </trkpt>
      <trkpt lat="46.123121" lon="6.781538">
        <time>1970-01-01T00:00:00+00:00</time>
        <ele>1793.0</ele>
      </trkpt>
      <trkpt lat="46.123121" lon="6.781538">
        <time>1970-01-01T00:00:00+00:00</time>
        <ele>1793.0</ele>
      </trkpt>
      <trkpt lat="46.123169" lon="6.781651">
        <time>1970-01-01T00:00:00+00:00</time>
        <ele>1792.0</ele>
      </trkpt>
      <trkpt lat="46.123169" lon="6.781651">
        <time>1970-01-01T00:00:00+00:00</time>
        <ele>1792.0</ele>
      </trkpt>
      <trkpt lat="46.123206" lon="6.78177">
        <time>1970-01-01T00:00:00+00:00</time>
        <ele>1792.0</ele>
      </trkpt>
      <trkpt lat="46.123206" lon="6.78177">
        <time>1970-01-01T00:00:00+00:00</time>
        <ele>1792.0</ele>
      </trkpt>
      <trkpt lat="46.123285" lon="6.781854">
        <time>1970-01-01T00:00:00+00:00</time>
        <ele>1791.0</ele>
      </trkpt>
      <trkpt lat="46.123285" lon="6.781854">
        <time>1970-01-01T00:00:00+00:00</time>
        <ele>1791.0</ele>
      </trkpt>
      <trkpt lat="46.12330109474626" lon="6.782112462689914">
        <time>1970-01-01T00:00:00+00:00</time>
        <ele>1794.0</ele>
      </trkpt>
      <trkpt lat="46.123302" lon="6.782127">
        <time>1970-01-01T00:00:00+00:00</time>
        <ele>1794.0</ele>
      </trkpt>
      <trkpt lat="46.123302" lon="6.782127">
        <time>1970-01-01T00:00:00+00:00</time>
        <ele>1794.0</ele>
      </trkpt>
      <trkpt lat="46.123368" lon="6.782229">
        <time>1970-01-01T00:00:00+00:00</time>
        <ele>1792.0</ele>
      </trkpt>
      <trkpt lat="46.123368" lon="6.782229">
        <time>1970-01-01T00:00:00+00:00</time>
        <ele>1792.0</ele>
      </trkpt>
      <trkpt lat="46.123438" lon="6.78232">
        <time>1970-01-01T00:00:00+00:00</time>
        <ele>1794.0</ele>
      </trkpt>
      <trkpt lat="46.123438" lon="6.78232">
        <time>1970-01-01T00:00:00+00:00</time>
        <ele>1794.0</ele>
      </trkpt>
      <trkpt lat="46.123518" lon="6.782401">
        <time>1970-01-01T00:00:00+00:00</time>
        <ele>1794.0</ele>
      </trkpt>
      <trkpt lat="46.123518" lon="6.782401">
        <time>1970-01-01T00:00:00+00:00</time>
        <ele>1794.0</ele>
      </trkpt>
      <trkpt lat="46.123525" lon="6.782537">
        <time>1970-01-01T00:00:00+00:00</time>
        <ele>1798.0</ele>
      </trkpt>
      <trkpt lat="46.123525" lon="6.782537">
        <time>1970-01-01T00:00:00+00:00</time>
        <ele>1798.0</ele>
      </trkpt>
      <trkpt lat="46.123593" lon="6.782647">
        <time>1970-01-01T00:00:00+00:00</time>
        <ele>1799.0</ele>
      </trkpt>
      <trkpt lat="46.123593" lon="6.782647">
        <time>1970-01-01T00:00:00+00:00</time>
        <ele>1799.0</ele>
      </trkpt>
      <trkpt lat="46.123678" lon="6.782716">
        <time>1970-01-01T00:00:00+00:00</time>
        <ele>1800.0</ele>
      </trkpt>
      <trkpt lat="46.123678" lon="6.782716">
        <time>1970-01-01T00:00:00+00:00</time>
        <ele>1800.0</ele>
      </trkpt>
      <trkpt lat="46.123731" lon="6.782826">
        <time>1970-01-01T00:00:00+00:00</time>
        <ele>1801.0</ele>
      </trkpt>
      <trkpt lat="46.123731" lon="6.782826">
        <time>1970-01-01T00:00:00+00:00</time>
        <ele>1801.0</ele>
      </trkpt>
      <trkpt lat="46.123756" lon="6.78296">
        <time>1970-01-01T00:00:00+00:00</time>
        <ele>1802.0</ele>
      </trkpt>
      <trkpt lat="46.123756" lon="6.78296">
        <time>1970-01-01T00:00:00+00:00</time>
        <ele>1802.0</ele>
      </trkpt>
      <trkpt lat="46.12371" lon="6.783075">
        <time>1970-01-01T00:00:00+00:00</time>
        <ele>1809.0</ele>
      </trkpt>
      <trkpt lat="46.12371" lon="6.783075">
        <time>1970-01-01T00:00:00+00:00</time>
        <ele>1809.0</ele>
      </trkpt>
      <trkpt lat="46.123757" lon="6.783204">
        <time>1970-01-01T00:00:00+00:00</time>
        <ele>1811.0</ele>
      </trkpt>
      <trkpt lat="46.123757" lon="6.783204">
        <time>1970-01-01T00:00:00+00:00</time>
        <ele>1811.0</ele>
      </trkpt>
      <trkpt lat="46.123828" lon="6.783285">
        <time>1970-01-01T00:00:00+00:00</time>
        <ele>1815.0</ele>
      </trkpt>
      <trkpt lat="46.123828" lon="6.783285">
        <time>1970-01-01T00:00:00+00:00</time>
        <ele>1815.0</ele>
      </trkpt>
      <trkpt lat="46.123906821696806" lon="6.783518260956411">
        <time>1970-01-01T00:00:00+00:00</time>
        <ele>1825.0</ele>
      </trkpt>
      <trkpt lat="46.123951" lon="6.783649">
        <time>1970-01-01T00:00:00+00:00</time>
        <ele>1827.0</ele>
      </trkpt>
      <trkpt lat="46.123951" lon="6.783649">
        <time>1970-01-01T00:00:00+00:00</time>
        <ele>1827.0</ele>
      </trkpt>
      <trkpt lat="46.12399222528654" lon="6.783901598573908">
        <time>1970-01-01T00:00:00+00:00</time>
        <ele>1832.0</ele>
      </trkpt>
      <trkpt lat="46.124006" lon="6.783986">
        <time>1970-01-01T00:00:00+00:00</time>
        <ele>1833.0</ele>
      </trkpt>
      <trkpt lat="46.124006" lon="6.783986">
        <time>1970-01-01T00:00:00+00:00</time>
        <ele>1833.0</ele>
      </trkpt>
      <trkpt lat="46.124059" lon="6.784096">
        <time>1970-01-01T00:00:00+00:00</time>
        <ele>1832.0</ele>
      </trkpt>
      <trkpt lat="46.124059" lon="6.784096">
        <time>1970-01-01T00:00:00+00:00</time>
        <ele>1832.0</ele>
      </trkpt>
      <trkpt lat="46.12411" lon="6.784203">
        <time>1970-01-01T00:00:00+00:00</time>
        <ele>1831.0</ele>
      </trkpt>
      <trkpt lat="46.12411" lon="6.784203">
        <time>1970-01-01T00:00:00+00:00</time>
        <ele>1831.0</ele>
      </trkpt>
      <trkpt lat="46.124220484613176" lon="6.784407777515787">
        <time>1970-01-01T00:00:00+00:00</time>
        <ele>1832.0</ele>
      </trkpt>
      <trkpt lat="46.124330969226335" lon="6.784612555031574">
        <time>1970-01-01T00:00:00+00:00</time>
        <ele>1833.0</ele>
      </trkpt>
      <trkpt lat="46.124342" lon="6.784633">
        <time>1970-01-01T00:00:00+00:00</time>
        <ele>1833.0</ele>
      </trkpt>
      <trkpt lat="46.124342" lon="6.784633">
        <time>1970-01-01T00:00:00+00:00</time>
        <ele>1833.0</ele>
      </trkpt>
      <trkpt lat="46.124327" lon="6.784772">
        <time>1970-01-01T00:00:00+00:00</time>
        <ele>1837.0</ele>
      </trkpt>
      <trkpt lat="46.124327" lon="6.784772">
        <time>1970-01-01T00:00:00+00:00</time>
        <ele>1837.0</ele>
      </trkpt>
      <trkpt lat="46.124377" lon="6.784885">
        <time>1970-01-01T00:00:00+00:00</time>
        <ele>1838.0</ele>
      </trkpt>
      <trkpt lat="46.124377" lon="6.784885">
        <time>1970-01-01T00:00:00+00:00</time>
        <ele>1838.0</ele>
      </trkpt>
      <trkpt lat="46.124385" lon="6.785014">
        <time>1970-01-01T00:00:00+00:00</time>
        <ele>1842.0</ele>
      </trkpt>
      <trkpt lat="46.124385" lon="6.785014">
        <time>1970-01-01T00:00:00+00:00</time>
        <ele>1842.0</ele>
      </trkpt>
      <trkpt lat="46.12449326514698" lon="6.7852212314469895">
        <time>1970-01-01T00:00:00+00:00</time>
        <ele>1841.0</ele>
      </trkpt>
      <trkpt lat="46.124548" lon="6.785326">
        <time>1970-01-01T00:00:00+00:00</time>
        <ele>1841.0</ele>
      </trkpt>
      <trkpt lat="46.124548" lon="6.785326">
        <time>1970-01-01T00:00:00+00:00</time>
        <ele>1841.0</ele>
      </trkpt>
      <trkpt lat="46.12462" lon="6.785428">
        <time>1970-01-01T00:00:00+00:00</time>
        <ele>1841.0</ele>
      </trkpt>
      <trkpt lat="46.12462" lon="6.785428">
        <time>1970-01-01T00:00:00+00:00</time>
        <ele>1841.0</ele>
      </trkpt>
      <trkpt lat="46.124677" lon="6.785539">
        <time>1970-01-01T00:00:00+00:00</time>
        <ele>1840.0</ele>
      </trkpt>
      <trkpt lat="46.124677" lon="6.785539">
        <time>1970-01-01T00:00:00+00:00</time>
        <ele>1840.0</ele>
      </trkpt>
      <trkpt lat="46.124758" lon="6.785609">
        <time>1970-01-01T00:00:00+00:00</time>
        <ele>1840.0</ele>
      </trkpt>
      <trkpt lat="46.124758" lon="6.785609">
        <time>1970-01-01T00:00:00+00:00</time>
        <ele>1840.0</ele>
      </trkpt>
      <trkpt lat="46.1247091358215" lon="6.785858750245694">
        <time>1970-01-01T00:00:00+00:00</time>
        <ele>1845.0</ele>
      </trkpt>
      <trkpt lat="46.124704" lon="6.785885">
        <time>1970-01-01T00:00:00+00:00</time>
        <ele>1845.0</ele>
      </trkpt>
      <trkpt lat="46.124704" lon="6.785885">
        <time>1970-01-01T00:00:00+00:00</time>
        <ele>1845.0</ele>
      </trkpt>
      <trkpt lat="46.12471495888765" lon="6.786144028253467">
        <time>1970-01-01T00:00:00+00:00</time>
        <ele>1855.0</ele>
      </trkpt>
      <trkpt lat="46.124715" lon="6.786145">
        <time>1970-01-01T00:00:00+00:00</time>
        <ele>1855.0</ele>
      </trkpt>
      <trkpt lat="46.124715" lon="6.786145">
        <time>1970-01-01T00:00:00+00:00</time>
        <ele>1855.0</ele>
      </trkpt>
      <trkpt lat="46.12483641527856" lon="6.786336462554639">
        <time>1970-01-01T00:00:00+00:00</time>
        <ele>1856.0</ele>
      </trkpt>
      <trkpt lat="46.124845" lon="6.78635">
        <time>1970-01-01T00:00:00+00:00</time>
        <ele>1855.0</ele>
      </trkpt>
      <trkpt lat="46.124845" lon="6.78635">
        <time>1970-01-01T00:00:00+00:00</time>
        <ele>1855.0</ele>
      </trkpt>
      <trkpt lat="46.12498644532719" lon="6.786510304704143">
        <time>1970-01-01T00:00:00+00:00</time>
        <ele>1853.0</ele>
      </trkpt>
      <trkpt lat="46.124995" lon="6.78652">
        <time>1970-01-01T00:00:00+00:00</time>
        <ele>1853.0</ele>
      </trkpt>
      <trkpt lat="46.124995" lon="6.78652">
        <time>1970-01-01T00:00:00+00:00</time>
        <ele>1853.0</ele>
      </trkpt>
      <trkpt lat="46.125024" lon="6.786647">
        <time>1970-01-01T00:00:00+00:00</time>
        <ele>1854.0</ele>
      </trkpt>
      <trkpt lat="46.125024" lon="6.786647">
        <time>1970-01-01T00:00:00+00:00</time>
        <ele>1854.0</ele>
      </trkpt>
      <trkpt lat="46.125114" lon="6.786705">
        <time>1970-01-01T00:00:00+00:00</time>
        <ele>1852.0</ele>
      </trkpt>
      <trkpt lat="46.125114" lon="6.786705">
        <time>1970-01-01T00:00:00+00:00</time>
        <ele>1852.0</ele>
      </trkpt>
      <trkpt lat="46.12519517996494" lon="6.786936576531567">
        <time>1970-01-01T00:00:00+00:00</time>
        <ele>1858.0</ele>
      </trkpt>
      <trkpt lat="46.125209" lon="6.786976">
        <time>1970-01-01T00:00:00+00:00</time>
        <ele>1858.0</ele>
      </trkpt>
      <trkpt lat="46.125209" lon="6.786976">
        <time>1970-01-01T00:00:00+00:00</time>
        <ele>1858.0</ele>
      </trkpt>
      <trkpt lat="46.125204" lon="6.787109">
        <time>1970-01-01T00:00:00+00:00</time>
        <ele>1865.0</ele>
      </trkpt>
      <trkpt lat="46.125204" lon="6.787109">
        <time>1970-01-01T00:00:00+00:00</time>
        <ele>1865.0</ele>
      </trkpt>
      <trkpt lat="46.12535847892959" lon="6.787241923730113">
        <time>1970-01-01T00:00:00+00:00</time>
        <ele>1862.0</ele>
      </trkpt>
      <trkpt lat="46.125376" lon="6.787257">
        <time>1970-01-01T00:00:00+00:00</time>
        <ele>1861.0</ele>
      </trkpt>
      <trkpt lat="46.125376" lon="6.787257">
        <time>1970-01-01T00:00:00+00:00</time>
        <ele>1861.0</ele>
      </trkpt>
      <trkpt lat="46.12547" lon="6.787256">
        <time>1970-01-01T00:00:00+00:00</time>
        <ele>1859.0</ele>
      </trkpt>
      <trkpt lat="46.12547" lon="6.787256">
        <time>1970-01-01T00:00:00+00:00</time>
        <ele>1859.0</ele>
      </trkpt>
      <trkpt lat="46.125495" lon="6.787391">
        <time>1970-01-01T00:00:00+00:00</time>
        <ele>1862.0</ele>
      </trkpt>
      <trkpt lat="46.125495" lon="6.787391">
        <time>1970-01-01T00:00:00+00:00</time>
        <ele>1862.0</ele>
      </trkpt>
      <trkpt lat="46.125539" lon="6.787505">
        <time>1970-01-01T00:00:00+00:00</time>
        <ele>1863.0</ele>
      </trkpt>
      <trkpt lat="46.125539" lon="6.787505">
        <time>1970-01-01T00:00:00+00:00</time>
        <ele>1863.0</ele>
      </trkpt>
      <trkpt lat="46.125609" lon="6.787588">
        <time>1970-01-01T00:00:00+00:00</time>
        <ele>1861.0</ele>
      </trkpt>
      <trkpt lat="46.125609" lon="6.787588">
        <time>1970-01-01T00:00:00+00:00</time>
        <ele>1861.0</ele>
      </trkpt>
      <trkpt lat="46.12567766557387" lon="6.787827859196395">
        <time>1970-01-01T00:00:00+00:00</time>
        <ele>1863.0</ele>
      </trkpt>
      <trkpt lat="46.125682" lon="6.787843">
        <time>1970-01-01T00:00:00+00:00</time>
        <ele>1863.0</ele>
      </trkpt>
      <trkpt lat="46.125682" lon="6.787843">
        <time>1970-01-01T00:00:00+00:00</time>
        <ele>1863.0</ele>
      </trkpt>
      <trkpt lat="46.125718492105946" lon="6.788097117755939">
        <time>1970-01-01T00:00:00+00:00</time>
        <ele>1865.0</ele>
      </trkpt>
      <trkpt lat="46.125737" lon="6.788226">
        <time>1970-01-01T00:00:00+00:00</time>
        <ele>1866.0</ele>
      </trkpt>
      <trkpt lat="46.125737" lon="6.788226">
        <time>1970-01-01T00:00:00+00:00</time>
        <ele>1866.0</ele>
      </trkpt>
      <trkpt lat="46.12583776543248" lon="6.788440966255951">
        <time>1970-01-01T00:00:00+00:00</time>
        <ele>1867.0</ele>
      </trkpt>
      <trkpt lat="46.125842" lon="6.78845">
        <time>1970-01-01T00:00:00+00:00</time>
        <ele>1867.0</ele>
      </trkpt>
      <trkpt lat="46.125842" lon="6.78845">
        <time>1970-01-01T00:00:00+00:00</time>
        <ele>1867.0</ele>
      </trkpt>
      <trkpt lat="46.125878" lon="6.788581">
        <time>1970-01-01T00:00:00+00:00</time>
        <ele>1868.0</ele>
      </trkpt>
      <trkpt lat="46.125878" lon="6.788581">
        <time>1970-01-01T00:00:00+00:00</time>
        <ele>1868.0</ele>
      </trkpt>
      <trkpt lat="46.125866" lon="6.788711">
        <time>1970-01-01T00:00:00+00:00</time>
        <ele>1873.0</ele>
      </trkpt>
      <trkpt lat="46.125866" lon="6.788711">
        <time>1970-01-01T00:00:00+00:00</time>
        <ele>1873.0</ele>
      </trkpt>
      <trkpt lat="46.125924" lon="6.788812">
        <time>1970-01-01T00:00:00+00:00</time>
        <ele>1873.0</ele>
      </trkpt>
      <trkpt lat="46.125924" lon="6.788812">
        <time>1970-01-01T00:00:00+00:00</time>
        <ele>1873.0</ele>
      </trkpt>
      <trkpt lat="46.12606" lon="6.788958">
        <time>1970-01-01T00:00:00+00:00</time>
        <ele>1870.0</ele>
      </trkpt>
      <trkpt lat="46.12606" lon="6.788958">
        <time>1970-01-01T00:00:00+00:00</time>
        <ele>1870.0</ele>
      </trkpt>
      <trkpt lat="46.126006" lon="6.78907">
        <time>1970-01-01T00:00:00+00:00</time>
        <ele>1878.0</ele>
      </trkpt>
      <trkpt lat="46.126006" lon="6.78907">
        <time>1970-01-01T00:00:00+00:00</time>
        <ele>1878.0</ele>
      </trkpt>
      <trkpt lat="46.126147884611825" lon="6.78922949787398">
        <time>1970-01-01T00:00:00+00:00</time>
        <ele>1873.0</ele>
      </trkpt>
      <trkpt lat="46.126151" lon="6.789233">
        <time>1970-01-01T00:00:00+00:00</time>
        <ele>1872.0</ele>
      </trkpt>
      <trkpt lat="46.126151" lon="6.789233">
        <time>1970-01-01T00:00:00+00:00</time>
        <ele>1872.0</ele>
      </trkpt>
      <trkpt lat="46.126164" lon="6.789368">
        <time>1970-01-01T00:00:00+00:00</time>
        <ele>1877.0</ele>
      </trkpt>
      <trkpt lat="46.126164" lon="6.789368">
        <time>1970-01-01T00:00:00+00:00</time>
        <ele>1877.0</ele>
      </trkpt>
      <trkpt lat="46.126146" lon="6.789502">
        <time>1970-01-01T00:00:00+00:00</time>
        <ele>1885.0</ele>
      </trkpt>
      <trkpt lat="46.126146" lon="6.789502">
        <time>1970-01-01T00:00:00+00:00</time>
        <ele>1885.0</ele>
      </trkpt>
      <trkpt lat="46.126227" lon="6.789586">
        <time>1970-01-01T00:00:00+00:00</time>
        <ele>1882.0</ele>
      </trkpt>
      <trkpt lat="46.126227" lon="6.789586">
        <time>1970-01-01T00:00:00+00:00</time>
        <ele>1882.0</ele>
      </trkpt>
      <trkpt lat="46.126266" lon="6.789706">
        <time>1970-01-01T00:00:00+00:00</time>
        <ele>1885.0</ele>
      </trkpt>
      <trkpt lat="46.126266" lon="6.789706">
        <time>1970-01-01T00:00:00+00:00</time>
        <ele>1885.0</ele>
      </trkpt>
      <trkpt lat="46.12618" lon="6.789876">
        <time>1970-01-01T00:00:00+00:00</time>
        <ele>1899.0</ele>
      </trkpt>
      <trkpt lat="46.12618" lon="6.789876">
        <time>1970-01-01T00:00:00+00:00</time>
        <ele>1899.0</ele>
      </trkpt>
      <trkpt lat="46.126252" lon="6.789966">
        <time>1970-01-01T00:00:00+00:00</time>
        <ele>1898.0</ele>
      </trkpt>
      <trkpt lat="46.126252" lon="6.789966">
        <time>1970-01-01T00:00:00+00:00</time>
        <ele>1898.0</ele>
      </trkpt>
      <trkpt lat="46.126298" lon="6.790099">
        <time>1970-01-01T00:00:00+00:00</time>
        <ele>1901.0</ele>
      </trkpt>
      <trkpt lat="46.126298" lon="6.790099">
        <time>1970-01-01T00:00:00+00:00</time>
        <ele>1901.0</ele>
      </trkpt>
      <trkpt lat="46.12639" lon="6.790155">
        <time>1970-01-01T00:00:00+00:00</time>
        <ele>1897.0</ele>
      </trkpt>
      <trkpt lat="46.12639" lon="6.790155">
        <time>1970-01-01T00:00:00+00:00</time>
        <ele>1897.0</ele>
      </trkpt>
      <trkpt lat="46.126406" lon="6.790328">
        <time>1970-01-01T00:00:00+00:00</time>
        <ele>1906.0</ele>
      </trkpt>
      <trkpt lat="46.126406" lon="6.790328">
        <time>1970-01-01T00:00:00+00:00</time>
        <ele>1906.0</ele>
      </trkpt>
      <trkpt lat="46.12648" lon="6.790408">
        <time>1970-01-01T00:00:00+00:00</time>
        <ele>1907.0</ele>
      </trkpt>
      <trkpt lat="46.12648" lon="6.790408">
        <time>1970-01-01T00:00:00+00:00</time>
        <ele>1907.0</ele>
      </trkpt>
      <trkpt lat="46.12661135065669" lon="6.790585291034146">
        <time>1970-01-01T00:00:00+00:00</time>
        <ele>1907.0</ele>
      </trkpt>
      <trkpt lat="46.126683" lon="6.790682">
        <time>1970-01-01T00:00:00+00:00</time>
        <ele>1904.0</ele>
      </trkpt>
      <trkpt lat="46.126683" lon="6.790682">
        <time>1970-01-01T00:00:00+00:00</time>
        <ele>1904.0</ele>
      </trkpt>
      <trkpt lat="46.126693" lon="6.790815">
        <time>1970-01-01T00:00:00+00:00</time>
        <ele>1908.0</ele>
      </trkpt>
      <trkpt lat="46.126693" lon="6.790815">
        <time>1970-01-01T00:00:00+00:00</time>
        <ele>1908.0</ele>
      </trkpt>
      <trkpt lat="46.126683" lon="6.790947">
        <time>1970-01-01T00:00:00+00:00</time>
        <ele>1914.0</ele>
      </trkpt>
      <trkpt lat="46.126683" lon="6.790947">
        <time>1970-01-01T00:00:00+00:00</time>
        <ele>1914.0</ele>
      </trkpt>
      <trkpt lat="46.12677037565565" lon="6.791173840644487">
        <time>1970-01-01T00:00:00+00:00</time>
        <ele>1916.0</ele>
      </trkpt>
      <trkpt lat="46.126839" lon="6.791352">
        <time>1970-01-01T00:00:00+00:00</time>
        <ele>1917.0</ele>
      </trkpt>
      <trkpt lat="46.126839" lon="6.791352">
        <time>1970-01-01T00:00:00+00:00</time>
        <ele>1917.0</ele>
      </trkpt>
      <trkpt lat="46.126925" lon="6.791393">
        <time>1970-01-01T00:00:00+00:00</time>
        <ele>1911.0</ele>
      </trkpt>
      <trkpt lat="46.126925" lon="6.791393">
        <time>1970-01-01T00:00:00+00:00</time>
        <ele>1911.0</ele>
      </trkpt>
      <trkpt lat="46.12694" lon="6.791541">
        <time>1970-01-01T00:00:00+00:00</time>
        <ele>1917.0</ele>
      </trkpt>
      <trkpt lat="46.12694" lon="6.791541">
        <time>1970-01-01T00:00:00+00:00</time>
        <ele>1917.0</ele>
      </trkpt>
      <trkpt lat="46.127066138944116" lon="6.791726003784708">
        <time>1970-01-01T00:00:00+00:00</time>
        <ele>1913.0</ele>
      </trkpt>
      <trkpt lat="46.127075" lon="6.791739">
        <time>1970-01-01T00:00:00+00:00</time>
        <ele>1913.0</ele>
      </trkpt>
      <trkpt lat="46.127075" lon="6.791739">
        <time>1970-01-01T00:00:00+00:00</time>
        <ele>1913.0</ele>
      </trkpt>
      <trkpt lat="46.127057" lon="6.791867">
        <time>1970-01-01T00:00:00+00:00</time>
        <ele>1919.0</ele>
      </trkpt>
      <trkpt lat="46.127057" lon="6.791867">
        <time>1970-01-01T00:00:00+00:00</time>
        <ele>1919.0</ele>
      </trkpt>
      <trkpt lat="46.127141" lon="6.791942">
        <time>1970-01-01T00:00:00+00:00</time>
        <ele>1916.0</ele>
      </trkpt>
      <trkpt lat="46.127141" lon="6.791942">
        <time>1970-01-01T00:00:00+00:00</time>
        <ele>1916.0</ele>
      </trkpt>
      <trkpt lat="46.127212" lon="6.792026">
        <time>1970-01-01T00:00:00+00:00</time>
        <ele>1913.0</ele>
      </trkpt>
      <trkpt lat="46.127212" lon="6.792026">
        <time>1970-01-01T00:00:00+00:00</time>
        <ele>1913.0</ele>
      </trkpt>
      <trkpt lat="46.127195" lon="6.792159">
        <time>1970-01-01T00:00:00+00:00</time>
        <ele>1919.0</ele>
      </trkpt>
      <trkpt lat="46.127195" lon="6.792159">
        <time>1970-01-01T00:00:00+00:00</time>
        <ele>1919.0</ele>
      </trkpt>
      <trkpt lat="46.127208" lon="6.792298">
        <time>1970-01-01T00:00:00+00:00</time>
        <ele>1921.0</ele>
      </trkpt>
      <trkpt lat="46.127208" lon="6.792298">
        <time>1970-01-01T00:00:00+00:00</time>
        <ele>1921.0</ele>
      </trkpt>
      <trkpt lat="46.127262" lon="6.792403">
        <time>1970-01-01T00:00:00+00:00</time>
        <ele>1921.0</ele>
      </trkpt>
      <trkpt lat="46.127262" lon="6.792403">
        <time>1970-01-01T00:00:00+00:00</time>
        <ele>1921.0</ele>
      </trkpt>
      <trkpt lat="46.127291" lon="6.792533">
        <time>1970-01-01T00:00:00+00:00</time>
        <ele>1923.0</ele>
      </trkpt>
      <trkpt lat="46.127291" lon="6.792533">
        <time>1970-01-01T00:00:00+00:00</time>
        <ele>1923.0</ele>
      </trkpt>
      <trkpt lat="46.127282" lon="6.79269">
        <time>1970-01-01T00:00:00+00:00</time>
        <ele>1927.0</ele>
      </trkpt>
      <trkpt lat="46.127282" lon="6.79269">
        <time>1970-01-01T00:00:00+00:00</time>
        <ele>1927.0</ele>
      </trkpt>
      <trkpt lat="46.127268" lon="6.792826">
        <time>1970-01-01T00:00:00+00:00</time>
        <ele>1931.0</ele>
      </trkpt>
      <trkpt lat="46.127268" lon="6.792826">
        <time>1970-01-01T00:00:00+00:00</time>
        <ele>1931.0</ele>
      </trkpt>
      <trkpt lat="46.12728" lon="6.792971">
        <time>1970-01-01T00:00:00+00:00</time>
        <ele>1934.0</ele>
      </trkpt>
      <trkpt lat="46.12728" lon="6.792971">
        <time>1970-01-01T00:00:00+00:00</time>
        <ele>1934.0</ele>
      </trkpt>
      <trkpt lat="46.127249" lon="6.793096">
        <time>1970-01-01T00:00:00+00:00</time>
        <ele>1938.0</ele>
      </trkpt>
      <trkpt lat="46.127249" lon="6.793096">
        <time>1970-01-01T00:00:00+00:00</time>
        <ele>1938.0</ele>
      </trkpt>
      <trkpt lat="46.127244" lon="6.793228">
        <time>1970-01-01T00:00:00+00:00</time>
        <ele>1941.0</ele>
      </trkpt>
      <trkpt lat="46.127244" lon="6.793228">
        <time>1970-01-01T00:00:00+00:00</time>
        <ele>1941.0</ele>
      </trkpt>
      <trkpt lat="46.127276" lon="6.793364">
        <time>1970-01-01T00:00:00+00:00</time>
        <ele>1944.0</ele>
      </trkpt>
      <trkpt lat="46.127276" lon="6.793364">
        <time>1970-01-01T00:00:00+00:00</time>
        <ele>1944.0</ele>
      </trkpt>
      <trkpt lat="46.127251" lon="6.793498">
        <time>1970-01-01T00:00:00+00:00</time>
        <ele>1948.0</ele>
      </trkpt>
      <trkpt lat="46.127251" lon="6.793498">
        <time>1970-01-01T00:00:00+00:00</time>
        <ele>1948.0</ele>
      </trkpt>
      <trkpt lat="46.12733" lon="6.793603">
        <time>1970-01-01T00:00:00+00:00</time>
        <ele>1948.0</ele>
      </trkpt>
      <trkpt lat="46.12733" lon="6.793603">
        <time>1970-01-01T00:00:00+00:00</time>
        <ele>1948.0</ele>
      </trkpt>
      <trkpt lat="46.127394753360015" lon="6.793845121259187">
        <time>1970-01-01T00:00:00+00:00</time>
        <ele>1952.0</ele>
      </trkpt>
      <trkpt lat="46.127399" lon="6.793861">
        <time>1970-01-01T00:00:00+00:00</time>
        <ele>1952.0</ele>
      </trkpt>
      <trkpt lat="46.127399" lon="6.793861">
        <time>1970-01-01T00:00:00+00:00</time>
        <ele>1952.0</ele>
      </trkpt>
      <trkpt lat="46.127473" lon="6.793955">
        <time>1970-01-01T00:00:00+00:00</time>
        <ele>1952.0</ele>
      </trkpt>
      <trkpt lat="46.127473" lon="6.793955">
        <time>1970-01-01T00:00:00+00:00</time>
        <ele>1952.0</ele>
      </trkpt>
      <trkpt lat="46.12752" lon="6.794069">
        <time>1970-01-01T00:00:00+00:00</time>
        <ele>1954.0</ele>
      </trkpt>
      <trkpt lat="46.12752" lon="6.794069">
        <time>1970-01-01T00:00:00+00:00</time>
        <ele>1954.0</ele>
      </trkpt>
      <trkpt lat="46.127516" lon="6.794215">
        <time>1970-01-01T00:00:00+00:00</time>
        <ele>1958.0</ele>
      </trkpt>
      <trkpt lat="46.127516" lon="6.794215">
        <time>1970-01-01T00:00:00+00:00</time>
        <ele>1958.0</ele>
      </trkpt>
      <trkpt lat="46.127388" lon="6.794265">
        <time>1970-01-01T00:00:00+00:00</time>
        <ele>1963.0</ele>
      </trkpt>
      <trkpt lat="46.127388" lon="6.794265">
        <time>1970-01-01T00:00:00+00:00</time>
        <ele>1963.0</ele>
      </trkpt>
      <trkpt lat="46.127332" lon="6.794387">
        <time>1970-01-01T00:00:00+00:00</time>
        <ele>1968.0</ele>
      </trkpt>
      <trkpt lat="46.127332" lon="6.794387">
        <time>1970-01-01T00:00:00+00:00</time>
        <ele>1968.0</ele>
      </trkpt>
      <trkpt lat="46.127238" lon="6.794417">
        <time>1970-01-01T00:00:00+00:00</time>
        <ele>1972.0</ele>
      </trkpt>
      <trkpt lat="46.127238" lon="6.794417">
        <time>1970-01-01T00:00:00+00:00</time>
        <ele>1972.0</ele>
      </trkpt>
      <trkpt lat="46.127194" lon="6.794538">
        <time>1970-01-01T00:00:00+00:00</time>
        <ele>1979.0</ele>
      </trkpt>
      <trkpt lat="46.127194" lon="6.794538">
        <time>1970-01-01T00:00:00+00:00</time>
        <ele>1979.0</ele>
      </trkpt>
      <trkpt lat="46.127237" lon="6.794656">
        <time>1970-01-01T00:00:00+00:00</time>
        <ele>1980.0</ele>
      </trkpt>
      <trkpt lat="46.127237" lon="6.794656">
        <time>1970-01-01T00:00:00+00:00</time>
        <ele>1980.0</ele>
      </trkpt>
      <trkpt lat="46.12735" lon="6.794697">
        <time>1970-01-01T00:00:00+00:00</time>
        <ele>1977.0</ele>
      </trkpt>
      <trkpt lat="46.12735" lon="6.794697">
        <time>1970-01-01T00:00:00+00:00</time>
        <ele>1977.0</ele>
      </trkpt>
      <trkpt lat="46.127475" lon="6.794817">
        <time>1970-01-01T00:00:00+00:00</time>
        <ele>1976.0</ele>
      </trkpt>
      <trkpt lat="46.127475" lon="6.794817">
        <time>1970-01-01T00:00:00+00:00</time>
        <ele>1976.0</ele>
      </trkpt>
      <trkpt lat="46.127462" lon="6.794955">
        <time>1970-01-01T00:00:00+00:00</time>
        <ele>1980.0</ele>
      </trkpt>
      <trkpt lat="46.127462" lon="6.794955">
        <time>1970-01-01T00:00:00+00:00</time>
        <ele>1980.0</ele>
      </trkpt>
      <trkpt lat="46.12751815199175" lon="6.795201552423533">
        <time>1970-01-01T00:00:00+00:00</time>
        <ele>1983.0</ele>
      </trkpt>
      <trkpt lat="46.127549" lon="6.795337">
        <time>1970-01-01T00:00:00+00:00</time>
        <ele>1985.0</ele>
      </trkpt>
      <trkpt lat="46.127549" lon="6.795337">
        <time>1970-01-01T00:00:00+00:00</time>
        <ele>1985.0</ele>
      </trkpt>
      <trkpt lat="46.12762411632157" lon="6.795572808199359">
        <time>1970-01-01T00:00:00+00:00</time>
        <ele>1986.0</ele>
      </trkpt>
      <trkpt lat="46.127628" lon="6.795585">
        <time>1970-01-01T00:00:00+00:00</time>
        <ele>1986.0</ele>
      </trkpt>
      <trkpt lat="46.127628" lon="6.795585">
        <time>1970-01-01T00:00:00+00:00</time>
        <ele>1986.0</ele>
      </trkpt>
      <trkpt lat="46.1276493200523" lon="6.795842694545189">
        <time>1970-01-01T00:00:00+00:00</time>
        <ele>1988.0</ele>
      </trkpt>
      <trkpt lat="46.127651" lon="6.795863">
        <time>1970-01-01T00:00:00+00:00</time>
        <ele>1988.0</ele>
      </trkpt>
      <trkpt lat="46.127651" lon="6.795863">
        <time>1970-01-01T00:00:00+00:00</time>
        <ele>1988.0</ele>
      </trkpt>
      <trkpt lat="46.127745188568106" lon="6.7960840952703805">
        <time>1970-01-01T00:00:00+00:00</time>
        <ele>1986.0</ele>
      </trkpt>
      <trkpt lat="46.127746" lon="6.796086">
        <time>1970-01-01T00:00:00+00:00</time>
        <ele>1986.0</ele>
      </trkpt>
      <trkpt lat="46.127746" lon="6.796086">
        <time>1970-01-01T00:00:00+00:00</time>
        <ele>1986.0</ele>
      </trkpt>
      <trkpt lat="46.12775" lon="6.796229">
        <time>1970-01-01T00:00:00+00:00</time>
        <ele>1986.0</ele>
      </trkpt>
      <trkpt lat="46.12775" lon="6.796229">
        <time>1970-01-01T00:00:00+00:00</time>
        <ele>1986.0</ele>
      </trkpt>
      <trkpt lat="46.127706" lon="6.796349">
        <time>1970-01-01T00:00:00+00:00</time>
        <ele>1989.0</ele>
      </trkpt>
      <trkpt lat="46.127706" lon="6.796349">
        <time>1970-01-01T00:00:00+00:00</time>
        <ele>1989.0</ele>
      </trkpt>
      <trkpt lat="46.127677" lon="6.796495">
        <time>1970-01-01T00:00:00+00:00</time>
        <ele>1991.0</ele>
      </trkpt>
      <trkpt lat="46.127677" lon="6.796495">
        <time>1970-01-01T00:00:00+00:00</time>
        <ele>1991.0</ele>
      </trkpt>
      <trkpt lat="46.127678" lon="6.796625">
        <time>1970-01-01T00:00:00+00:00</time>
        <ele>1991.0</ele>
      </trkpt>
      <trkpt lat="46.127678" lon="6.796625">
        <time>1970-01-01T00:00:00+00:00</time>
        <ele>1991.0</ele>
      </trkpt>
      <trkpt lat="46.127659" lon="6.796766">
        <time>1970-01-01T00:00:00+00:00</time>
        <ele>1994.0</ele>
      </trkpt>
      <trkpt lat="46.127659" lon="6.796766">
        <time>1970-01-01T00:00:00+00:00</time>
        <ele>1994.0</ele>
      </trkpt>
      <trkpt lat="46.127708184166494" lon="6.797015632845">
        <time>1970-01-01T00:00:00+00:00</time>
        <ele>1995.0</ele>
      </trkpt>
      <trkpt lat="46.127712" lon="6.797035">
        <time>1970-01-01T00:00:00+00:00</time>
        <ele>1995.0</ele>
      </trkpt>
      <trkpt lat="46.127712" lon="6.797035">
        <time>1970-01-01T00:00:00+00:00</time>
        <ele>1995.0</ele>
      </trkpt>
      <trkpt lat="46.127793" lon="6.797108">
        <time>1970-01-01T00:00:00+00:00</time>
        <ele>1991.0</ele>
      </trkpt>
      <trkpt lat="46.127793" lon="6.797108">
        <time>1970-01-01T00:00:00+00:00</time>
        <ele>1991.0</ele>
      </trkpt>
      <trkpt lat="46.127761411990896" lon="6.79736349125007">
        <time>1970-01-01T00:00:00+00:00</time>
        <ele>1998.0</ele>
      </trkpt>
      <trkpt lat="46.127759" lon="6.797383">
        <time>1970-01-01T00:00:00+00:00</time>
        <ele>1999.0</ele>
      </trkpt>
      <trkpt lat="46.127759" lon="6.797383">
        <time>1970-01-01T00:00:00+00:00</time>
        <ele>1999.0</ele>
      </trkpt>
      <trkpt lat="46.127803484720516" lon="6.797634462239557">
        <time>1970-01-01T00:00:00+00:00</time>
        <ele>2002.0</ele>
      </trkpt>
      <trkpt lat="46.127831" lon="6.79779">
        <time>1970-01-01T00:00:00+00:00</time>
        <ele>2004.0</ele>
      </trkpt>
      <trkpt lat="46.127831" lon="6.79779">
        <time>1970-01-01T00:00:00+00:00</time>
        <ele>2004.0</ele>
      </trkpt>
      <trkpt lat="46.127946729403355" lon="6.7979886688090945">
        <time>1970-01-01T00:00:00+00:00</time>
        <ele>2004.0</ele>
      </trkpt>
      <trkpt lat="46.127951" lon="6.797996">
        <time>1970-01-01T00:00:00+00:00</time>
        <ele>2004.0</ele>
      </trkpt>
      <trkpt lat="46.127951" lon="6.797996">
        <time>1970-01-01T00:00:00+00:00</time>
        <ele>2004.0</ele>
      </trkpt>
      <trkpt lat="46.127964" lon="6.798129">
        <time>1970-01-01T00:00:00+00:00</time>
        <ele>2008.0</ele>
      </trkpt>
      <trkpt lat="46.127964" lon="6.798129">
        <time>1970-01-01T00:00:00+00:00</time>
        <ele>2008.0</ele>
      </trkpt>
      <trkpt lat="46.127997" lon="6.798256">
        <time>1970-01-01T00:00:00+00:00</time>
        <ele>2011.0</ele>
      </trkpt>
      <trkpt lat="46.127997" lon="6.798256">
        <time>1970-01-01T00:00:00+00:00</time>
        <ele>2011.0</ele>
      </trkpt>
      <trkpt lat="46.128058" lon="6.798359">
        <time>1970-01-01T00:00:00+00:00</time>
        <ele>2012.0</ele>
      </trkpt>
      <trkpt lat="46.128058" lon="6.798359">
        <time>1970-01-01T00:00:00+00:00</time>
        <ele>2012.0</ele>
      </trkpt>
      <trkpt lat="46.128083" lon="6.798515">
        <time>1970-01-01T00:00:00+00:00</time>
        <ele>2014.0</ele>
      </trkpt>
      <trkpt lat="46.128083" lon="6.798515">
        <time>1970-01-01T00:00:00+00:00</time>
        <ele>2014.0</ele>
      </trkpt>
      <trkpt lat="46.1281124286228" lon="6.798771029018348">
        <time>1970-01-01T00:00:00+00:00</time>
        <ele>2020.0</ele>
      </trkpt>
      <trkpt lat="46.128113" lon="6.798776">
        <time>1970-01-01T00:00:00+00:00</time>
        <ele>2021.0</ele>
      </trkpt>
      <trkpt lat="46.128113" lon="6.798776">
        <time>1970-01-01T00:00:00+00:00</time>
        <ele>2021.0</ele>
      </trkpt>
      <trkpt lat="46.128177" lon="6.798877">
        <time>1970-01-01T00:00:00+00:00</time>
        <ele>2021.0</ele>
      </trkpt>
      <trkpt lat="46.128177" lon="6.798877">
        <time>1970-01-01T00:00:00+00:00</time>
        <ele>2021.0</ele>
      </trkpt>
      <trkpt lat="46.12818" lon="6.799014">
        <time>1970-01-01T00:00:00+00:00</time>
        <ele>2023.0</ele>
      </trkpt>
      <trkpt lat="46.12818" lon="6.799014">
        <time>1970-01-01T00:00:00+00:00</time>
        <ele>2023.0</ele>
      </trkpt>
      <trkpt lat="46.128216" lon="6.79915">
        <time>1970-01-01T00:00:00+00:00</time>
        <ele>2025.0</ele>
      </trkpt>
      <trkpt lat="46.128216" lon="6.79915">
        <time>1970-01-01T00:00:00+00:00</time>
        <ele>2025.0</ele>
      </trkpt>
      <trkpt lat="46.12827" lon="6.799278">
        <time>1970-01-01T00:00:00+00:00</time>
        <ele>2026.0</ele>
      </trkpt>
      <trkpt lat="46.12827" lon="6.799278">
        <time>1970-01-01T00:00:00+00:00</time>
        <ele>2026.0</ele>
      </trkpt>
      <trkpt lat="46.12840062322287" lon="6.799456412206858">
        <time>1970-01-01T00:00:00+00:00</time>
        <ele>2026.0</ele>
      </trkpt>
      <trkpt lat="46.128475" lon="6.799558">
        <time>1970-01-01T00:00:00+00:00</time>
        <ele>2027.0</ele>
      </trkpt>
      <trkpt lat="46.128475" lon="6.799558">
        <time>1970-01-01T00:00:00+00:00</time>
        <ele>2027.0</ele>
      </trkpt>
      <trkpt lat="46.128542" lon="6.799669">
        <time>1970-01-01T00:00:00+00:00</time>
        <ele>2028.0</ele>
      </trkpt>
      <trkpt lat="46.128542" lon="6.799669">
        <time>1970-01-01T00:00:00+00:00</time>
        <ele>2028.0</ele>
      </trkpt>
      <trkpt lat="46.128581" lon="6.7998">
        <time>1970-01-01T00:00:00+00:00</time>
        <ele>2030.0</ele>
      </trkpt>
      <trkpt lat="46.128581" lon="6.7998">
        <time>1970-01-01T00:00:00+00:00</time>
        <ele>2030.0</ele>
      </trkpt>
      <trkpt lat="46.128563" lon="6.799927">
        <time>1970-01-01T00:00:00+00:00</time>
        <ele>2033.0</ele>
      </trkpt>
      <trkpt lat="46.128563" lon="6.799927">
        <time>1970-01-01T00:00:00+00:00</time>
        <ele>2033.0</ele>
      </trkpt>
      <trkpt lat="46.128585" lon="6.80006">
        <time>1970-01-01T00:00:00+00:00</time>
        <ele>2035.0</ele>
      </trkpt>
      <trkpt lat="46.128585" lon="6.80006">
        <time>1970-01-01T00:00:00+00:00</time>
        <ele>2035.0</ele>
      </trkpt>
      <trkpt lat="46.128676" lon="6.800093">
        <time>1970-01-01T00:00:00+00:00</time>
        <ele>2034.0</ele>
      </trkpt>
      <trkpt lat="46.128676" lon="6.800093">
        <time>1970-01-01T00:00:00+00:00</time>
        <ele>2034.0</ele>
      </trkpt>
      <trkpt lat="46.128732" lon="6.800197">
        <time>1970-01-01T00:00:00+00:00</time>
        <ele>2035.0</ele>
      </trkpt>
      <trkpt lat="46.128732" lon="6.800197">
        <time>1970-01-01T00:00:00+00:00</time>
        <ele>2035.0</ele>
      </trkpt>
      <trkpt lat="46.1287" lon="6.800334">
        <time>1970-01-01T00:00:00+00:00</time>
        <ele>2037.0</ele>
      </trkpt>
      <trkpt lat="46.1287" lon="6.800334">
        <time>1970-01-01T00:00:00+00:00</time>
        <ele>2037.0</ele>
      </trkpt>
      <trkpt lat="46.128761" lon="6.800444">
        <time>1970-01-01T00:00:00+00:00</time>
        <ele>2039.0</ele>
      </trkpt>
      <trkpt lat="46.128761" lon="6.800444">
        <time>1970-01-01T00:00:00+00:00</time>
        <ele>2039.0</ele>
      </trkpt>
      <trkpt lat="46.128848" lon="6.800491">
        <time>1970-01-01T00:00:00+00:00</time>
        <ele>2040.0</ele>
      </trkpt>
      <trkpt lat="46.128848" lon="6.800491">
        <time>1970-01-01T00:00:00+00:00</time>
        <ele>2040.0</ele>
      </trkpt>
      <trkpt lat="46.12901227849562" lon="6.800596676225256">
        <time>1970-01-01T00:00:00+00:00</time>
        <ele>2045.0</ele>
      </trkpt>
      <trkpt lat="46.129019" lon="6.800601">
        <time>1970-01-01T00:00:00+00:00</time>
        <ele>2045.0</ele>
      </trkpt>
      <trkpt lat="46.129019" lon="6.800601">
        <time>1970-01-01T00:00:00+00:00</time>
        <ele>2045.0</ele>
      </trkpt>
      <trkpt lat="46.129077" lon="6.800712">
        <time>1970-01-01T00:00:00+00:00</time>
        <ele>2048.0</ele>
      </trkpt>
      <trkpt lat="46.129077" lon="6.800712">
        <time>1970-01-01T00:00:00+00:00</time>
        <ele>2048.0</ele>
      </trkpt>
      <trkpt lat="46.129013" lon="6.800812">
        <time>1970-01-01T00:00:00+00:00</time>
        <ele>2050.0</ele>
      </trkpt>
      <trkpt lat="46.129013" lon="6.800812">
        <time>1970-01-01T00:00:00+00:00</time>
        <ele>2050.0</ele>
      </trkpt>
      <trkpt lat="46.12897" lon="6.800948">
        <time>1970-01-01T00:00:00+00:00</time>
        <ele>2052.0</ele>
      </trkpt>
      <trkpt lat="46.12897" lon="6.800948">
        <time>1970-01-01T00:00:00+00:00</time>
        <ele>2052.0</ele>
      </trkpt>
      <trkpt lat="46.128961" lon="6.801091">
        <time>1970-01-01T00:00:00+00:00</time>
        <ele>2056.0</ele>
      </trkpt>
      <trkpt lat="46.128961" lon="6.801091">
        <time>1970-01-01T00:00:00+00:00</time>
        <ele>2056.0</ele>
      </trkpt>
      <trkpt lat="46.12906" lon="6.801065">
        <time>1970-01-01T00:00:00+00:00</time>
        <ele>2057.0</ele>
      </trkpt>
      <trkpt lat="46.12906" lon="6.801065">
        <time>1970-01-01T00:00:00+00:00</time>
        <ele>2057.0</ele>
      </trkpt>
      <trkpt lat="46.129146" lon="6.801115">
        <time>1970-01-01T00:00:00+00:00</time>
        <ele>2061.0</ele>
      </trkpt>
      <trkpt lat="46.129146" lon="6.801115">
        <time>1970-01-01T00:00:00+00:00</time>
        <ele>2061.0</ele>
      </trkpt>
      <trkpt lat="46.129086" lon="6.801214">
        <time>1970-01-01T00:00:00+00:00</time>
        <ele>2062.0</ele>
      </trkpt>
      <trkpt lat="46.129086" lon="6.801214">
        <time>1970-01-01T00:00:00+00:00</time>
        <ele>2062.0</ele>
      </trkpt>
      <trkpt lat="46.129038" lon="6.801333">
        <time>1970-01-01T00:00:00+00:00</time>
        <ele>2064.0</ele>
      </trkpt>
      <trkpt lat="46.129038" lon="6.801333">
        <time>1970-01-01T00:00:00+00:00</time>
        <ele>2064.0</ele>
      </trkpt>
      <trkpt lat="46.129198" lon="6.801408">
        <time>1970-01-01T00:00:00+00:00</time>
        <ele>2070.0</ele>
      </trkpt>
      <trkpt lat="46.129198" lon="6.801408">
        <time>1970-01-01T00:00:00+00:00</time>
        <ele>2070.0</ele>
      </trkpt>
      <trkpt lat="46.129257" lon="6.801507">
        <time>1970-01-01T00:00:00+00:00</time>
        <ele>2074.0</ele>
      </trkpt>
      <trkpt lat="46.129257" lon="6.801507">
        <time>1970-01-01T00:00:00+00:00</time>
        <ele>2074.0</ele>
      </trkpt>
      <trkpt lat="46.129236" lon="6.801707">
        <time>1970-01-01T00:00:00+00:00</time>
        <ele>2078.0</ele>
      </trkpt>
      <trkpt lat="46.129236" lon="6.801707">
        <time>1970-01-01T00:00:00+00:00</time>
        <ele>2078.0</ele>
      </trkpt>
      <trkpt lat="46.129191" lon="6.801824">
        <time>1970-01-01T00:00:00+00:00</time>
        <ele>2080.0</ele>
      </trkpt>
      <trkpt lat="46.129191" lon="6.801824">
        <time>1970-01-01T00:00:00+00:00</time>
        <ele>2080.0</ele>
      </trkpt>
      <trkpt lat="46.129062514771086" lon="6.80200561821832">
        <time>1970-01-01T00:00:00+00:00</time>
        <ele>2084.0</ele>
      </trkpt>
      <trkpt lat="46.129058" lon="6.802012">
        <time>1970-01-01T00:00:00+00:00</time>
        <ele>2084.0</ele>
      </trkpt>
      <trkpt lat="46.129058" lon="6.802012">
        <time>1970-01-01T00:00:00+00:00</time>
        <ele>2084.0</ele>
      </trkpt>
      <trkpt lat="46.129071" lon="6.802144">
        <time>1970-01-01T00:00:00+00:00</time>
        <ele>2088.0</ele>
      </trkpt>
      <trkpt lat="46.129071" lon="6.802144">
        <time>1970-01-01T00:00:00+00:00</time>
        <ele>2088.0</ele>
      </trkpt>
      <trkpt lat="46.129013" lon="6.802258">
        <time>1970-01-01T00:00:00+00:00</time>
        <ele>2091.0</ele>
      </trkpt>
      <trkpt lat="46.129013" lon="6.802258">
        <time>1970-01-01T00:00:00+00:00</time>
        <ele>2091.0</ele>
      </trkpt>
      <trkpt lat="46.129061" lon="6.802449">
        <time>1970-01-01T00:00:00+00:00</time>
        <ele>2099.0</ele>
      </trkpt>
      <trkpt lat="46.129061" lon="6.802449">
        <time>1970-01-01T00:00:00+00:00</time>
        <ele>2099.0</ele>
      </trkpt>
      <trkpt lat="46.129194" lon="6.802531">
        <time>1970-01-01T00:00:00+00:00</time>
        <ele>2104.0</ele>
      </trkpt>
      <trkpt lat="46.129194" lon="6.802531">
        <time>1970-01-01T00:00:00+00:00</time>
        <ele>2104.0</ele>
      </trkpt>
      <trkpt lat="46.129132" lon="6.802625">
        <time>1970-01-01T00:00:00+00:00</time>
        <ele>2107.0</ele>
      </trkpt>
      <trkpt lat="46.129132" lon="6.802625">
        <time>1970-01-01T00:00:00+00:00</time>
        <ele>2107.0</ele>
      </trkpt>
      <trkpt lat="46.129119" lon="6.802763">
        <time>1970-01-01T00:00:00+00:00</time>
        <ele>2112.0</ele>
      </trkpt>
      <trkpt lat="46.129119" lon="6.802763">
        <time>1970-01-01T00:00:00+00:00</time>
        <ele>2112.0</ele>
      </trkpt>
      <trkpt lat="46.129183" lon="6.80286">
        <time>1970-01-01T00:00:00+00:00</time>
        <ele>2116.0</ele>
      </trkpt>
      <trkpt lat="46.129183" lon="6.80286">
        <time>1970-01-01T00:00:00+00:00</time>
        <ele>2116.0</ele>
      </trkpt>
      <trkpt lat="46.129207" lon="6.80299">
        <time>1970-01-01T00:00:00+00:00</time>
        <ele>2120.0</ele>
      </trkpt>
      <trkpt lat="46.129207" lon="6.80299">
        <time>1970-01-01T00:00:00+00:00</time>
        <ele>2120.0</ele>
      </trkpt>
      <trkpt lat="46.129287" lon="6.803055">
        <time>1970-01-01T00:00:00+00:00</time>
        <ele>2122.0</ele>
      </trkpt>
      <trkpt lat="46.129287" lon="6.803055">
        <time>1970-01-01T00:00:00+00:00</time>
        <ele>2122.0</ele>
      </trkpt>
      <trkpt lat="46.129261" lon="6.803198">
        <time>1970-01-01T00:00:00+00:00</time>
        <ele>2126.0</ele>
      </trkpt>
      <trkpt lat="46.129261" lon="6.803198">
        <time>1970-01-01T00:00:00+00:00</time>
        <ele>2126.0</ele>
      </trkpt>
      <trkpt lat="46.129215" lon="6.803315">
        <time>1970-01-01T00:00:00+00:00</time>
        <ele>2130.0</ele>
      </trkpt>
      <trkpt lat="46.129215" lon="6.803315">
        <time>1970-01-01T00:00:00+00:00</time>
        <ele>2130.0</ele>
      </trkpt>
      <trkpt lat="46.129206" lon="6.803446">
        <time>1970-01-01T00:00:00+00:00</time>
        <ele>2134.0</ele>
      </trkpt>
      <trkpt lat="46.129206" lon="6.803446">
        <time>1970-01-01T00:00:00+00:00</time>
        <ele>2134.0</ele>
      </trkpt>
      <trkpt lat="46.129225" lon="6.803562">
        <time>1970-01-01T00:00:00+00:00</time>
        <ele>2138.0</ele>
      </trkpt>
      <trkpt lat="46.129225" lon="6.803562">
        <time>1970-01-01T00:00:00+00:00</time>
        <ele>2138.0</ele>
      </trkpt>
      <trkpt lat="46.12917135951614" lon="6.803809721507261">
        <time>1970-01-01T00:00:00+00:00</time>
        <ele>2148.0</ele>
      </trkpt>
      <trkpt lat="46.12917" lon="6.803816">
        <time>1970-01-01T00:00:00+00:00</time>
        <ele>2148.0</ele>
      </trkpt>
      <trkpt lat="46.12917" lon="6.803816">
        <time>1970-01-01T00:00:00+00:00</time>
        <ele>2148.0</ele>
      </trkpt>
      <trkpt lat="46.129269" lon="6.803706">
        <time>1970-01-01T00:00:00+00:00</time>
        <ele>2143.0</ele>
      </trkpt>
      <trkpt lat="46.129269" lon="6.803706">
        <time>1970-01-01T00:00:00+00:00</time>
        <ele>2143.0</ele>
      </trkpt>
      <trkpt lat="46.129299" lon="6.803831">
        <time>1970-01-01T00:00:00+00:00</time>
        <ele>2148.0</ele>
      </trkpt>
      <trkpt lat="46.129299" lon="6.803831">
        <time>1970-01-01T00:00:00+00:00</time>
        <ele>2148.0</ele>
      </trkpt>
      <trkpt lat="46.129302" lon="6.803925">
        <time>1970-01-01T00:00:00+00:00</time>
        <ele>2152.0</ele>
      </trkpt>
      <trkpt lat="46.129302" lon="6.803925">
        <time>1970-01-01T00:00:00+00:00</time>
        <ele>2152.0</ele>
      </trkpt>
      <trkpt lat="46.129254" lon="6.804035">
        <time>1970-01-01T00:00:00+00:00</time>
        <ele>2156.0</ele>
      </trkpt>
      <trkpt lat="46.129254" lon="6.804035">
        <time>1970-01-01T00:00:00+00:00</time>
        <ele>2156.0</ele>
      </trkpt>
      <trkpt lat="46.129135" lon="6.804205">
        <time>1970-01-01T00:00:00+00:00</time>
        <ele>2161.0</ele>
      </trkpt>
      <trkpt lat="46.129135" lon="6.804205">
        <time>1970-01-01T00:00:00+00:00</time>
        <ele>2161.0</ele>
      </trkpt>
      <trkpt lat="46.129056" lon="6.804356">
        <time>1970-01-01T00:00:00+00:00</time>
        <ele>2167.0</ele>
      </trkpt>
      <trkpt lat="46.129056" lon="6.804356">
        <time>1970-01-01T00:00:00+00:00</time>
        <ele>2167.0</ele>
      </trkpt>
      <trkpt lat="46.129175" lon="6.804511">
        <time>1970-01-01T00:00:00+00:00</time>
        <ele>2169.0</ele>
      </trkpt>
      <trkpt lat="46.129175" lon="6.804511">
        <time>1970-01-01T00:00:00+00:00</time>
        <ele>2169.0</ele>
      </trkpt>
      <trkpt lat="46.129265" lon="6.804455">
        <time>1970-01-01T00:00:00+00:00</time>
        <ele>2166.0</ele>
      </trkpt>
      <trkpt lat="46.129265" lon="6.804455">
        <time>1970-01-01T00:00:00+00:00</time>
        <ele>2166.0</ele>
      </trkpt>
      <trkpt lat="46.129326" lon="6.804583">
        <time>1970-01-01T00:00:00+00:00</time>
        <ele>2169.0</ele>
      </trkpt>
      <trkpt lat="46.129326" lon="6.804583">
        <time>1970-01-01T00:00:00+00:00</time>
        <ele>2169.0</ele>
      </trkpt>
      <trkpt lat="46.129321" lon="6.804716">
        <time>1970-01-01T00:00:00+00:00</time>
        <ele>2173.0</ele>
      </trkpt>
      <trkpt lat="46.129321" lon="6.804716">
        <time>1970-01-01T00:00:00+00:00</time>
        <ele>2173.0</ele>
      </trkpt>
      <trkpt lat="46.129436" lon="6.804882">
        <time>1970-01-01T00:00:00+00:00</time>
        <ele>2177.0</ele>
      </trkpt>
      <trkpt lat="46.129436" lon="6.804882">
        <time>1970-01-01T00:00:00+00:00</time>
        <ele>2177.0</ele>
      </trkpt>
      <trkpt lat="46.1295" lon="6.804984">
        <time>1970-01-01T00:00:00+00:00</time>
        <ele>2179.0</ele>
      </trkpt>
      <trkpt lat="46.1295" lon="6.804984">
        <time>1970-01-01T00:00:00+00:00</time>
        <ele>2179.0</ele>
      </trkpt>
      <trkpt lat="46.129582" lon="6.805053">
        <time>1970-01-01T00:00:00+00:00</time>
        <ele>2179.0</ele>
      </trkpt>
      <trkpt lat="46.129582" lon="6.805053">
        <time>1970-01-01T00:00:00+00:00</time>
        <ele>2179.0</ele>
      </trkpt>
      <trkpt lat="46.129595" lon="6.805191">
        <time>1970-01-01T00:00:00+00:00</time>
        <ele>2182.0</ele>
      </trkpt>
      <trkpt lat="46.129595" lon="6.805191">
        <time>1970-01-01T00:00:00+00:00</time>
        <ele>2182.0</ele>
      </trkpt>
      <trkpt lat="46.129536" lon="6.8053">
        <time>1970-01-01T00:00:00+00:00</time>
        <ele>2186.0</ele>
      </trkpt>
      <trkpt lat="46.129536" lon="6.8053">
        <time>1970-01-01T00:00:00+00:00</time>
        <ele>2186.0</ele>
      </trkpt>
      <trkpt lat="46.129468" lon="6.805194">
        <time>1970-01-01T00:00:00+00:00</time>
        <ele>2184.0</ele>
      </trkpt>
      <trkpt lat="46.129468" lon="6.805194">
        <time>1970-01-01T00:00:00+00:00</time>
        <ele>2184.0</ele>
      </trkpt>
      <trkpt lat="46.129378" lon="6.805298">
        <time>1970-01-01T00:00:00+00:00</time>
        <ele>2189.0</ele>
      </trkpt>
      <trkpt lat="46.129378" lon="6.805298">
        <time>1970-01-01T00:00:00+00:00</time>
        <ele>2189.0</ele>
      </trkpt>
      <trkpt lat="46.129452" lon="6.805273">
        <time>1970-01-01T00:00:00+00:00</time>
        <ele>2187.0</ele>
      </trkpt>
      <trkpt lat="46.129452" lon="6.805273">
        <time>1970-01-01T00:00:00+00:00</time>
        <ele>2187.0</ele>
      </trkpt>
      <trkpt lat="46.129508" lon="6.805189">
        <time>1970-01-01T00:00:00+00:00</time>
        <ele>2184.0</ele>
      </trkpt>
      <trkpt lat="46.129508" lon="6.805189">
        <time>1970-01-01T00:00:00+00:00</time>
        <ele>2184.0</ele>
      </trkpt>
      <trkpt lat="46.129555" lon="6.805305">
        <time>1970-01-01T00:00:00+00:00</time>
        <ele>2186.0</ele>
      </trkpt>
      <trkpt lat="46.129555" lon="6.805305">
        <time>1970-01-01T00:00:00+00:00</time>
        <ele>2186.0</ele>
      </trkpt>
      <trkpt lat="46.129533" lon="6.80553">
        <time>1970-01-01T00:00:00+00:00</time>
        <ele>2192.0</ele>
      </trkpt>
      <trkpt lat="46.129533" lon="6.80553">
        <time>1970-01-01T00:00:00+00:00</time>
        <ele>2192.0</ele>
      </trkpt>
      <trkpt lat="46.129551" lon="6.805663">
        <time>1970-01-01T00:00:00+00:00</time>
        <ele>2195.0</ele>
      </trkpt>
      <trkpt lat="46.129551" lon="6.805663">
        <time>1970-01-01T00:00:00+00:00</time>
        <ele>2195.0</ele>
      </trkpt>
      <trkpt lat="46.129546" lon="6.805802">
        <time>1970-01-01T00:00:00+00:00</time>
        <ele>2198.0</ele>
      </trkpt>
      <trkpt lat="46.129546" lon="6.805802">
        <time>1970-01-01T00:00:00+00:00</time>
        <ele>2198.0</ele>
      </trkpt>
      <trkpt lat="46.129633" lon="6.805876">
        <time>1970-01-01T00:00:00+00:00</time>
        <ele>2196.0</ele>
      </trkpt>
      <trkpt lat="46.129633" lon="6.805876">
        <time>1970-01-01T00:00:00+00:00</time>
        <ele>2196.0</ele>
      </trkpt>
      <trkpt lat="46.129706" lon="6.805953">
        <time>1970-01-01T00:00:00+00:00</time>
        <ele>2195.0</ele>
      </trkpt>
      <trkpt lat="46.129706" lon="6.805953">
        <time>1970-01-01T00:00:00+00:00</time>
        <ele>2195.0</ele>
      </trkpt>
      <trkpt lat="46.129761" lon="6.806067">
        <time>1970-01-01T00:00:00+00:00</time>
        <ele>2196.0</ele>
      </trkpt>
      <trkpt lat="46.129761" lon="6.806067">
        <time>1970-01-01T00:00:00+00:00</time>
        <ele>2196.0</ele>
      </trkpt>
      <trkpt lat="46.129851" lon="6.806122">
        <time>1970-01-01T00:00:00+00:00</time>
        <ele>2194.0</ele>
      </trkpt>
      <trkpt lat="46.129851" lon="6.806122">
        <time>1970-01-01T00:00:00+00:00</time>
        <ele>2194.0</ele>
      </trkpt>
      <trkpt lat="46.129915" lon="6.806218">
        <time>1970-01-01T00:00:00+00:00</time>
        <ele>2195.0</ele>
      </trkpt>
      <trkpt lat="46.129915" lon="6.806218">
        <time>1970-01-01T00:00:00+00:00</time>
        <ele>2195.0</ele>
      </trkpt>
      <trkpt lat="46.129951" lon="6.806349">
        <time>1970-01-01T00:00:00+00:00</time>
        <ele>2199.0</ele>
      </trkpt>
      <trkpt lat="46.129951" lon="6.806349">
        <time>1970-01-01T00:00:00+00:00</time>
        <ele>2199.0</ele>
      </trkpt>
      <trkpt lat="46.130011" lon="6.806461">
        <time>1970-01-01T00:00:00+00:00</time>
        <ele>2201.0</ele>
      </trkpt>
      <trkpt lat="46.130011" lon="6.806461">
        <time>1970-01-01T00:00:00+00:00</time>
        <ele>2201.0</ele>
      </trkpt>
      <trkpt lat="46.1301243982681" lon="6.8066624561410976">
        <time>1970-01-01T00:00:00+00:00</time>
        <ele>2205.0</ele>
      </trkpt>
      <trkpt lat="46.13019" lon="6.806779">
        <time>1970-01-01T00:00:00+00:00</time>
        <ele>2209.0</ele>
      </trkpt>
      <trkpt lat="46.13019" lon="6.806779">
        <time>1970-01-01T00:00:00+00:00</time>
        <ele>2209.0</ele>
      </trkpt>
      <trkpt lat="46.130272" lon="6.806837">
        <time>1970-01-01T00:00:00+00:00</time>
        <ele>2210.0</ele>
      </trkpt>
      <trkpt lat="46.130272" lon="6.806837">
        <time>1970-01-01T00:00:00+00:00</time>
        <ele>2210.0</ele>
      </trkpt>
      <trkpt lat="46.130308" lon="6.806967">
        <time>1970-01-01T00:00:00+00:00</time>
        <ele>2215.0</ele>
      </trkpt>
      <trkpt lat="46.130308" lon="6.806967">
        <time>1970-01-01T00:00:00+00:00</time>
        <ele>2215.0</ele>
      </trkpt>
      <trkpt lat="46.130378" lon="6.807055">
        <time>1970-01-01T00:00:00+00:00</time>
        <ele>2218.0</ele>
      </trkpt>
      <trkpt lat="46.130378" lon="6.807055">
        <time>1970-01-01T00:00:00+00:00</time>
        <ele>2218.0</ele>
      </trkpt>
      <trkpt lat="46.130362" lon="6.807256">
        <time>1970-01-01T00:00:00+00:00</time>
        <ele>2227.0</ele>
      </trkpt>
      <trkpt lat="46.130362" lon="6.807256">
        <time>1970-01-01T00:00:00+00:00</time>
        <ele>2227.0</ele>
      </trkpt>
      <trkpt lat="46.130353" lon="6.807421">
        <time>1970-01-01T00:00:00+00:00</time>
        <ele>2233.0</ele>
      </trkpt>
      <trkpt lat="46.130353" lon="6.807421">
        <time>1970-01-01T00:00:00+00:00</time>
        <ele>2233.0</ele>
      </trkpt>
      <trkpt lat="46.13051271063134" lon="6.8075403713481695">
        <time>1970-01-01T00:00:00+00:00</time>
        <ele>2236.0</ele>
      </trkpt>
      <trkpt lat="46.130547" lon="6.807566">
        <time>1970-01-01T00:00:00+00:00</time>
        <ele>2237.0</ele>
      </trkpt>
      <trkpt lat="46.130547" lon="6.807566">
        <time>1970-01-01T00:00:00+00:00</time>
        <ele>2237.0</ele>
      </trkpt>
      <trkpt lat="46.130557" lon="6.807761">
        <time>1970-01-01T00:00:00+00:00</time>
        <ele>2244.0</ele>
      </trkpt>
      <trkpt lat="46.130557" lon="6.807761">
        <time>1970-01-01T00:00:00+00:00</time>
        <ele>2244.0</ele>
      </trkpt>
      <trkpt lat="46.130523" lon="6.807886">
        <time>1970-01-01T00:00:00+00:00</time>
        <ele>2249.0</ele>
      </trkpt>
      <trkpt lat="46.130523" lon="6.807886">
        <time>1970-01-01T00:00:00+00:00</time>
        <ele>2249.0</ele>
      </trkpt>
      <trkpt lat="46.13069885738576" lon="6.807940477559719">
        <time>1970-01-01T00:00:00+00:00</time>
        <ele>2249.0</ele>
      </trkpt>
      <trkpt lat="46.130707" lon="6.807943">
        <time>1970-01-01T00:00:00+00:00</time>
        <ele>2249.0</ele>
      </trkpt>
      <trkpt lat="46.130707" lon="6.807943">
        <time>1970-01-01T00:00:00+00:00</time>
        <ele>2249.0</ele>
      </trkpt>
      <trkpt lat="46.130696" lon="6.808076">
        <time>1970-01-01T00:00:00+00:00</time>
        <ele>2254.0</ele>
      </trkpt>
      <trkpt lat="46.130696" lon="6.808076">
        <time>1970-01-01T00:00:00+00:00</time>
        <ele>2254.0</ele>
      </trkpt>
      <trkpt lat="46.130763" lon="6.808176">
        <time>1970-01-01T00:00:00+00:00</time>
        <ele>2256.0</ele>
      </trkpt>
      <trkpt lat="46.130763" lon="6.808176">
        <time>1970-01-01T00:00:00+00:00</time>
        <ele>2256.0</ele>
      </trkpt>
      <trkpt lat="46.130833" lon="6.808321">
        <time>1970-01-01T00:00:00+00:00</time>
        <ele>2261.0</ele>
      </trkpt>
      <trkpt lat="46.130833" lon="6.808321">
        <time>1970-01-01T00:00:00+00:00</time>
        <ele>2261.0</ele>
      </trkpt>
      <trkpt lat="46.13081" lon="6.808454">
        <time>1970-01-01T00:00:00+00:00</time>
        <ele>2266.0</ele>
      </trkpt>
      <trkpt lat="46.13081" lon="6.808454">
        <time>1970-01-01T00:00:00+00:00</time>
        <ele>2266.0</ele>
      </trkpt>
      <trkpt lat="46.130958" lon="6.808543">
        <time>1970-01-01T00:00:00+00:00</time>
        <ele>2269.0</ele>
      </trkpt>
      <trkpt lat="46.130958" lon="6.808543">
        <time>1970-01-01T00:00:00+00:00</time>
        <ele>2269.0</ele>
      </trkpt>
      <trkpt lat="46.131048" lon="6.808613">
        <time>1970-01-01T00:00:00+00:00</time>
        <ele>2271.0</ele>
      </trkpt>
      <trkpt lat="46.131048" lon="6.808613">
        <time>1970-01-01T00:00:00+00:00</time>
        <ele>2271.0</ele>
      </trkpt>
      <trkpt lat="46.13119390783598" lon="6.808764767588425">
        <time>1970-01-01T00:00:00+00:00</time>
        <ele>2277.0</ele>
      </trkpt>
      <trkpt lat="46.131297" lon="6.808872">
        <time>1970-01-01T00:00:00+00:00</time>
        <ele>2281.0</ele>
      </trkpt>
      <trkpt lat="46.131297" lon="6.808872">
        <time>1970-01-01T00:00:00+00:00</time>
        <ele>2281.0</ele>
      </trkpt>
      <trkpt lat="46.131391" lon="6.808905">
        <time>1970-01-01T00:00:00+00:00</time>
        <ele>2282.0</ele>
      </trkpt>
      <trkpt lat="46.131391" lon="6.808905">
        <time>1970-01-01T00:00:00+00:00</time>
        <ele>2282.0</ele>
      </trkpt>
      <trkpt lat="46.131458" lon="6.809017">
        <time>1970-01-01T00:00:00+00:00</time>
        <ele>2287.0</ele>
      </trkpt>
      <trkpt lat="46.131458" lon="6.809017">
        <time>1970-01-01T00:00:00+00:00</time>
        <ele>2287.0</ele>
      </trkpt>
      <trkpt lat="46.131549" lon="6.809026">
        <time>1970-01-01T00:00:00+00:00</time>
        <ele>2286.0</ele>
      </trkpt>
      <trkpt lat="46.131549" lon="6.809026">
        <time>1970-01-01T00:00:00+00:00</time>
        <ele>2286.0</ele>
      </trkpt>
      <trkpt lat="46.13160569122401" lon="6.809272313593958">
        <time>1970-01-01T00:00:00+00:00</time>
        <ele>2298.0</ele>
      </trkpt>
      <trkpt lat="46.131607" lon="6.809278">
        <time>1970-01-01T00:00:00+00:00</time>
        <ele>2298.0</ele>
      </trkpt>
      <trkpt lat="46.131607" lon="6.809278">
        <time>1970-01-01T00:00:00+00:00</time>
        <ele>2298.0</ele>
      </trkpt>
      <trkpt lat="46.131673" lon="6.809369">
        <time>1970-01-01T00:00:00+00:00</time>
        <ele>2301.0</ele>
      </trkpt>
      <trkpt lat="46.131673" lon="6.809369">
        <time>1970-01-01T00:00:00+00:00</time>
        <ele>2301.0</ele>
      </trkpt>
      <trkpt lat="46.131749" lon="6.809411">
        <time>1970-01-01T00:00:00+00:00</time>
        <ele>2302.0</ele>
      </trkpt>
      <trkpt lat="46.131749" lon="6.809411">
        <time>1970-01-01T00:00:00+00:00</time>
        <ele>2302.0</ele>
      </trkpt>
      <trkpt lat="46.131782" lon="6.809574">
        <time>1970-01-01T00:00:00+00:00</time>
        <ele>2308.0</ele>
      </trkpt>
      <trkpt lat="46.131782" lon="6.809574">
        <time>1970-01-01T00:00:00+00:00</time>
        <ele>2308.0</ele>
      </trkpt>
      <trkpt lat="46.131826" lon="6.809694">
        <time>1970-01-01T00:00:00+00:00</time>
        <ele>2311.0</ele>
      </trkpt>
      <trkpt lat="46.131826" lon="6.809694">
        <time>1970-01-01T00:00:00+00:00</time>
        <ele>2311.0</ele>
      </trkpt>
      <trkpt lat="46.131887" lon="6.809908">
        <time>1970-01-01T00:00:00+00:00</time>
        <ele>2318.0</ele>
      </trkpt>
      <trkpt lat="46.131887" lon="6.809908">
        <time>1970-01-01T00:00:00+00:00</time>
        <ele>2318.0</ele>
      </trkpt>
      <trkpt lat="46.131964" lon="6.810029">
        <time>1970-01-01T00:00:00+00:00</time>
        <ele>2320.0</ele>
      </trkpt>
      <trkpt lat="46.131964" lon="6.810029">
        <time>1970-01-01T00:00:00+00:00</time>
        <ele>2320.0</ele>
      </trkpt>
      <trkpt lat="46.131999" lon="6.810151">
        <time>1970-01-01T00:00:00+00:00</time>
        <ele>2323.0</ele>
      </trkpt>
      <trkpt lat="46.131999" lon="6.810151">
        <time>1970-01-01T00:00:00+00:00</time>
        <ele>2323.0</ele>
      </trkpt>
      <trkpt lat="46.132116" lon="6.810322">
        <time>1970-01-01T00:00:00+00:00</time>
        <ele>2327.0</ele>
      </trkpt>
      <trkpt lat="46.132116" lon="6.810322">
        <time>1970-01-01T00:00:00+00:00</time>
        <ele>2327.0</ele>
      </trkpt>
      <trkpt lat="46.132117" lon="6.810392">
        <time>1970-01-01T00:00:00+00:00</time>
        <ele>2330.0</ele>
      </trkpt>
      <trkpt lat="46.132117" lon="6.810392">
        <time>1970-01-01T00:00:00+00:00</time>
        <ele>2330.0</ele>
      </trkpt>
      <trkpt lat="46.132207" lon="6.810428">
        <time>1970-01-01T00:00:00+00:00</time>
        <ele>2330.0</ele>
      </trkpt>
      <trkpt lat="46.132207" lon="6.810428">
        <time>1970-01-01T00:00:00+00:00</time>
        <ele>2330.0</ele>
      </trkpt>
      <trkpt lat="46.132287" lon="6.810496">
        <time>1970-01-01T00:00:00+00:00</time>
        <ele>2332.0</ele>
      </trkpt>
      <trkpt lat="46.132287" lon="6.810496">
        <time>1970-01-01T00:00:00+00:00</time>
        <ele>2332.0</ele>
      </trkpt>
      <trkpt lat="46.132328" lon="6.810626">
        <time>1970-01-01T00:00:00+00:00</time>
        <ele>2335.0</ele>
      </trkpt>
      <trkpt lat="46.132328" lon="6.810626">
        <time>1970-01-01T00:00:00+00:00</time>
        <ele>2335.0</ele>
      </trkpt>
      <trkpt lat="46.132387" lon="6.810734">
        <time>1970-01-01T00:00:00+00:00</time>
        <ele>2336.0</ele>
      </trkpt>
      <trkpt lat="46.132387" lon="6.810734">
        <time>1970-01-01T00:00:00+00:00</time>
        <ele>2336.0</ele>
      </trkpt>
      <trkpt lat="46.132343" lon="6.81092">
        <time>1970-01-01T00:00:00+00:00</time>
        <ele>2342.0</ele>
      </trkpt>
      <trkpt lat="46.132343" lon="6.81092">
        <time>1970-01-01T00:00:00+00:00</time>
        <ele>2342.0</ele>
      </trkpt>
      <trkpt lat="46.132275" lon="6.810945">
        <time>1970-01-01T00:00:00+00:00</time>
        <ele>2344.0</ele>
      </trkpt>
      <trkpt lat="46.132275" lon="6.810945">
        <time>1970-01-01T00:00:00+00:00</time>
        <ele>2344.0</ele>
      </trkpt>
      <trkpt lat="46.132137307048254" lon="6.811111989324457">
        <time>1970-01-01T00:00:00+00:00</time>
        <ele>2351.0</ele>
      </trkpt>
      <trkpt lat="46.132134" lon="6.811116">
        <time>1970-01-01T00:00:00+00:00</time>
        <ele>2351.0</ele>
      </trkpt>
      <trkpt lat="46.132134" lon="6.811116">
        <time>1970-01-01T00:00:00+00:00</time>
        <ele>2351.0</ele>
      </trkpt>
      <trkpt lat="46.132054" lon="6.811174">
        <time>1970-01-01T00:00:00+00:00</time>
        <ele>2353.0</ele>
      </trkpt>
      <trkpt lat="46.132054" lon="6.811174">
        <time>1970-01-01T00:00:00+00:00</time>
        <ele>2353.0</ele>
      </trkpt>
      <trkpt lat="46.13196" lon="6.811169">
        <time>1970-01-01T00:00:00+00:00</time>
        <ele>2352.0</ele>
      </trkpt>
      <trkpt lat="46.13196" lon="6.811169">
        <time>1970-01-01T00:00:00+00:00</time>
        <ele>2352.0</ele>
      </trkpt>
      <trkpt lat="46.131858" lon="6.81132">
        <time>1970-01-01T00:00:00+00:00</time>
        <ele>2357.0</ele>
      </trkpt>
      <trkpt lat="46.131858" lon="6.81132">
        <time>1970-01-01T00:00:00+00:00</time>
        <ele>2357.0</ele>
      </trkpt>
      <trkpt lat="46.131763" lon="6.81134">
        <time>1970-01-01T00:00:00+00:00</time>
        <ele>2357.0</ele>
      </trkpt>
      <trkpt lat="46.131763" lon="6.81134">
        <time>1970-01-01T00:00:00+00:00</time>
        <ele>2357.0</ele>
      </trkpt>
      <trkpt lat="46.131673" lon="6.811388">
        <time>1970-01-01T00:00:00+00:00</time>
        <ele>2357.0</ele>
      </trkpt>
      <trkpt lat="46.131673" lon="6.811388">
        <time>1970-01-01T00:00:00+00:00</time>
        <ele>2357.0</ele>
      </trkpt>
      <trkpt lat="46.131604" lon="6.811477">
        <time>1970-01-01T00:00:00+00:00</time>
        <ele>2359.0</ele>
      </trkpt>
      <trkpt lat="46.131604" lon="6.811477">
        <time>1970-01-01T00:00:00+00:00</time>
        <ele>2359.0</ele>
      </trkpt>
      <trkpt lat="46.131513" lon="6.811493">
        <time>1970-01-01T00:00:00+00:00</time>
        <ele>2359.0</ele>
      </trkpt>
      <trkpt lat="46.131513" lon="6.811493">
        <time>1970-01-01T00:00:00+00:00</time>
        <ele>2359.0</ele>
      </trkpt>
      <trkpt lat="46.131419" lon="6.811481">
        <time>1970-01-01T00:00:00+00:00</time>
        <ele>2358.0</ele>
      </trkpt>
      <trkpt lat="46.131419" lon="6.811481">
        <time>1970-01-01T00:00:00+00:00</time>
        <ele>2358.0</ele>
      </trkpt>
      <trkpt lat="46.13127982035104" lon="6.811645400122261">
        <time>1970-01-01T00:00:00+00:00</time>
        <ele>2367.0</ele>
      </trkpt>
      <trkpt lat="46.13114064070208" lon="6.811809800244523">
        <time>1970-01-01T00:00:00+00:00</time>
        <ele>2378.0</ele>
      </trkpt>
      <trkpt lat="46.131121" lon="6.811833">
        <time>1970-01-01T00:00:00+00:00</time>
        <ele>2379.0</ele>
      </trkpt>
      <trkpt lat="46.131121" lon="6.811833">
        <time>1970-01-01T00:00:00+00:00</time>
        <ele>2379.0</ele>
      </trkpt>
      <trkpt lat="46.131049" lon="6.811938">
        <time>1970-01-01T00:00:00+00:00</time>
        <ele>2386.0</ele>
      </trkpt>
      <trkpt lat="46.131049" lon="6.811938">
        <time>1970-01-01T00:00:00+00:00</time>
        <ele>2386.0</ele>
      </trkpt>
      <trkpt lat="46.130971" lon="6.81202">
        <time>1970-01-01T00:00:00+00:00</time>
        <ele>2392.0</ele>
      </trkpt>
      <trkpt lat="46.130971" lon="6.81202">
        <time>1970-01-01T00:00:00+00:00</time>
        <ele>2392.0</ele>
      </trkpt>
      <trkpt lat="46.130875" lon="6.812018">
        <time>1970-01-01T00:00:00+00:00</time>
        <ele>2393.0</ele>
      </trkpt>
      <trkpt lat="46.130875" lon="6.812018">
        <time>1970-01-01T00:00:00+00:00</time>
        <ele>2393.0</ele>
      </trkpt>
      <trkpt lat="46.130871" lon="6.81211">
        <time>1970-01-01T00:00:00+00:00</time>
        <ele>2398.0</ele>
      </trkpt>
      <trkpt lat="46.130871" lon="6.81211">
        <time>1970-01-01T00:00:00+00:00</time>
        <ele>2398.0</ele>
      </trkpt>
      <trkpt lat="46.13097" lon="6.812144">
        <time>1970-01-01T00:00:00+00:00</time>
        <ele>2400.0</ele>
      </trkpt>
      <trkpt lat="46.13097" lon="6.812144">
        <time>1970-01-01T00:00:00+00:00</time>
        <ele>2400.0</ele>
      </trkpt>
      <trkpt lat="46.13086597614325" lon="6.8119322700260785">
        <time>1970-01-01T00:00:00+00:00</time>
        <ele>2388.0</ele>
      </trkpt>
      <trkpt lat="46.1307619522865" lon="6.811720540052157">
        <time>1970-01-01T00:00:00+00:00</time>
        <ele>2379.0</ele>
      </trkpt>
      <trkpt lat="46.130744" lon="6.811684">
        <time>1970-01-01T00:00:00+00:00</time>
        <ele>2377.0</ele>
      </trkpt>
      <trkpt lat="46.130744" lon="6.811684">
        <time>1970-01-01T00:00:00+00:00</time>
        <ele>2377.0</ele>
      </trkpt>
      <trkpt lat="46.130738" lon="6.811875">
        <time>1970-01-01T00:00:00+00:00</time>
        <ele>2388.0</ele>
      </trkpt>
      <trkpt lat="46.130738" lon="6.811875">
        <time>1970-01-01T00:00:00+00:00</time>
        <ele>2388.0</ele>
      </trkpt>
      <trkpt lat="46.130893903163184" lon="6.812004429041129">
        <time>1970-01-01T00:00:00+00:00</time>
        <ele>2392.0</ele>
      </trkpt>
      <trkpt lat="46.13104980632636" lon="6.812133858082258">
        <time>1970-01-01T00:00:00+00:00</time>
        <ele>2399.0</ele>
      </trkpt>
      <trkpt lat="46.131056" lon="6.812139">
        <time>1970-01-01T00:00:00+00:00</time>
        <ele>2399.0</ele>
      </trkpt>
      <trkpt lat="46.131056" lon="6.812139">
        <time>1970-01-01T00:00:00+00:00</time>
        <ele>2399.0</ele>
      </trkpt>
      <trkpt lat="46.130946" lon="6.81222">
        <time>1970-01-01T00:00:00+00:00</time>
        <ele>2405.0</ele>
      </trkpt>
      <trkpt lat="46.130946" lon="6.81222">
        <time>1970-01-01T00:00:00+00:00</time>
        <ele>2405.0</ele>
      </trkpt>
      <trkpt lat="46.130921" lon="6.812119">
        <time>1970-01-01T00:00:00+00:00</time>
        <ele>2399.0</ele>
      </trkpt>
      <trkpt lat="46.130921" lon="6.812119">
        <time>1970-01-01T00:00:00+00:00</time>
        <ele>2399.0</ele>
      </trkpt>
      <trkpt lat="46.130816" lon="6.81207">
        <time>1970-01-01T00:00:00+00:00</time>
        <ele>2397.0</ele>
      </trkpt>
      <trkpt lat="46.130816" lon="6.81207">
        <time>1970-01-01T00:00:00+00:00</time>
        <ele>2397.0</ele>
      </trkpt>
      <trkpt lat="46.130828" lon="6.812183">
        <time>1970-01-01T00:00:00+00:00</time>
        <ele>2404.0</ele>
      </trkpt>
      <trkpt lat="46.130828" lon="6.812183">
        <time>1970-01-01T00:00:00+00:00</time>
        <ele>2404.0</ele>
      </trkpt>
      <trkpt lat="46.130724" lon="6.812261">
        <time>1970-01-01T00:00:00+00:00</time>
        <ele>2411.0</ele>
      </trkpt>
      <trkpt lat="46.130724" lon="6.812261">
        <time>1970-01-01T00:00:00+00:00</time>
        <ele>2411.0</ele>
      </trkpt>
      <trkpt lat="46.130645" lon="6.812298">
        <time>1970-01-01T00:00:00+00:00</time>
        <ele>2415.0</ele>
      </trkpt>
      <trkpt lat="46.130645" lon="6.812298">
        <time>1970-01-01T00:00:00+00:00</time>
        <ele>2415.0</ele>
      </trkpt>
      <trkpt lat="46.130521" lon="6.812212">
        <time>1970-01-01T00:00:00+00:00</time>
        <ele>2416.0</ele>
      </trkpt>
      <trkpt lat="46.130521" lon="6.812212">
        <time>1970-01-01T00:00:00+00:00</time>
        <ele>2416.0</ele>
      </trkpt>
      <trkpt lat="46.130562" lon="6.812356">
        <time>1970-01-01T00:00:00+00:00</time>
        <ele>2421.0</ele>
      </trkpt>
      <trkpt lat="46.130562" lon="6.812356">
        <time>1970-01-01T00:00:00+00:00</time>
        <ele>2421.0</ele>
      </trkpt>
      <trkpt lat="46.130516" lon="6.812389">
        <time>1970-01-01T00:00:00+00:00</time>
        <ele>2424.0</ele>
      </trkpt>
      <trkpt lat="46.130516" lon="6.812389">
        <time>1970-01-01T00:00:00+00:00</time>
        <ele>2424.0</ele>
      </trkpt>
      <trkpt lat="46.130455" lon="6.812486">
        <time>1970-01-01T00:00:00+00:00</time>
        <ele>2431.0</ele>
      </trkpt>
      <trkpt lat="46.130455" lon="6.812486">
        <time>1970-01-01T00:00:00+00:00</time>
        <ele>2431.0</ele>
      </trkpt>
      <trkpt lat="46.130378" lon="6.81261">
        <time>1970-01-01T00:00:00+00:00</time>
        <ele>2438.0</ele>
      </trkpt>
      <trkpt lat="46.130378" lon="6.81261">
        <time>1970-01-01T00:00:00+00:00</time>
        <ele>2438.0</ele>
      </trkpt>
      <trkpt lat="46.130378" lon="6.812748">
        <time>1970-01-01T00:00:00+00:00</time>
        <ele>2445.0</ele>
      </trkpt>
      <trkpt lat="46.130378" lon="6.812748">
        <time>1970-01-01T00:00:00+00:00</time>
        <ele>2445.0</ele>
      </trkpt>
      <trkpt lat="46.130296" lon="6.812807">
        <time>1970-01-01T00:00:00+00:00</time>
        <ele>2449.0</ele>
      </trkpt>
      <trkpt lat="46.130296" lon="6.812807">
        <time>1970-01-01T00:00:00+00:00</time>
        <ele>2449.0</ele>
      </trkpt>
      <trkpt lat="46.130173" lon="6.812795">
        <time>1970-01-01T00:00:00+00:00</time>
        <ele>2450.0</ele>
      </trkpt>
      <trkpt lat="46.130173" lon="6.812795">
        <time>1970-01-01T00:00:00+00:00</time>
        <ele>2450.0</ele>
      </trkpt>
      <trkpt lat="46.130136" lon="6.812574">
        <time>1970-01-01T00:00:00+00:00</time>
        <ele>2443.0</ele>
      </trkpt>
      <trkpt lat="46.130136" lon="6.812574">
        <time>1970-01-01T00:00:00+00:00</time>
        <ele>2443.0</ele>
      </trkpt>
      <trkpt lat="46.130091" lon="6.81245">
        <time>1970-01-01T00:00:00+00:00</time>
        <ele>2441.0</ele>
      </trkpt>
      <trkpt lat="46.130091" lon="6.81245">
        <time>1970-01-01T00:00:00+00:00</time>
        <ele>2441.0</ele>
      </trkpt>
      <trkpt lat="46.129993" lon="6.812429">
        <time>1970-01-01T00:00:00+00:00</time>
        <ele>2444.0</ele>
      </trkpt>
      <trkpt lat="46.129993" lon="6.812429">
        <time>1970-01-01T00:00:00+00:00</time>
        <ele>2444.0</ele>
      </trkpt>
      <trkpt lat="46.129863" lon="6.812444">
        <time>1970-01-01T00:00:00+00:00</time>
        <ele>2449.0</ele>
      </trkpt>
      <trkpt lat="46.129863" lon="6.812444">
        <time>1970-01-01T00:00:00+00:00</time>
        <ele>2449.0</ele>
      </trkpt>
      <trkpt lat="46.129803" lon="6.812571">
        <time>1970-01-01T00:00:00+00:00</time>
        <ele>2454.0</ele>
      </trkpt>
      <trkpt lat="46.129803" lon="6.812571">
        <time>1970-01-01T00:00:00+00:00</time>
        <ele>2454.0</ele>
      </trkpt>
      <trkpt lat="46.129783" lon="6.81271">
        <time>1970-01-01T00:00:00+00:00</time>
        <ele>2458.0</ele>
      </trkpt>
      <trkpt lat="46.129783" lon="6.81271">
        <time>1970-01-01T00:00:00+00:00</time>
        <ele>2458.0</ele>
      </trkpt>
      <trkpt lat="46.129843" lon="6.812809">
        <time>1970-01-01T00:00:00+00:00</time>
        <ele>2458.0</ele>
      </trkpt>
      <trkpt lat="46.129843" lon="6.812809">
        <time>1970-01-01T00:00:00+00:00</time>
        <ele>2458.0</ele>
      </trkpt>
      <trkpt lat="46.129805" lon="6.812642">
        <time>1970-01-01T00:00:00+00:00</time>
        <ele>2455.0</ele>
      </trkpt>
      <trkpt lat="46.129805" lon="6.812642">
        <time>1970-01-01T00:00:00+00:00</time>
        <ele>2455.0</ele>
      </trkpt>
      <trkpt lat="46.129845" lon="6.81258">
        <time>1970-01-01T00:00:00+00:00</time>
        <ele>2453.0</ele>
      </trkpt>
      <trkpt lat="46.129845" lon="6.81258">
        <time>1970-01-01T00:00:00+00:00</time>
        <ele>2453.0</ele>
      </trkpt>
      <trkpt lat="46.129886" lon="6.812661">
        <time>1970-01-01T00:00:00+00:00</time>
        <ele>2453.0</ele>
      </trkpt>
      <trkpt lat="46.129886" lon="6.812661">
        <time>1970-01-01T00:00:00+00:00</time>
        <ele>2453.0</ele>
      </trkpt>
      <trkpt lat="46.129934" lon="6.812556">
        <time>1970-01-01T00:00:00+00:00</time>
        <ele>2449.0</ele>
      </trkpt>
      <trkpt lat="46.129934" lon="6.812556">
        <time>1970-01-01T00:00:00+00:00</time>
        <ele>2449.0</ele>
      </trkpt>
      <trkpt lat="46.12994937532818" lon="6.812814585064885">
        <time>1970-01-01T00:00:00+00:00</time>
        <ele>2456.0</ele>
      </trkpt>
      <trkpt lat="46.129956" lon="6.812926">
        <time>1970-01-01T00:00:00+00:00</time>
        <ele>2461.0</ele>
      </trkpt>
      <trkpt lat="46.129956" lon="6.812926">
        <time>1970-01-01T00:00:00+00:00</time>
        <ele>2461.0</ele>
      </trkpt>
      <trkpt lat="46.129889" lon="6.812773">
        <time>1970-01-01T00:00:00+00:00</time>
        <ele>2456.0</ele>
      </trkpt>
      <trkpt lat="46.129889" lon="6.812773">
        <time>1970-01-01T00:00:00+00:00</time>
        <ele>2456.0</ele>
      </trkpt>
      <trkpt lat="46.129767441131946" lon="6.81258170968827">
        <time>1970-01-01T00:00:00+00:00</time>
        <ele>2455.0</ele>
      </trkpt>
      <trkpt lat="46.12976" lon="6.81257">
        <time>1970-01-01T00:00:00+00:00</time>
        <ele>2455.0</ele>
      </trkpt>
      <trkpt lat="46.12976" lon="6.81257">
        <time>1970-01-01T00:00:00+00:00</time>
        <ele>2455.0</ele>
      </trkpt>
      <trkpt lat="46.129812" lon="6.812461">
        <time>1970-01-01T00:00:00+00:00</time>
        <ele>2451.0</ele>
      </trkpt>
      <trkpt lat="46.129812" lon="6.812461">
        <time>1970-01-01T00:00:00+00:00</time>
        <ele>2451.0</ele>
      </trkpt>
      <trkpt lat="46.129865" lon="6.812567">
        <time>1970-01-01T00:00:00+00:00</time>
        <ele>2452.0</ele>
      </trkpt>
      <trkpt lat="46.129865" lon="6.812567">
        <time>1970-01-01T00:00:00+00:00</time>
        <ele>2452.0</ele>
      </trkpt>
      <trkpt lat="46.129877" lon="6.812735">
        <time>1970-01-01T00:00:00+00:00</time>
        <ele>2455.0</ele>
      </trkpt>
      <trkpt lat="46.129877" lon="6.812735">
        <time>1970-01-01T00:00:00+00:00</time>
        <ele>2455.0</ele>
      </trkpt>
      <trkpt lat="46.12974088371843" lon="6.8125653478229795">
        <time>1970-01-01T00:00:00+00:00</time>
        <ele>2456.0</ele>
      </trkpt>
      <trkpt lat="46.129739" lon="6.812563">
        <time>1970-01-01T00:00:00+00:00</time>
        <ele>2456.0</ele>
      </trkpt>
      <trkpt lat="46.129739" lon="6.812563">
        <time>1970-01-01T00:00:00+00:00</time>
        <ele>2456.0</ele>
      </trkpt>
      <trkpt lat="46.129669" lon="6.812477">
        <time>1970-01-01T00:00:00+00:00</time>
        <ele>2456.0</ele>
      </trkpt>
      <trkpt lat="46.129669" lon="6.812477">
        <time>1970-01-01T00:00:00+00:00</time>
        <ele>2456.0</ele>
      </trkpt>
      <trkpt lat="46.129573" lon="6.812496">
        <time>1970-01-01T00:00:00+00:00</time>
        <ele>2459.0</ele>
      </trkpt>
      <trkpt lat="46.129573" lon="6.812496">
        <time>1970-01-01T00:00:00+00:00</time>
        <ele>2459.0</ele>
      </trkpt>
      <trkpt lat="46.129494" lon="6.81242">
        <time>1970-01-01T00:00:00+00:00</time>
        <ele>2460.0</ele>
      </trkpt>
      <trkpt lat="46.129494" lon="6.81242">
        <time>1970-01-01T00:00:00+00:00</time>
        <ele>2460.0</ele>
      </trkpt>
      <trkpt lat="46.1294" lon="6.812347">
        <time>1970-01-01T00:00:00+00:00</time>
        <ele>2462.0</ele>
      </trkpt>
      <trkpt lat="46.1294" lon="6.812347">
        <time>1970-01-01T00:00:00+00:00</time>
        <ele>2462.0</ele>
      </trkpt>
      <trkpt lat="46.129278" lon="6.812331">
        <time>1970-01-01T00:00:00+00:00</time>
        <ele>2466.0</ele>
      </trkpt>
      <trkpt lat="46.129278" lon="6.812331">
        <time>1970-01-01T00:00:00+00:00</time>
        <ele>2466.0</ele>
      </trkpt>
      <trkpt lat="46.129203" lon="6.812257">
        <time>1970-01-01T00:00:00+00:00</time>
        <ele>2465.0</ele>
      </trkpt>
      <trkpt lat="46.129203" lon="6.812257">
        <time>1970-01-01T00:00:00+00:00</time>
        <ele>2465.0</ele>
      </trkpt>
      <trkpt lat="46.129107" lon="6.812222">
        <time>1970-01-01T00:00:00+00:00</time>
        <ele>2466.0</ele>
      </trkpt>
      <trkpt lat="46.129107" lon="6.812222">
        <time>1970-01-01T00:00:00+00:00</time>
        <ele>2466.0</ele>
      </trkpt>
      <trkpt lat="46.129014" lon="6.812231">
        <time>1970-01-01T00:00:00+00:00</time>
        <ele>2468.0</ele>
      </trkpt>
      <trkpt lat="46.129014" lon="6.812231">
        <time>1970-01-01T00:00:00+00:00</time>
        <ele>2468.0</ele>
      </trkpt>
      <trkpt lat="46.128924" lon="6.812275">
        <time>1970-01-01T00:00:00+00:00</time>
        <ele>2472.0</ele>
      </trkpt>
      <trkpt lat="46.128924" lon="6.812275">
        <time>1970-01-01T00:00:00+00:00</time>
        <ele>2472.0</ele>
      </trkpt>
      <trkpt lat="46.128888" lon="6.812445">
        <time>1970-01-01T00:00:00+00:00</time>
        <ele>2478.0</ele>
      </trkpt>
      <trkpt lat="46.128888" lon="6.812445">
        <time>1970-01-01T00:00:00+00:00</time>
        <ele>2478.0</ele>
      </trkpt>
      <trkpt lat="46.128769" lon="6.812449">
        <time>1970-01-01T00:00:00+00:00</time>
        <ele>2481.0</ele>
      </trkpt>
      <trkpt lat="46.128769" lon="6.812449">
        <time>1970-01-01T00:00:00+00:00</time>
        <ele>2481.0</ele>
      </trkpt>
      <trkpt lat="46.128718" lon="6.81256">
        <time>1970-01-01T00:00:00+00:00</time>
        <ele>2486.0</ele>
      </trkpt>
      <trkpt lat="46.128718" lon="6.81256">
        <time>1970-01-01T00:00:00+00:00</time>
        <ele>2486.0</ele>
      </trkpt>
      <trkpt lat="46.128742" lon="6.81269">
        <time>1970-01-01T00:00:00+00:00</time>
        <ele>2490.0</ele>
      </trkpt>
      <trkpt lat="46.128742" lon="6.81269">
        <time>1970-01-01T00:00:00+00:00</time>
        <ele>2490.0</ele>
      </trkpt>
      <trkpt lat="46.128747" lon="6.812823">
        <time>1970-01-01T00:00:00+00:00</time>
        <ele>2495.0</ele>
      </trkpt>
      <trkpt lat="46.128747" lon="6.812823">
        <time>1970-01-01T00:00:00+00:00</time>
        <ele>2495.0</ele>
      </trkpt>
      <trkpt lat="46.128671" lon="6.812863">
        <time>1970-01-01T00:00:00+00:00</time>
        <ele>2498.0</ele>
      </trkpt>
      <trkpt lat="46.128671" lon="6.812863">
        <time>1970-01-01T00:00:00+00:00</time>
        <ele>2498.0</ele>
      </trkpt>
      <trkpt lat="46.128593" lon="6.812927">
        <time>1970-01-01T00:00:00+00:00</time>
        <ele>2504.0</ele>
      </trkpt>
      <trkpt lat="46.128593" lon="6.812927">
        <time>1970-01-01T00:00:00+00:00</time>
        <ele>2504.0</ele>
      </trkpt>
      <trkpt lat="46.128506" lon="6.812937">
        <time>1970-01-01T00:00:00+00:00</time>
        <ele>2507.0</ele>
      </trkpt>
      <trkpt lat="46.128506" lon="6.812937">
        <time>1970-01-01T00:00:00+00:00</time>
        <ele>2507.0</ele>
      </trkpt>
      <trkpt lat="46.128449" lon="6.813064">
        <time>1970-01-01T00:00:00+00:00</time>
        <ele>2515.0</ele>
      </trkpt>
      <trkpt lat="46.128449" lon="6.813064">
        <time>1970-01-01T00:00:00+00:00</time>
        <ele>2515.0</ele>
      </trkpt>
      <trkpt lat="46.128347" lon="6.813056">
        <time>1970-01-01T00:00:00+00:00</time>
        <ele>2518.0</ele>
      </trkpt>
      <trkpt lat="46.128347" lon="6.813056">
        <time>1970-01-01T00:00:00+00:00</time>
        <ele>2518.0</ele>
      </trkpt>
      <trkpt lat="46.128233" lon="6.813223">
        <time>1970-01-01T00:00:00+00:00</time>
        <ele>2529.0</ele>
      </trkpt>
      <trkpt lat="46.128233" lon="6.813223">
        <time>1970-01-01T00:00:00+00:00</time>
        <ele>2529.0</ele>
      </trkpt>
      <trkpt lat="46.128301" lon="6.813393">
        <time>1970-01-01T00:00:00+00:00</time>
        <ele>2535.0</ele>
      </trkpt>
      <trkpt lat="46.128301" lon="6.813393">
        <time>1970-01-01T00:00:00+00:00</time>
        <ele>2535.0</ele>
      </trkpt>
      <trkpt lat="46.128382" lon="6.813485">
        <time>1970-01-01T00:00:00+00:00</time>
        <ele>2539.0</ele>
      </trkpt>
      <trkpt lat="46.128382" lon="6.813485">
        <time>1970-01-01T00:00:00+00:00</time>
        <ele>2539.0</ele>
      </trkpt>
      <trkpt lat="46.128213" lon="6.813415">
        <time>1970-01-01T00:00:00+00:00</time>
        <ele>2537.0</ele>
      </trkpt>
      <trkpt lat="46.128213" lon="6.813415">
        <time>1970-01-01T00:00:00+00:00</time>
        <ele>2537.0</ele>
      </trkpt>
      <trkpt lat="46.128128" lon="6.813469">
        <time>1970-01-01T00:00:00+00:00</time>
        <ele>2539.0</ele>
      </trkpt>
      <trkpt lat="46.128128" lon="6.813469">
        <time>1970-01-01T00:00:00+00:00</time>
        <ele>2539.0</ele>
      </trkpt>
      <trkpt lat="46.1279761819523" lon="6.813329833456275">
        <time>1970-01-01T00:00:00+00:00</time>
        <ele>2533.0</ele>
      </trkpt>
      <trkpt lat="46.127972" lon="6.813326">
        <time>1970-01-01T00:00:00+00:00</time>
        <ele>2533.0</ele>
      </trkpt>
      <trkpt lat="46.127972" lon="6.813326">
        <time>1970-01-01T00:00:00+00:00</time>
        <ele>2533.0</ele>
      </trkpt>
      <trkpt lat="46.127878" lon="6.813333">
        <time>1970-01-01T00:00:00+00:00</time>
        <ele>2531.0</ele>
      </trkpt>
      <trkpt lat="46.127878" lon="6.813333">
        <time>1970-01-01T00:00:00+00:00</time>
        <ele>2531.0</ele>
      </trkpt>
      <trkpt lat="46.127938" lon="6.813381">
        <time>1970-01-01T00:00:00+00:00</time>
        <ele>2533.0</ele>
      </trkpt>
      <trkpt lat="46.127938" lon="6.813381">
        <time>1970-01-01T00:00:00+00:00</time>
        <ele>2533.0</ele>
      </trkpt>
      <trkpt lat="46.128084" lon="6.813392">
        <time>1970-01-01T00:00:00+00:00</time>
        <ele>2536.0</ele>
      </trkpt>
      <trkpt lat="46.128084" lon="6.813392">
        <time>1970-01-01T00:00:00+00:00</time>
        <ele>2536.0</ele>
      </trkpt>
      <trkpt lat="46.12818" lon="6.813381">
        <time>1970-01-01T00:00:00+00:00</time>
        <ele>2536.0</ele>
      </trkpt>
      <trkpt lat="46.12818" lon="6.813381">
        <time>1970-01-01T00:00:00+00:00</time>
        <ele>2536.0</ele>
      </trkpt>
      <trkpt lat="46.128306" lon="6.813241">
        <time>1970-01-01T00:00:00+00:00</time>
        <ele>2528.0</ele>
      </trkpt>
      <trkpt lat="46.128306" lon="6.813241">
        <time>1970-01-01T00:00:00+00:00</time>
        <ele>2528.0</ele>
      </trkpt>
      <trkpt lat="46.12848160725896" lon="6.813184869825904">
        <time>1970-01-01T00:00:00+00:00</time>
        <ele>2521.0</ele>
      </trkpt>
      <trkpt lat="46.128525" lon="6.813171">
        <time>1970-01-01T00:00:00+00:00</time>
        <ele>2519.0</ele>
      </trkpt>
      <trkpt lat="46.128525" lon="6.813171">
        <time>1970-01-01T00:00:00+00:00</time>
        <ele>2519.0</ele>
      </trkpt>
      <trkpt lat="46.128668" lon="6.813137">
        <time>1970-01-01T00:00:00+00:00</time>
        <ele>2512.0</ele>
      </trkpt>
      <trkpt lat="46.128668" lon="6.813137">
        <time>1970-01-01T00:00:00+00:00</time>
        <ele>2512.0</ele>
      </trkpt>
      <trkpt lat="46.12852843840635" lon="6.812973283515143">
        <time>1970-01-01T00:00:00+00:00</time>
        <ele>2508.0</ele>
      </trkpt>
      <trkpt lat="46.12846" lon="6.812893">
        <time>1970-01-01T00:00:00+00:00</time>
        <ele>2506.0</ele>
      </trkpt>
      <trkpt lat="46.12846" lon="6.812893">
        <time>1970-01-01T00:00:00+00:00</time>
        <ele>2506.0</ele>
      </trkpt>
      <trkpt lat="46.128503" lon="6.812764">
        <time>1970-01-01T00:00:00+00:00</time>
        <ele>2499.0</ele>
      </trkpt>
      <trkpt lat="46.128503" lon="6.812764">
        <time>1970-01-01T00:00:00+00:00</time>
        <ele>2499.0</ele>
      </trkpt>
      <trkpt lat="46.128601" lon="6.812769">
        <time>1970-01-01T00:00:00+00:00</time>
        <ele>2496.0</ele>
      </trkpt>
      <trkpt lat="46.128601" lon="6.812769">
        <time>1970-01-01T00:00:00+00:00</time>
        <ele>2496.0</ele>
      </trkpt>
      <trkpt lat="46.128493" lon="6.812586">
        <time>1970-01-01T00:00:00+00:00</time>
        <ele>2493.0</ele>
      </trkpt>
      <trkpt lat="46.128493" lon="6.812586">
        <time>1970-01-01T00:00:00+00:00</time>
        <ele>2493.0</ele>
      </trkpt>
      <trkpt lat="46.128354" lon="6.812525">
        <time>1970-01-01T00:00:00+00:00</time>
        <ele>2495.0</ele>
      </trkpt>
      <trkpt lat="46.128354" lon="6.812525">
        <time>1970-01-01T00:00:00+00:00</time>
        <ele>2495.0</ele>
      </trkpt>
      <trkpt lat="46.128461" lon="6.812469">
        <time>1970-01-01T00:00:00+00:00</time>
        <ele>2489.0</ele>
      </trkpt>
      <trkpt lat="46.128461" lon="6.812469">
        <time>1970-01-01T00:00:00+00:00</time>
        <ele>2489.0</ele>
      </trkpt>
      <trkpt lat="46.128404" lon="6.812356">
        <time>1970-01-01T00:00:00+00:00</time>
        <ele>2486.0</ele>
      </trkpt>
      <trkpt lat="46.128404" lon="6.812356">
        <time>1970-01-01T00:00:00+00:00</time>
        <ele>2486.0</ele>
      </trkpt>
      <trkpt lat="46.128342" lon="6.812147">
        <time>1970-01-01T00:00:00+00:00</time>
        <ele>2479.0</ele>
      </trkpt>
      <trkpt lat="46.128342" lon="6.812147">
        <time>1970-01-01T00:00:00+00:00</time>
        <ele>2479.0</ele>
      </trkpt>
      <trkpt lat="46.12817610679873" lon="6.812046714279457">
        <time>1970-01-01T00:00:00+00:00</time>
        <ele>2483.0</ele>
      </trkpt>
      <trkpt lat="46.128165" lon="6.81204">
        <time>1970-01-01T00:00:00+00:00</time>
        <ele>2483.0</ele>
      </trkpt>
      <trkpt lat="46.128165" lon="6.81204">
        <time>1970-01-01T00:00:00+00:00</time>
        <ele>2483.0</ele>
      </trkpt>
      <trkpt lat="46.128273" lon="6.812024">
        <time>1970-01-01T00:00:00+00:00</time>
        <ele>2477.0</ele>
      </trkpt>
      <trkpt lat="46.128273" lon="6.812024">
        <time>1970-01-01T00:00:00+00:00</time>
        <ele>2477.0</ele>
      </trkpt>
      <trkpt lat="46.128199" lon="6.811813">
        <time>1970-01-01T00:00:00+00:00</time>
        <ele>2473.0</ele>
      </trkpt>
      <trkpt lat="46.128199" lon="6.811813">
        <time>1970-01-01T00:00:00+00:00</time>
        <ele>2473.0</ele>
      </trkpt>
      <trkpt lat="46.12815292254666" lon="6.811562133865141">
        <time>1970-01-01T00:00:00+00:00</time>
        <ele>2468.0</ele>
      </trkpt>
      <trkpt lat="46.128145" lon="6.811519">
        <time>1970-01-01T00:00:00+00:00</time>
        <ele>2467.0</ele>
      </trkpt>
      <trkpt lat="46.128145" lon="6.811519">
        <time>1970-01-01T00:00:00+00:00</time>
        <ele>2467.0</ele>
      </trkpt>
      <trkpt lat="46.128204" lon="6.811405">
        <time>1970-01-01T00:00:00+00:00</time>
        <ele>2460.0</ele>
      </trkpt>
      <trkpt lat="46.128204" lon="6.811405">
        <time>1970-01-01T00:00:00+00:00</time>
        <ele>2460.0</ele>
      </trkpt>
      <trkpt lat="46.128236" lon="6.811266">
        <time>1970-01-01T00:00:00+00:00</time>
        <ele>2454.0</ele>
      </trkpt>
      <trkpt lat="46.128236" lon="6.811266">
        <time>1970-01-01T00:00:00+00:00</time>
        <ele>2454.0</ele>
      </trkpt>
      <trkpt lat="46.128299" lon="6.811143">
        <time>1970-01-01T00:00:00+00:00</time>
        <ele>2448.0</ele>
      </trkpt>
      <trkpt lat="46.128299" lon="6.811143">
        <time>1970-01-01T00:00:00+00:00</time>
        <ele>2448.0</ele>
      </trkpt>
      <trkpt lat="46.1284418621877" lon="6.81098532247432">
        <time>1970-01-01T00:00:00+00:00</time>
        <ele>2437.0</ele>
      </trkpt>
      <trkpt lat="46.128569" lon="6.810845">
        <time>1970-01-01T00:00:00+00:00</time>
        <ele>2429.0</ele>
      </trkpt>
      <trkpt lat="46.128569" lon="6.810845">
        <time>1970-01-01T00:00:00+00:00</time>
        <ele>2429.0</ele>
      </trkpt>
      <trkpt lat="46.128655" lon="6.810945">
        <time>1970-01-01T00:00:00+00:00</time>
        <ele>2423.0</ele>
      </trkpt>
      <trkpt lat="46.128655" lon="6.810945">
        <time>1970-01-01T00:00:00+00:00</time>
        <ele>2423.0</ele>
      </trkpt>
      <trkpt lat="46.128704" lon="6.811061">
        <time>1970-01-01T00:00:00+00:00</time>
        <ele>2422.0</ele>
      </trkpt>
      <trkpt lat="46.128704" lon="6.811061">
        <time>1970-01-01T00:00:00+00:00</time>
        <ele>2422.0</ele>
      </trkpt>
      <trkpt lat="46.12878422612172" lon="6.811293282608211">
        <time>1970-01-01T00:00:00+00:00</time>
        <ele>2423.0</ele>
      </trkpt>
      <trkpt lat="46.12879" lon="6.81131">
        <time>1970-01-01T00:00:00+00:00</time>
        <ele>2424.0</ele>
      </trkpt>
      <trkpt lat="46.12879" lon="6.81131">
        <time>1970-01-01T00:00:00+00:00</time>
        <ele>2424.0</ele>
      </trkpt>
      <trkpt lat="46.128732" lon="6.811442">
        <time>1970-01-01T00:00:00+00:00</time>
        <ele>2432.0</ele>
      </trkpt>
      <trkpt lat="46.128732" lon="6.811442">
        <time>1970-01-01T00:00:00+00:00</time>
        <ele>2432.0</ele>
      </trkpt>
      <trkpt lat="46.128692" lon="6.811283">
        <time>1970-01-01T00:00:00+00:00</time>
        <ele>2428.0</ele>
      </trkpt>
      <trkpt lat="46.128692" lon="6.811283">
        <time>1970-01-01T00:00:00+00:00</time>
        <ele>2428.0</ele>
      </trkpt>
      <trkpt lat="46.128786" lon="6.811166">
        <time>1970-01-01T00:00:00+00:00</time>
        <ele>2419.0</ele>
      </trkpt>
      <trkpt lat="46.128786" lon="6.811166">
        <time>1970-01-01T00:00:00+00:00</time>
        <ele>2419.0</ele>
      </trkpt>
      <trkpt lat="46.128948867519185" lon="6.811276129465352">
        <time>1970-01-01T00:00:00+00:00</time>
        <ele>2414.0</ele>
      </trkpt>
      <trkpt lat="46.128996" lon="6.811308">
        <time>1970-01-01T00:00:00+00:00</time>
        <ele>2414.0</ele>
      </trkpt>
      <trkpt lat="46.128996" lon="6.811308">
        <time>1970-01-01T00:00:00+00:00</time>
        <ele>2414.0</ele>
      </trkpt>
      <trkpt lat="46.129093" lon="6.811338">
        <time>1970-01-01T00:00:00+00:00</time>
        <ele>2412.0</ele>
      </trkpt>
      <trkpt lat="46.129093" lon="6.811338">
        <time>1970-01-01T00:00:00+00:00</time>
        <ele>2412.0</ele>
      </trkpt>
      <trkpt lat="46.12926937330772" lon="6.811287114791414">
        <time>1970-01-01T00:00:00+00:00</time>
        <ele>2401.0</ele>
      </trkpt>
      <trkpt lat="46.12944574661545" lon="6.811236229582828">
        <time>1970-01-01T00:00:00+00:00</time>
        <ele>2390.0</ele>
      </trkpt>
      <trkpt lat="46.129502" lon="6.81122">
        <time>1970-01-01T00:00:00+00:00</time>
        <ele>2387.0</ele>
      </trkpt>
      <trkpt lat="46.129502" lon="6.81122">
        <time>1970-01-01T00:00:00+00:00</time>
        <ele>2387.0</ele>
      </trkpt>
      <trkpt lat="46.129613" lon="6.811368">
        <time>1970-01-01T00:00:00+00:00</time>
        <ele>2395.0</ele>
      </trkpt>
      <trkpt lat="46.129613" lon="6.811368">
        <time>1970-01-01T00:00:00+00:00</time>
        <ele>2395.0</ele>
      </trkpt>
      <trkpt lat="46.12972" lon="6.811341">
        <time>1970-01-01T00:00:00+00:00</time>
        <ele>2390.0</ele>
      </trkpt>
      <trkpt lat="46.12972" lon="6.811341">
        <time>1970-01-01T00:00:00+00:00</time>
        <ele>2390.0</ele>
      </trkpt>
      <trkpt lat="46.12977" lon="6.811198">
        <time>1970-01-01T00:00:00+00:00</time>
        <ele>2378.0</ele>
      </trkpt>
      <trkpt lat="46.12977" lon="6.811198">
        <time>1970-01-01T00:00:00+00:00</time>
        <ele>2378.0</ele>
      </trkpt>
      <trkpt lat="46.129838" lon="6.811108">
        <time>1970-01-01T00:00:00+00:00</time>
        <ele>2371.0</ele>
      </trkpt>
      <trkpt lat="46.129838" lon="6.811108">
        <time>1970-01-01T00:00:00+00:00</time>
        <ele>2371.0</ele>
      </trkpt>
      <trkpt lat="46.129864" lon="6.810966">
        <time>1970-01-01T00:00:00+00:00</time>
        <ele>2361.0</ele>
      </trkpt>
      <trkpt lat="46.129864" lon="6.810966">
        <time>1970-01-01T00:00:00+00:00</time>
        <ele>2361.0</ele>
      </trkpt>
      <trkpt lat="46.12991303293734" lon="6.810716295226527">
        <time>1970-01-01T00:00:00+00:00</time>
        <ele>2345.0</ele>
      </trkpt>
      <trkpt lat="46.129918" lon="6.810691">
        <time>1970-01-01T00:00:00+00:00</time>
        <ele>2344.0</ele>
      </trkpt>
      <trkpt lat="46.129918" lon="6.810691">
        <time>1970-01-01T00:00:00+00:00</time>
        <ele>2344.0</ele>
      </trkpt>
      <trkpt lat="46.129936" lon="6.810558">
        <time>1970-01-01T00:00:00+00:00</time>
        <ele>2338.0</ele>
      </trkpt>
      <trkpt lat="46.129936" lon="6.810558">
        <time>1970-01-01T00:00:00+00:00</time>
        <ele>2338.0</ele>
      </trkpt>
      <trkpt lat="46.129999" lon="6.810431">
        <time>1970-01-01T00:00:00+00:00</time>
        <ele>2330.0</ele>
      </trkpt>
      <trkpt lat="46.129999" lon="6.810431">
        <time>1970-01-01T00:00:00+00:00</time>
        <ele>2330.0</ele>
      </trkpt>
      <trkpt lat="46.130089" lon="6.810384">
        <time>1970-01-01T00:00:00+00:00</time>
        <ele>2325.0</ele>
      </trkpt>
      <trkpt lat="46.130089" lon="6.810384">
        <time>1970-01-01T00:00:00+00:00</time>
        <ele>2325.0</ele>
      </trkpt>
      <trkpt lat="46.130166" lon="6.810179">
        <time>1970-01-01T00:00:00+00:00</time>
        <ele>2317.0</ele>
      </trkpt>
      <trkpt lat="46.130166" lon="6.810179">
        <time>1970-01-01T00:00:00+00:00</time>
        <ele>2317.0</ele>
      </trkpt>
      <trkpt lat="46.130263" lon="6.810159">
        <time>1970-01-01T00:00:00+00:00</time>
        <ele>2315.0</ele>
      </trkpt>
      <trkpt lat="46.130263" lon="6.810159">
        <time>1970-01-01T00:00:00+00:00</time>
        <ele>2315.0</ele>
      </trkpt>
      <trkpt lat="46.130361609067734" lon="6.809941943353867">
        <time>1970-01-01T00:00:00+00:00</time>
        <ele>2309.0</ele>
      </trkpt>
      <trkpt lat="46.13046021813546" lon="6.809724886707735">
        <time>1970-01-01T00:00:00+00:00</time>
        <ele>2303.0</ele>
      </trkpt>
      <trkpt lat="46.130558827203195" lon="6.809507830061603">
        <time>1970-01-01T00:00:00+00:00</time>
        <ele>2299.0</ele>
      </trkpt>
      <trkpt lat="46.13065743627092" lon="6.809290773415471">
        <time>1970-01-01T00:00:00+00:00</time>
        <ele>2294.0</ele>
      </trkpt>
      <trkpt lat="46.13075604533866" lon="6.809073716769339">
        <time>1970-01-01T00:00:00+00:00</time>
        <ele>2288.0</ele>
      </trkpt>
      <trkpt lat="46.13077" lon="6.809043">
        <time>1970-01-01T00:00:00+00:00</time>
        <ele>2287.0</ele>
      </trkpt>
      <trkpt lat="46.13077" lon="6.809043">
        <time>1970-01-01T00:00:00+00:00</time>
        <ele>2287.0</ele>
      </trkpt>
      <trkpt lat="46.130805" lon="6.808931">
        <time>1970-01-01T00:00:00+00:00</time>
        <ele>2283.0</ele>
      </trkpt>
      <trkpt lat="46.130805" lon="6.808931">
        <time>1970-01-01T00:00:00+00:00</time>
        <ele>2283.0</ele>
      </trkpt>
      <trkpt lat="46.130814" lon="6.80884">
        <time>1970-01-01T00:00:00+00:00</time>
        <ele>2280.0</ele>
      </trkpt>
      <trkpt lat="46.130814" lon="6.80884">
        <time>1970-01-01T00:00:00+00:00</time>
        <ele>2280.0</ele>
      </trkpt>
      <trkpt lat="46.130783" lon="6.80867">
        <time>1970-01-01T00:00:00+00:00</time>
        <ele>2274.0</ele>
      </trkpt>
      <trkpt lat="46.130783" lon="6.80867">
        <time>1970-01-01T00:00:00+00:00</time>
        <ele>2274.0</ele>
      </trkpt>
      <trkpt lat="46.130803" lon="6.808544">
        <time>1970-01-01T00:00:00+00:00</time>
        <ele>2270.0</ele>
      </trkpt>
      <trkpt lat="46.130803" lon="6.808544">
        <time>1970-01-01T00:00:00+00:00</time>
        <ele>2270.0</ele>
      </trkpt>
      <trkpt lat="46.130956727844556" lon="6.808409262065651">
        <time>1970-01-01T00:00:00+00:00</time>
        <ele>2263.0</ele>
      </trkpt>
      <trkpt lat="46.130973" lon="6.808395">
        <time>1970-01-01T00:00:00+00:00</time>
        <ele>2263.0</ele>
      </trkpt>
      <trkpt lat="46.130973" lon="6.808395">
        <time>1970-01-01T00:00:00+00:00</time>
        <ele>2263.0</ele>
      </trkpt>
      <trkpt lat="46.13103" lon="6.808419">
        <time>1970-01-01T00:00:00+00:00</time>
        <ele>2263.0</ele>
      </trkpt>
      <trkpt lat="46.13103" lon="6.808419">
        <time>1970-01-01T00:00:00+00:00</time>
        <ele>2263.0</ele>
      </trkpt>
      <trkpt lat="46.131088" lon="6.808405">
        <time>1970-01-01T00:00:00+00:00</time>
        <ele>2263.0</ele>
      </trkpt>
      <trkpt lat="46.131088" lon="6.808405">
        <time>1970-01-01T00:00:00+00:00</time>
        <ele>2263.0</ele>
      </trkpt>
      <trkpt lat="46.131123" lon="6.808352">
        <time>1970-01-01T00:00:00+00:00</time>
        <ele>2261.0</ele>
      </trkpt>
      <trkpt lat="46.131123" lon="6.808352">
        <time>1970-01-01T00:00:00+00:00</time>
        <ele>2261.0</ele>
      </trkpt>
      <trkpt lat="46.131152" lon="6.808125">
        <time>1970-01-01T00:00:00+00:00</time>
        <ele>2253.0</ele>
      </trkpt>
      <trkpt lat="46.131152" lon="6.808125">
        <time>1970-01-01T00:00:00+00:00</time>
        <ele>2253.0</ele>
      </trkpt>
      <trkpt lat="46.131114" lon="6.808027">
        <time>1970-01-01T00:00:00+00:00</time>
        <ele>2251.0</ele>
      </trkpt>
      <trkpt lat="46.131114" lon="6.808027">
        <time>1970-01-01T00:00:00+00:00</time>
        <ele>2251.0</ele>
      </trkpt>
      <trkpt lat="46.13111" lon="6.807948">
        <time>1970-01-01T00:00:00+00:00</time>
        <ele>2249.0</ele>
      </trkpt>
      <trkpt lat="46.13111" lon="6.807948">
        <time>1970-01-01T00:00:00+00:00</time>
        <ele>2249.0</ele>
      </trkpt>
      <trkpt lat="46.13117463691386" lon="6.807705797311266">
        <time>1970-01-01T00:00:00+00:00</time>
        <ele>2242.0</ele>
      </trkpt>
      <trkpt lat="46.131197" lon="6.807622">
        <time>1970-01-01T00:00:00+00:00</time>
        <ele>2238.0</ele>
      </trkpt>
      <trkpt lat="46.131197" lon="6.807622">
        <time>1970-01-01T00:00:00+00:00</time>
        <ele>2238.0</ele>
      </trkpt>
      <trkpt lat="46.131261" lon="6.807548">
        <time>1970-01-01T00:00:00+00:00</time>
        <ele>2235.0</ele>
      </trkpt>
      <trkpt lat="46.131261" lon="6.807548">
        <time>1970-01-01T00:00:00+00:00</time>
        <ele>2235.0</ele>
      </trkpt>
      <trkpt lat="46.13127" lon="6.807462">
        <time>1970-01-01T00:00:00+00:00</time>
        <ele>2232.0</ele>
      </trkpt>
      <trkpt lat="46.13127" lon="6.807462">
        <time>1970-01-01T00:00:00+00:00</time>
        <ele>2232.0</ele>
      </trkpt>
      <trkpt lat="46.13119" lon="6.80738">
        <time>1970-01-01T00:00:00+00:00</time>
        <ele>2230.0</ele>
      </trkpt>
      <trkpt lat="46.13119" lon="6.80738">
        <time>1970-01-01T00:00:00+00:00</time>
        <ele>2230.0</ele>
      </trkpt>
      <trkpt lat="46.131176" lon="6.807295">
        <time>1970-01-01T00:00:00+00:00</time>
        <ele>2228.0</ele>
      </trkpt>
      <trkpt lat="46.131176" lon="6.807295">
        <time>1970-01-01T00:00:00+00:00</time>
        <ele>2228.0</ele>
      </trkpt>
      <trkpt lat="46.13127193018921" lon="6.807075455070333">
        <time>1970-01-01T00:00:00+00:00</time>
        <ele>2224.0</ele>
      </trkpt>
      <trkpt lat="46.131325" lon="6.806954">
        <time>1970-01-01T00:00:00+00:00</time>
        <ele>2222.0</ele>
      </trkpt>
      <trkpt lat="46.131325" lon="6.806954">
        <time>1970-01-01T00:00:00+00:00</time>
        <ele>2222.0</ele>
      </trkpt>
      <trkpt lat="46.131303" lon="6.80679">
        <time>1970-01-01T00:00:00+00:00</time>
        <ele>2218.0</ele>
      </trkpt>
      <trkpt lat="46.131303" lon="6.80679">
        <time>1970-01-01T00:00:00+00:00</time>
        <ele>2218.0</ele>
      </trkpt>
      <trkpt lat="46.13121" lon="6.806683">
        <time>1970-01-01T00:00:00+00:00</time>
        <ele>2215.0</ele>
      </trkpt>
      <trkpt lat="46.13121" lon="6.806683">
        <time>1970-01-01T00:00:00+00:00</time>
        <ele>2215.0</ele>
      </trkpt>
      <trkpt lat="46.131085" lon="6.806637">
        <time>1970-01-01T00:00:00+00:00</time>
        <ele>2213.0</ele>
      </trkpt>
      <trkpt lat="46.131085" lon="6.806637">
        <time>1970-01-01T00:00:00+00:00</time>
        <ele>2213.0</ele>
      </trkpt>
      <trkpt lat="46.130906323566094" lon="6.806666779405649">
        <time>1970-01-01T00:00:00+00:00</time>
        <ele>2212.0</ele>
      </trkpt>
      <trkpt lat="46.130869" lon="6.806673">
        <time>1970-01-01T00:00:00+00:00</time>
        <ele>2212.0</ele>
      </trkpt>
      <trkpt lat="46.130869" lon="6.806673">
        <time>1970-01-01T00:00:00+00:00</time>
        <ele>2212.0</ele>
      </trkpt>
      <trkpt lat="46.130763" lon="6.80664">
        <time>1970-01-01T00:00:00+00:00</time>
        <ele>2210.0</ele>
      </trkpt>
      <trkpt lat="46.130763" lon="6.80664">
        <time>1970-01-01T00:00:00+00:00</time>
        <ele>2210.0</ele>
      </trkpt>
      <trkpt lat="46.130714" lon="6.806525">
        <time>1970-01-01T00:00:00+00:00</time>
        <ele>2207.0</ele>
      </trkpt>
      <trkpt lat="46.130714" lon="6.806525">
        <time>1970-01-01T00:00:00+00:00</time>
        <ele>2207.0</ele>
      </trkpt>
      <trkpt lat="46.13054803822664" lon="6.806424946490702">
        <time>1970-01-01T00:00:00+00:00</time>
        <ele>2203.0</ele>
      </trkpt>
      <trkpt lat="46.130505" lon="6.806399">
        <time>1970-01-01T00:00:00+00:00</time>
        <ele>2201.0</ele>
      </trkpt>
      <trkpt lat="46.130505" lon="6.806399">
        <time>1970-01-01T00:00:00+00:00</time>
        <ele>2201.0</ele>
      </trkpt>
      <trkpt lat="46.130418" lon="6.806294">
        <time>1970-01-01T00:00:00+00:00</time>
        <ele>2198.0</ele>
      </trkpt>
      <trkpt lat="46.130418" lon="6.806294">
        <time>1970-01-01T00:00:00+00:00</time>
        <ele>2198.0</ele>
      </trkpt>
      <trkpt lat="46.130422397622254" lon="6.806034540287142">
        <time>1970-01-01T00:00:00+00:00</time>
        <ele>2194.0</ele>
      </trkpt>
      <trkpt lat="46.130423" lon="6.805999">
        <time>1970-01-01T00:00:00+00:00</time>
        <ele>2193.0</ele>
      </trkpt>
      <trkpt lat="46.130423" lon="6.805999">
        <time>1970-01-01T00:00:00+00:00</time>
        <ele>2193.0</ele>
      </trkpt>
      <trkpt lat="46.130405" lon="6.805863">
        <time>1970-01-01T00:00:00+00:00</time>
        <ele>2190.0</ele>
      </trkpt>
      <trkpt lat="46.130405" lon="6.805863">
        <time>1970-01-01T00:00:00+00:00</time>
        <ele>2190.0</ele>
      </trkpt>
      <trkpt lat="46.130399" lon="6.805667">
        <time>1970-01-01T00:00:00+00:00</time>
        <ele>2187.0</ele>
      </trkpt>
      <trkpt lat="46.130399" lon="6.805667">
        <time>1970-01-01T00:00:00+00:00</time>
        <ele>2187.0</ele>
      </trkpt>
      <trkpt lat="46.13039466117624" lon="6.805407538339054">
        <time>1970-01-01T00:00:00+00:00</time>
        <ele>2183.0</ele>
      </trkpt>
      <trkpt lat="46.130394" lon="6.805368">
        <time>1970-01-01T00:00:00+00:00</time>
        <ele>2183.0</ele>
      </trkpt>
      <trkpt lat="46.130394" lon="6.805368">
        <time>1970-01-01T00:00:00+00:00</time>
        <ele>2183.0</ele>
      </trkpt>
      <trkpt lat="46.130336" lon="6.805239">
        <time>1970-01-01T00:00:00+00:00</time>
        <ele>2178.0</ele>
      </trkpt>
      <trkpt lat="46.130336" lon="6.805239">
        <time>1970-01-01T00:00:00+00:00</time>
        <ele>2178.0</ele>
      </trkpt>
      <trkpt lat="46.130202" lon="6.80533">
        <time>1970-01-01T00:00:00+00:00</time>
        <ele>2178.0</ele>
      </trkpt>
      <trkpt lat="46.130202" lon="6.80533">
        <time>1970-01-01T00:00:00+00:00</time>
        <ele>2178.0</ele>
      </trkpt>
      <trkpt lat="46.130099" lon="6.805317">
        <time>1970-01-01T00:00:00+00:00</time>
        <ele>2176.0</ele>
      </trkpt>
      <trkpt lat="46.130099" lon="6.805317">
        <time>1970-01-01T00:00:00+00:00</time>
        <ele>2176.0</ele>
      </trkpt>
      <trkpt lat="46.13006" lon="6.805179">
        <time>1970-01-01T00:00:00+00:00</time>
        <ele>2173.0</ele>
      </trkpt>
      <trkpt lat="46.13006" lon="6.805179">
        <time>1970-01-01T00:00:00+00:00</time>
        <ele>2173.0</ele>
      </trkpt>
      <trkpt lat="46.130135" lon="6.805068">
        <time>1970-01-01T00:00:00+00:00</time>
        <ele>2170.0</ele>
      </trkpt>
      <trkpt lat="46.130135" lon="6.805068">
        <time>1970-01-01T00:00:00+00:00</time>
        <ele>2170.0</ele>
      </trkpt>
      <trkpt lat="46.130198" lon="6.804942">
        <time>1970-01-01T00:00:00+00:00</time>
        <ele>2167.0</ele>
      </trkpt>
      <trkpt lat="46.130198" lon="6.804942">
        <time>1970-01-01T00:00:00+00:00</time>
        <ele>2167.0</ele>
      </trkpt>
      <trkpt lat="46.13033553905457" lon="6.804774752509637">
        <time>1970-01-01T00:00:00+00:00</time>
        <ele>2165.0</ele>
      </trkpt>
      <trkpt lat="46.130448" lon="6.804638">
        <time>1970-01-01T00:00:00+00:00</time>
        <ele>2164.0</ele>
      </trkpt>
      <trkpt lat="46.130448" lon="6.804638">
        <time>1970-01-01T00:00:00+00:00</time>
        <ele>2164.0</ele>
      </trkpt>
      <trkpt lat="46.130413" lon="6.804439">
        <time>1970-01-01T00:00:00+00:00</time>
        <ele>2157.0</ele>
      </trkpt>
      <trkpt lat="46.130413" lon="6.804439">
        <time>1970-01-01T00:00:00+00:00</time>
        <ele>2157.0</ele>
      </trkpt>
      <trkpt lat="46.130325" lon="6.804373">
        <time>1970-01-01T00:00:00+00:00</time>
        <ele>2155.0</ele>
      </trkpt>
      <trkpt lat="46.130325" lon="6.804373">
        <time>1970-01-01T00:00:00+00:00</time>
        <ele>2155.0</ele>
      </trkpt>
      <trkpt lat="46.130205" lon="6.804215">
        <time>1970-01-01T00:00:00+00:00</time>
        <ele>2152.0</ele>
      </trkpt>
      <trkpt lat="46.130205" lon="6.804215">
        <time>1970-01-01T00:00:00+00:00</time>
        <ele>2152.0</ele>
      </trkpt>
      <trkpt lat="46.130161" lon="6.804098">
        <time>1970-01-01T00:00:00+00:00</time>
        <ele>2150.0</ele>
      </trkpt>
      <trkpt lat="46.130161" lon="6.804098">
        <time>1970-01-01T00:00:00+00:00</time>
        <ele>2150.0</ele>
      </trkpt>
      <trkpt lat="46.130058" lon="6.803994">
        <time>1970-01-01T00:00:00+00:00</time>
        <ele>2149.0</ele>
      </trkpt>
      <trkpt lat="46.130058" lon="6.803994">
        <time>1970-01-01T00:00:00+00:00</time>
        <ele>2149.0</ele>
      </trkpt>
      <trkpt lat="46.129938" lon="6.80396">
        <time>1970-01-01T00:00:00+00:00</time>
        <ele>2151.0</ele>
      </trkpt>
      <trkpt lat="46.129938" lon="6.80396">
        <time>1970-01-01T00:00:00+00:00</time>
        <ele>2151.0</ele>
      </trkpt>
      <trkpt lat="46.129844" lon="6.803847">
        <time>1970-01-01T00:00:00+00:00</time>
        <ele>2150.0</ele>
      </trkpt>
      <trkpt lat="46.129844" lon="6.803847">
        <time>1970-01-01T00:00:00+00:00</time>
        <ele>2150.0</ele>
      </trkpt>
      <trkpt lat="46.129801" lon="6.803715">
        <time>1970-01-01T00:00:00+00:00</time>
        <ele>2147.0</ele>
      </trkpt>
      <trkpt lat="46.129801" lon="6.803715">
        <time>1970-01-01T00:00:00+00:00</time>
        <ele>2147.0</ele>
      </trkpt>
      <trkpt lat="46.129762" lon="6.803578">
        <time>1970-01-01T00:00:00+00:00</time>
        <ele>2143.0</ele>
      </trkpt>
      <trkpt lat="46.129762" lon="6.803578">
        <time>1970-01-01T00:00:00+00:00</time>
        <ele>2143.0</ele>
      </trkpt>
      <trkpt lat="46.129666" lon="6.803569">
        <time>1970-01-01T00:00:00+00:00</time>
        <ele>2142.0</ele>
      </trkpt>
      <trkpt lat="46.129666" lon="6.803569">
        <time>1970-01-01T00:00:00+00:00</time>
        <ele>2142.0</ele>
      </trkpt>
      <trkpt lat="46.1295176399355" lon="6.803422270265883">
        <time>1970-01-01T00:00:00+00:00</time>
        <ele>2134.0</ele>
      </trkpt>
      <trkpt lat="46.129484" lon="6.803389">
        <time>1970-01-01T00:00:00+00:00</time>
        <ele>2133.0</ele>
      </trkpt>
      <trkpt lat="46.129484" lon="6.803389">
        <time>1970-01-01T00:00:00+00:00</time>
        <ele>2133.0</ele>
      </trkpt>
      <trkpt lat="46.129464" lon="6.803211">
        <time>1970-01-01T00:00:00+00:00</time>
        <ele>2128.0</ele>
      </trkpt>
      <trkpt lat="46.129464" lon="6.803211">
        <time>1970-01-01T00:00:00+00:00</time>
        <ele>2128.0</ele>
      </trkpt>
      <trkpt lat="46.12953739604832" lon="6.802974058409216">
        <time>1970-01-01T00:00:00+00:00</time>
        <ele>2123.0</ele>
      </trkpt>
      <trkpt lat="46.129556" lon="6.802914">
        <time>1970-01-01T00:00:00+00:00</time>
        <ele>2122.0</ele>
      </trkpt>
      <trkpt lat="46.129556" lon="6.802914">
        <time>1970-01-01T00:00:00+00:00</time>
        <ele>2122.0</ele>
      </trkpt>
      <trkpt lat="46.129457" lon="6.802802">
        <time>1970-01-01T00:00:00+00:00</time>
        <ele>2116.0</ele>
      </trkpt>
      <trkpt lat="46.129457" lon="6.802802">
        <time>1970-01-01T00:00:00+00:00</time>
        <ele>2116.0</ele>
      </trkpt>
      <trkpt lat="46.129365" lon="6.802807">
        <time>1970-01-01T00:00:00+00:00</time>
        <ele>2114.0</ele>
      </trkpt>
      <trkpt lat="46.129365" lon="6.802807">
        <time>1970-01-01T00:00:00+00:00</time>
        <ele>2114.0</ele>
      </trkpt>
      <trkpt lat="46.12934" lon="6.802663">
        <time>1970-01-01T00:00:00+00:00</time>
        <ele>2109.0</ele>
      </trkpt>
      <trkpt lat="46.12934" lon="6.802663">
        <time>1970-01-01T00:00:00+00:00</time>
        <ele>2109.0</ele>
      </trkpt>
      <trkpt lat="46.129262" lon="6.802595">
        <time>1970-01-01T00:00:00+00:00</time>
        <ele>2106.0</ele>
      </trkpt>
      <trkpt lat="46.129262" lon="6.802595">
        <time>1970-01-01T00:00:00+00:00</time>
        <ele>2106.0</ele>
      </trkpt>
      <trkpt lat="46.129287" lon="6.80244">
        <time>1970-01-01T00:00:00+00:00</time>
        <ele>2101.0</ele>
      </trkpt>
      <trkpt lat="46.129287" lon="6.80244">
        <time>1970-01-01T00:00:00+00:00</time>
        <ele>2101.0</ele>
      </trkpt>
      <trkpt lat="46.129192" lon="6.802378">
        <time>1970-01-01T00:00:00+00:00</time>
        <ele>2099.0</ele>
      </trkpt>
      <trkpt lat="46.129192" lon="6.802378">
        <time>1970-01-01T00:00:00+00:00</time>
        <ele>2099.0</ele>
      </trkpt>
      <trkpt lat="46.129103" lon="6.802402">
        <time>1970-01-01T00:00:00+00:00</time>
        <ele>2098.0</ele>
      </trkpt>
      <trkpt lat="46.129103" lon="6.802402">
        <time>1970-01-01T00:00:00+00:00</time>
        <ele>2098.0</ele>
      </trkpt>
      <trkpt lat="46.128974" lon="6.802351">
        <time>1970-01-01T00:00:00+00:00</time>
        <ele>2093.0</ele>
      </trkpt>
      <trkpt lat="46.128974" lon="6.802351">
        <time>1970-01-01T00:00:00+00:00</time>
        <ele>2093.0</ele>
      </trkpt>
      <trkpt lat="46.12880047772487" lon="6.80228269032608">
        <time>1970-01-01T00:00:00+00:00</time>
        <ele>2088.0</ele>
      </trkpt>
      <trkpt lat="46.128753" lon="6.802264">
        <time>1970-01-01T00:00:00+00:00</time>
        <ele>2088.0</ele>
      </trkpt>
      <trkpt lat="46.128753" lon="6.802264">
        <time>1970-01-01T00:00:00+00:00</time>
        <ele>2088.0</ele>
      </trkpt>
      <trkpt lat="46.128666" lon="6.802139">
        <time>1970-01-01T00:00:00+00:00</time>
        <ele>2084.0</ele>
      </trkpt>
      <trkpt lat="46.128666" lon="6.802139">
        <time>1970-01-01T00:00:00+00:00</time>
        <ele>2084.0</ele>
      </trkpt>
      <trkpt lat="46.128604" lon="6.80199">
        <time>1970-01-01T00:00:00+00:00</time>
        <ele>2078.0</ele>
      </trkpt>
      <trkpt lat="46.128604" lon="6.80199">
        <time>1970-01-01T00:00:00+00:00</time>
        <ele>2078.0</ele>
      </trkpt>
      <trkpt lat="46.128516" lon="6.801874">
        <time>1970-01-01T00:00:00+00:00</time>
        <ele>2076.0</ele>
      </trkpt>
      <trkpt lat="46.128516" lon="6.801874">
        <time>1970-01-01T00:00:00+00:00</time>
        <ele>2076.0</ele>
      </trkpt>
      <trkpt lat="46.1284014538581" lon="6.801673906739469">
        <time>1970-01-01T00:00:00+00:00</time>
        <ele>2073.0</ele>
      </trkpt>
      <trkpt lat="46.1282869077162" lon="6.801473813478939">
        <time>1970-01-01T00:00:00+00:00</time>
        <ele>2071.0</ele>
      </trkpt>
      <trkpt lat="46.128279" lon="6.80146">
        <time>1970-01-01T00:00:00+00:00</time>
        <ele>2071.0</ele>
      </trkpt>
      <trkpt lat="46.128279" lon="6.80146">
        <time>1970-01-01T00:00:00+00:00</time>
        <ele>2071.0</ele>
      </trkpt>
      <trkpt lat="46.12827984261156" lon="6.801200475637647">
        <time>1970-01-01T00:00:00+00:00</time>
        <ele>2064.0</ele>
      </trkpt>
      <trkpt lat="46.12828" lon="6.801152">
        <time>1970-01-01T00:00:00+00:00</time>
        <ele>2062.0</ele>
      </trkpt>
      <trkpt lat="46.12828" lon="6.801152">
        <time>1970-01-01T00:00:00+00:00</time>
        <ele>2062.0</ele>
      </trkpt>
      <trkpt lat="46.128337870558745" lon="6.800906272704421">
        <time>1970-01-01T00:00:00+00:00</time>
        <ele>2055.0</ele>
      </trkpt>
      <trkpt lat="46.128345" lon="6.800876">
        <time>1970-01-01T00:00:00+00:00</time>
        <ele>2055.0</ele>
      </trkpt>
      <trkpt lat="46.128345" lon="6.800876">
        <time>1970-01-01T00:00:00+00:00</time>
        <ele>2055.0</ele>
      </trkpt>
      <trkpt lat="46.128313438175944" lon="6.800620499519534">
        <time>1970-01-01T00:00:00+00:00</time>
        <ele>2052.0</ele>
      </trkpt>
      <trkpt lat="46.128282" lon="6.800366">
        <time>1970-01-01T00:00:00+00:00</time>
        <ele>2050.0</ele>
      </trkpt>
      <trkpt lat="46.128282" lon="6.800366">
        <time>1970-01-01T00:00:00+00:00</time>
        <ele>2050.0</ele>
      </trkpt>
      <trkpt lat="46.128202929521336" lon="6.800132896121355">
        <time>1970-01-01T00:00:00+00:00</time>
        <ele>2052.0</ele>
      </trkpt>
      <trkpt lat="46.128128" lon="6.799912">
        <time>1970-01-01T00:00:00+00:00</time>
        <ele>2050.0</ele>
      </trkpt>
      <trkpt lat="46.128128" lon="6.799912">
        <time>1970-01-01T00:00:00+00:00</time>
        <ele>2050.0</ele>
      </trkpt>
      <trkpt lat="46.128109728525224" lon="6.79965381611732">
        <time>1970-01-01T00:00:00+00:00</time>
        <ele>2042.0</ele>
      </trkpt>
      <trkpt lat="46.128105" lon="6.799587">
        <time>1970-01-01T00:00:00+00:00</time>
        <ele>2041.0</ele>
      </trkpt>
      <trkpt lat="46.128105" lon="6.799587">
        <time>1970-01-01T00:00:00+00:00</time>
        <ele>2041.0</ele>
      </trkpt>
      <trkpt lat="46.128063" lon="6.799444">
        <time>1970-01-01T00:00:00+00:00</time>
        <ele>2039.0</ele>
      </trkpt>
      <trkpt lat="46.128063" lon="6.799444">
        <time>1970-01-01T00:00:00+00:00</time>
        <ele>2039.0</ele>
      </trkpt>
      <trkpt lat="46.1280695383533" lon="6.79918464531919">
        <time>1970-01-01T00:00:00+00:00</time>
        <ele>2031.0</ele>
      </trkpt>
      <trkpt lat="46.128072" lon="6.799087">
        <time>1970-01-01T00:00:00+00:00</time>
        <ele>2029.0</ele>
      </trkpt>
      <trkpt lat="46.128072" lon="6.799087">
        <time>1970-01-01T00:00:00+00:00</time>
        <ele>2029.0</ele>
      </trkpt>
      <trkpt lat="46.128103" lon="6.798956">
        <time>1970-01-01T00:00:00+00:00</time>
        <ele>2025.0</ele>
      </trkpt>
      <trkpt lat="46.128103" lon="6.798956">
        <time>1970-01-01T00:00:00+00:00</time>
        <ele>2025.0</ele>
      </trkpt>
      <trkpt lat="46.128086" lon="6.798816">
        <time>1970-01-01T00:00:00+00:00</time>
        <ele>2022.0</ele>
      </trkpt>
      <trkpt lat="46.128086" lon="6.798816">
        <time>1970-01-01T00:00:00+00:00</time>
        <ele>2022.0</ele>
      </trkpt>
      <trkpt lat="46.127954532737654" lon="6.798638884382673">
        <time>1970-01-01T00:00:00+00:00</time>
        <ele>2024.0</ele>
      </trkpt>
      <trkpt lat="46.127942" lon="6.798622">
        <time>1970-01-01T00:00:00+00:00</time>
        <ele>2024.0</ele>
      </trkpt>
      <trkpt lat="46.127942" lon="6.798622">
        <time>1970-01-01T00:00:00+00:00</time>
        <ele>2024.0</ele>
      </trkpt>
      <trkpt lat="46.127853" lon="6.7985">
        <time>1970-01-01T00:00:00+00:00</time>
        <ele>2027.0</ele>
      </trkpt>
      <trkpt lat="46.127853" lon="6.7985">
        <time>1970-01-01T00:00:00+00:00</time>
        <ele>2027.0</ele>
      </trkpt>
      <trkpt lat="46.127775" lon="6.798373">
        <time>1970-01-01T00:00:00+00:00</time>
        <ele>2029.0</ele>
      </trkpt>
      <trkpt lat="46.127775" lon="6.798373">
        <time>1970-01-01T00:00:00+00:00</time>
        <ele>2029.0</ele>
      </trkpt>
      <trkpt lat="46.127758" lon="6.798185">
        <time>1970-01-01T00:00:00+00:00</time>
        <ele>2024.0</ele>
      </trkpt>
      <trkpt lat="46.127758" lon="6.798185">
        <time>1970-01-01T00:00:00+00:00</time>
        <ele>2024.0</ele>
      </trkpt>
      <trkpt lat="46.12766218995627" lon="6.797965359994078">
        <time>1970-01-01T00:00:00+00:00</time>
        <ele>2025.0</ele>
      </trkpt>
      <trkpt lat="46.127652" lon="6.797942">
        <time>1970-01-01T00:00:00+00:00</time>
        <ele>2024.0</ele>
      </trkpt>
      <trkpt lat="46.127652" lon="6.797942">
        <time>1970-01-01T00:00:00+00:00</time>
        <ele>2024.0</ele>
      </trkpt>
      <trkpt lat="46.12761539348766" lon="6.797687907737883">
        <time>1970-01-01T00:00:00+00:00</time>
        <ele>2019.0</ele>
      </trkpt>
      <trkpt lat="46.12757878697532" lon="6.797433815475767">
        <time>1970-01-01T00:00:00+00:00</time>
        <ele>2015.0</ele>
      </trkpt>
      <trkpt lat="46.127567" lon="6.797352">
        <time>1970-01-01T00:00:00+00:00</time>
        <ele>2014.0</ele>
      </trkpt>
      <trkpt lat="46.127567" lon="6.797352">
        <time>1970-01-01T00:00:00+00:00</time>
        <ele>2014.0</ele>
      </trkpt>
      <trkpt lat="46.127529085548474" lon="6.7970983077140765">
        <time>1970-01-01T00:00:00+00:00</time>
        <ele>2012.0</ele>
      </trkpt>
      <trkpt lat="46.127499" lon="6.796897">
        <time>1970-01-01T00:00:00+00:00</time>
        <ele>2011.0</ele>
      </trkpt>
      <trkpt lat="46.127499" lon="6.796897">
        <time>1970-01-01T00:00:00+00:00</time>
        <ele>2011.0</ele>
      </trkpt>
      <trkpt lat="46.127494" lon="6.796738">
        <time>1970-01-01T00:00:00+00:00</time>
        <ele>2007.0</ele>
      </trkpt>
      <trkpt lat="46.127494" lon="6.796738">
        <time>1970-01-01T00:00:00+00:00</time>
        <ele>2007.0</ele>
      </trkpt>
      <trkpt lat="46.127537" lon="6.796597">
        <time>1970-01-01T00:00:00+00:00</time>
        <ele>2001.0</ele>
      </trkpt>
      <trkpt lat="46.127537" lon="6.796597">
        <time>1970-01-01T00:00:00+00:00</time>
        <ele>2001.0</ele>
      </trkpt>
      <trkpt lat="46.127561" lon="6.79645">
        <time>1970-01-01T00:00:00+00:00</time>
        <ele>1997.0</ele>
      </trkpt>
      <trkpt lat="46.127561" lon="6.79645">
        <time>1970-01-01T00:00:00+00:00</time>
        <ele>1997.0</ele>
      </trkpt>
      <trkpt lat="46.127617" lon="6.796279">
        <time>1970-01-01T00:00:00+00:00</time>
        <ele>1993.0</ele>
      </trkpt>
      <trkpt lat="46.127617" lon="6.796279">
        <time>1970-01-01T00:00:00+00:00</time>
        <ele>1993.0</ele>
      </trkpt>
      <trkpt lat="46.127593" lon="6.796188">
        <time>1970-01-01T00:00:00+00:00</time>
        <ele>1994.0</ele>
      </trkpt>
      <trkpt lat="46.127593" lon="6.796188">
        <time>1970-01-01T00:00:00+00:00</time>
        <ele>1994.0</ele>
      </trkpt>
      <trkpt lat="46.127649" lon="6.796268">
        <time>1970-01-01T00:00:00+00:00</time>
        <ele>1992.0</ele>
      </trkpt>
      <trkpt lat="46.127649" lon="6.796268">
        <time>1970-01-01T00:00:00+00:00</time>
        <ele>1992.0</ele>
      </trkpt>
      <trkpt lat="46.127587" lon="6.79626">
        <time>1970-01-01T00:00:00+00:00</time>
        <ele>1995.0</ele>
      </trkpt>
      <trkpt lat="46.127587" lon="6.79626">
        <time>1970-01-01T00:00:00+00:00</time>
        <ele>1995.0</ele>
      </trkpt>
      <trkpt lat="46.127596" lon="6.796196">
        <time>1970-01-01T00:00:00+00:00</time>
        <ele>1994.0</ele>
      </trkpt>
      <trkpt lat="46.127596" lon="6.796196">
        <time>1970-01-01T00:00:00+00:00</time>
        <ele>1994.0</ele>
      </trkpt>
      <trkpt lat="46.127688" lon="6.796259">
        <time>1970-01-01T00:00:00+00:00</time>
        <ele>1990.0</ele>
      </trkpt>
      <trkpt lat="46.127688" lon="6.796259">
        <time>1970-01-01T00:00:00+00:00</time>
        <ele>1990.0</ele>
      </trkpt>
      <trkpt lat="46.12767" lon="6.79618">
        <time>1970-01-01T00:00:00+00:00</time>
        <ele>1990.0</ele>
      </trkpt>
      <trkpt lat="46.12767" lon="6.79618">
        <time>1970-01-01T00:00:00+00:00</time>
        <ele>1990.0</ele>
      </trkpt>
      <trkpt lat="46.127676" lon="6.796001">
        <time>1970-01-01T00:00:00+00:00</time>
        <ele>1989.0</ele>
      </trkpt>
      <trkpt lat="46.127676" lon="6.796001">
        <time>1970-01-01T00:00:00+00:00</time>
        <ele>1989.0</ele>
      </trkpt>
      <trkpt lat="46.127678" lon="6.795928">
        <time>1970-01-01T00:00:00+00:00</time>
        <ele>1988.0</ele>
      </trkpt>
      <trkpt lat="46.127678" lon="6.795928">
        <time>1970-01-01T00:00:00+00:00</time>
        <ele>1988.0</ele>
      </trkpt>
      <trkpt lat="46.1276" lon="6.795714">
        <time>1970-01-01T00:00:00+00:00</time>
        <ele>1989.0</ele>
      </trkpt>
      <trkpt lat="46.1276" lon="6.795714">
        <time>1970-01-01T00:00:00+00:00</time>
        <ele>1989.0</ele>
      </trkpt>
      <trkpt lat="46.127582" lon="6.795559">
        <time>1970-01-01T00:00:00+00:00</time>
        <ele>1987.0</ele>
      </trkpt>
      <trkpt lat="46.127582" lon="6.795559">
        <time>1970-01-01T00:00:00+00:00</time>
        <ele>1987.0</ele>
      </trkpt>
      <trkpt lat="46.12752096843785" lon="6.795314873751427">
        <time>1970-01-01T00:00:00+00:00</time>
        <ele>1986.0</ele>
      </trkpt>
      <trkpt lat="46.12745993687571" lon="6.795070747502855">
        <time>1970-01-01T00:00:00+00:00</time>
        <ele>1983.0</ele>
      </trkpt>
      <trkpt lat="46.12741" lon="6.794871">
        <time>1970-01-01T00:00:00+00:00</time>
        <ele>1980.0</ele>
      </trkpt>
      <trkpt lat="46.12741" lon="6.794871">
        <time>1970-01-01T00:00:00+00:00</time>
        <ele>1980.0</ele>
      </trkpt>
      <trkpt lat="46.127319" lon="6.794793">
        <time>1970-01-01T00:00:00+00:00</time>
        <ele>1981.0</ele>
      </trkpt>
      <trkpt lat="46.127319" lon="6.794793">
        <time>1970-01-01T00:00:00+00:00</time>
        <ele>1981.0</ele>
      </trkpt>
      <trkpt lat="46.12718133884787" lon="6.794625971135407">
        <time>1970-01-01T00:00:00+00:00</time>
        <ele>1982.0</ele>
      </trkpt>
      <trkpt lat="46.127169" lon="6.794611">
        <time>1970-01-01T00:00:00+00:00</time>
        <ele>1982.0</ele>
      </trkpt>
      <trkpt lat="46.127169" lon="6.794611">
        <time>1970-01-01T00:00:00+00:00</time>
        <ele>1982.0</ele>
      </trkpt>
      <trkpt lat="46.12707108597295" lon="6.7943933028230985">
        <time>1970-01-01T00:00:00+00:00</time>
        <ele>1980.0</ele>
      </trkpt>
      <trkpt lat="46.1269731719459" lon="6.794175605646196">
        <time>1970-01-01T00:00:00+00:00</time>
        <ele>1977.0</ele>
      </trkpt>
      <trkpt lat="46.126972" lon="6.794173">
        <time>1970-01-01T00:00:00+00:00</time>
        <ele>1977.0</ele>
      </trkpt>
      <trkpt lat="46.126972" lon="6.794173">
        <time>1970-01-01T00:00:00+00:00</time>
        <ele>1977.0</ele>
      </trkpt>
      <trkpt lat="46.126923" lon="6.794054">
        <time>1970-01-01T00:00:00+00:00</time>
        <ele>1976.0</ele>
      </trkpt>
      <trkpt lat="46.126923" lon="6.794054">
        <time>1970-01-01T00:00:00+00:00</time>
        <ele>1976.0</ele>
      </trkpt>
      <trkpt lat="46.126867" lon="6.793916">
        <time>1970-01-01T00:00:00+00:00</time>
        <ele>1976.0</ele>
      </trkpt>
      <trkpt lat="46.126867" lon="6.793916">
        <time>1970-01-01T00:00:00+00:00</time>
        <ele>1976.0</ele>
      </trkpt>
      <trkpt lat="46.126780672249936" lon="6.793688325757766">
        <time>1970-01-01T00:00:00+00:00</time>
        <ele>1976.0</ele>
      </trkpt>
      <trkpt lat="46.12669434449988" lon="6.793460651515531">
        <time>1970-01-01T00:00:00+00:00</time>
        <ele>1975.0</ele>
      </trkpt>
      <trkpt lat="46.12660801674982" lon="6.793232977273297">
        <time>1970-01-01T00:00:00+00:00</time>
        <ele>1975.0</ele>
      </trkpt>
      <trkpt lat="46.126583" lon="6.793167">
        <time>1970-01-01T00:00:00+00:00</time>
        <ele>1975.0</ele>
      </trkpt>
      <trkpt lat="46.126583" lon="6.793167">
        <time>1970-01-01T00:00:00+00:00</time>
        <ele>1975.0</ele>
      </trkpt>
      <trkpt lat="46.12654599425916" lon="6.792913033181886">
        <time>1970-01-01T00:00:00+00:00</time>
        <ele>1970.0</ele>
      </trkpt>
      <trkpt lat="46.12650898851834" lon="6.792659066363771">
        <time>1970-01-01T00:00:00+00:00</time>
        <ele>1968.0</ele>
      </trkpt>
      <trkpt lat="46.1264719827775" lon="6.792405099545656">
        <time>1970-01-01T00:00:00+00:00</time>
        <ele>1964.0</ele>
      </trkpt>
      <trkpt lat="46.126459" lon="6.792316">
        <time>1970-01-01T00:00:00+00:00</time>
        <ele>1964.0</ele>
      </trkpt>
      <trkpt lat="46.126459" lon="6.792316">
        <time>1970-01-01T00:00:00+00:00</time>
        <ele>1964.0</ele>
      </trkpt>
      <trkpt lat="46.126406" lon="6.792165">
        <time>1970-01-01T00:00:00+00:00</time>
        <ele>1964.0</ele>
      </trkpt>
      <trkpt lat="46.126406" lon="6.792165">
        <time>1970-01-01T00:00:00+00:00</time>
        <ele>1964.0</ele>
      </trkpt>
      <trkpt lat="46.12638284994851" lon="6.79190764038506">
        <time>1970-01-01T00:00:00+00:00</time>
        <ele>1958.0</ele>
      </trkpt>
      <trkpt lat="46.12635969989703" lon="6.791650280770119">
        <time>1970-01-01T00:00:00+00:00</time>
        <ele>1952.0</ele>
      </trkpt>
      <trkpt lat="46.12633654984553" lon="6.791392921155178">
        <time>1970-01-01T00:00:00+00:00</time>
        <ele>1945.0</ele>
      </trkpt>
      <trkpt lat="46.12631339979405" lon="6.791135561540239">
        <time>1970-01-01T00:00:00+00:00</time>
        <ele>1939.0</ele>
      </trkpt>
      <trkpt lat="46.126312" lon="6.79112">
        <time>1970-01-01T00:00:00+00:00</time>
        <ele>1939.0</ele>
      </trkpt>
      <trkpt lat="46.126312" lon="6.79112">
        <time>1970-01-01T00:00:00+00:00</time>
        <ele>1939.0</ele>
      </trkpt>
      <trkpt lat="46.126207" lon="6.790973">
        <time>1970-01-01T00:00:00+00:00</time>
        <ele>1940.0</ele>
      </trkpt>
      <trkpt lat="46.126207" lon="6.790973">
        <time>1970-01-01T00:00:00+00:00</time>
        <ele>1940.0</ele>
      </trkpt>
      <trkpt lat="46.12613409199548" lon="6.790735759667837">
        <time>1970-01-01T00:00:00+00:00</time>
        <ele>1938.0</ele>
      </trkpt>
      <trkpt lat="46.126061183990956" lon="6.790498519335672">
        <time>1970-01-01T00:00:00+00:00</time>
        <ele>1933.0</ele>
      </trkpt>
      <trkpt lat="46.12598827598644" lon="6.7902612790035075">
        <time>1970-01-01T00:00:00+00:00</time>
        <ele>1928.0</ele>
      </trkpt>
      <trkpt lat="46.125955" lon="6.790153">
        <time>1970-01-01T00:00:00+00:00</time>
        <ele>1927.0</ele>
      </trkpt>
      <trkpt lat="46.125955" lon="6.790153">
        <time>1970-01-01T00:00:00+00:00</time>
        <ele>1927.0</ele>
      </trkpt>
      <trkpt lat="46.12588531821841" lon="6.789913751675222">
        <time>1970-01-01T00:00:00+00:00</time>
        <ele>1925.0</ele>
      </trkpt>
      <trkpt lat="46.12581563643681" lon="6.789674503350445">
        <time>1970-01-01T00:00:00+00:00</time>
        <ele>1921.0</ele>
      </trkpt>
      <trkpt lat="46.12574595465523" lon="6.789435255025666">
        <time>1970-01-01T00:00:00+00:00</time>
        <ele>1919.0</ele>
      </trkpt>
      <trkpt lat="46.12567627287363" lon="6.789196006700889">
        <time>1970-01-01T00:00:00+00:00</time>
        <ele>1915.0</ele>
      </trkpt>
      <trkpt lat="46.125606591092044" lon="6.78895675837611">
        <time>1970-01-01T00:00:00+00:00</time>
        <ele>1905.0</ele>
      </trkpt>
      <trkpt lat="46.125536909310455" lon="6.788717510051332">
        <time>1970-01-01T00:00:00+00:00</time>
        <ele>1899.0</ele>
      </trkpt>
      <trkpt lat="46.125467227528866" lon="6.788478261726554">
        <time>1970-01-01T00:00:00+00:00</time>
        <ele>1893.0</ele>
      </trkpt>
      <trkpt lat="46.125397545747276" lon="6.7882390134017765">
        <time>1970-01-01T00:00:00+00:00</time>
        <ele>1887.0</ele>
      </trkpt>
      <trkpt lat="46.125339" lon="6.788038">
        <time>1970-01-01T00:00:00+00:00</time>
        <ele>1887.0</ele>
      </trkpt>
      <trkpt lat="46.125339" lon="6.788038">
        <time>1970-01-01T00:00:00+00:00</time>
        <ele>1887.0</ele>
      </trkpt>
      <trkpt lat="46.12528234980518" lon="6.787791694805146">
        <time>1970-01-01T00:00:00+00:00</time>
        <ele>1887.0</ele>
      </trkpt>
      <trkpt lat="46.12527" lon="6.787738">
        <time>1970-01-01T00:00:00+00:00</time>
        <ele>1886.0</ele>
      </trkpt>
      <trkpt lat="46.12527" lon="6.787738">
        <time>1970-01-01T00:00:00+00:00</time>
        <ele>1886.0</ele>
      </trkpt>
      <trkpt lat="46.125239" lon="6.787548">
        <time>1970-01-01T00:00:00+00:00</time>
        <ele>1882.0</ele>
      </trkpt>
      <trkpt lat="46.125239" lon="6.787548">
        <time>1970-01-01T00:00:00+00:00</time>
        <ele>1882.0</ele>
      </trkpt>
      <trkpt lat="46.125216" lon="6.787417">
        <time>1970-01-01T00:00:00+00:00</time>
        <ele>1879.0</ele>
      </trkpt>
      <trkpt lat="46.125216" lon="6.787417">
        <time>1970-01-01T00:00:00+00:00</time>
        <ele>1879.0</ele>
      </trkpt>
      <trkpt lat="46.125268" lon="6.78731">
        <time>1970-01-01T00:00:00+00:00</time>
        <ele>1869.0</ele>
      </trkpt>
      <trkpt lat="46.125268" lon="6.78731">
        <time>1970-01-01T00:00:00+00:00</time>
        <ele>1869.0</ele>
      </trkpt>
      <trkpt lat="46.125292" lon="6.787179">
        <time>1970-01-01T00:00:00+00:00</time>
        <ele>1863.0</ele>
      </trkpt>
      <trkpt lat="46.125292" lon="6.787179">
        <time>1970-01-01T00:00:00+00:00</time>
        <ele>1863.0</ele>
      </trkpt>
      <trkpt lat="46.12525846626744" lon="6.786924037176243">
        <time>1970-01-01T00:00:00+00:00</time>
        <ele>1855.0</ele>
      </trkpt>
      <trkpt lat="46.125229" lon="6.7867">
        <time>1970-01-01T00:00:00+00:00</time>
        <ele>1850.0</ele>
      </trkpt>
      <trkpt lat="46.125229" lon="6.7867">
        <time>1970-01-01T00:00:00+00:00</time>
        <ele>1850.0</ele>
      </trkpt>
      <trkpt lat="46.125236896325546" lon="6.786440737311235">
        <time>1970-01-01T00:00:00+00:00</time>
        <ele>1847.0</ele>
      </trkpt>
      <trkpt lat="46.12524479265109" lon="6.78618147462247">
        <time>1970-01-01T00:00:00+00:00</time>
        <ele>1845.0</ele>
      </trkpt>
      <trkpt lat="46.12525268897664" lon="6.785922211933705">
        <time>1970-01-01T00:00:00+00:00</time>
        <ele>1845.0</ele>
      </trkpt>
      <trkpt lat="46.125253" lon="6.785912">
        <time>1970-01-01T00:00:00+00:00</time>
        <ele>1845.0</ele>
      </trkpt>
      <trkpt lat="46.125253" lon="6.785912">
        <time>1970-01-01T00:00:00+00:00</time>
        <ele>1845.0</ele>
      </trkpt>
      <trkpt lat="46.12519373426846" lon="6.785666980100612">
        <time>1970-01-01T00:00:00+00:00</time>
        <ele>1843.0</ele>
      </trkpt>
      <trkpt lat="46.12513446853691" lon="6.785421960201225">
        <time>1970-01-01T00:00:00+00:00</time>
        <ele>1841.0</ele>
      </trkpt>
      <trkpt lat="46.12507520280537" lon="6.785176940301836">
        <time>1970-01-01T00:00:00+00:00</time>
        <ele>1840.0</ele>
      </trkpt>
      <trkpt lat="46.125037" lon="6.785019">
        <time>1970-01-01T00:00:00+00:00</time>
        <ele>1839.0</ele>
      </trkpt>
      <trkpt lat="46.125037" lon="6.785019">
        <time>1970-01-01T00:00:00+00:00</time>
        <ele>1839.0</ele>
      </trkpt>
      <trkpt lat="46.12500533413926" lon="6.78476354175807">
        <time>1970-01-01T00:00:00+00:00</time>
        <ele>1836.0</ele>
      </trkpt>
      <trkpt lat="46.12497366827852" lon="6.7845080835161395">
        <time>1970-01-01T00:00:00+00:00</time>
        <ele>1833.0</ele>
      </trkpt>
      <trkpt lat="46.12494200241778" lon="6.78425262527421">
        <time>1970-01-01T00:00:00+00:00</time>
        <ele>1830.0</ele>
      </trkpt>
      <trkpt lat="46.124933" lon="6.78418">
        <time>1970-01-01T00:00:00+00:00</time>
        <ele>1829.0</ele>
      </trkpt>
      <trkpt lat="46.124933" lon="6.78418">
        <time>1970-01-01T00:00:00+00:00</time>
        <ele>1829.0</ele>
      </trkpt>
      <trkpt lat="46.12494" lon="6.784027">
        <time>1970-01-01T00:00:00+00:00</time>
        <ele>1828.0</ele>
      </trkpt>
      <trkpt lat="46.12494" lon="6.784027">
        <time>1970-01-01T00:00:00+00:00</time>
        <ele>1828.0</ele>
      </trkpt>
      <trkpt lat="46.124916" lon="6.783883">
        <time>1970-01-01T00:00:00+00:00</time>
        <ele>1826.0</ele>
      </trkpt>
      <trkpt lat="46.124916" lon="6.783883">
        <time>1970-01-01T00:00:00+00:00</time>
        <ele>1826.0</ele>
      </trkpt>
      <trkpt lat="46.124887" lon="6.783746">
        <time>1970-01-01T00:00:00+00:00</time>
        <ele>1824.0</ele>
      </trkpt>
      <trkpt lat="46.124887" lon="6.783746">
        <time>1970-01-01T00:00:00+00:00</time>
        <ele>1824.0</ele>
      </trkpt>
      <trkpt lat="46.124804" lon="6.783682">
        <time>1970-01-01T00:00:00+00:00</time>
        <ele>1821.0</ele>
      </trkpt>
      <trkpt lat="46.124804" lon="6.783682">
        <time>1970-01-01T00:00:00+00:00</time>
        <ele>1821.0</ele>
      </trkpt>
      <trkpt lat="46.124713" lon="6.783681">
        <time>1970-01-01T00:00:00+00:00</time>
        <ele>1818.0</ele>
      </trkpt>
      <trkpt lat="46.124713" lon="6.783681">
        <time>1970-01-01T00:00:00+00:00</time>
        <ele>1818.0</ele>
      </trkpt>
      <trkpt lat="46.12454201057916" lon="6.783600489286153">
        <time>1970-01-01T00:00:00+00:00</time>
        <ele>1817.0</ele>
      </trkpt>
      <trkpt lat="46.12449" lon="6.783576">
        <time>1970-01-01T00:00:00+00:00</time>
        <ele>1817.0</ele>
      </trkpt>
      <trkpt lat="46.12449" lon="6.783576">
        <time>1970-01-01T00:00:00+00:00</time>
        <ele>1817.0</ele>
      </trkpt>
      <trkpt lat="46.124402" lon="6.783501">
        <time>1970-01-01T00:00:00+00:00</time>
        <ele>1817.0</ele>
      </trkpt>
      <trkpt lat="46.124402" lon="6.783501">
        <time>1970-01-01T00:00:00+00:00</time>
        <ele>1817.0</ele>
      </trkpt>
      <trkpt lat="46.124311" lon="6.783302">
        <time>1970-01-01T00:00:00+00:00</time>
        <ele>1815.0</ele>
      </trkpt>
      <trkpt lat="46.124311" lon="6.783302">
        <time>1970-01-01T00:00:00+00:00</time>
        <ele>1815.0</ele>
      </trkpt>
      <trkpt lat="46.124169555342945" lon="6.783141696055335">
        <time>1970-01-01T00:00:00+00:00</time>
        <ele>1812.0</ele>
      </trkpt>
      <trkpt lat="46.124161" lon="6.783132">
        <time>1970-01-01T00:00:00+00:00</time>
        <ele>1812.0</ele>
      </trkpt>
      <trkpt lat="46.124161" lon="6.783132">
        <time>1970-01-01T00:00:00+00:00</time>
        <ele>1812.0</ele>
      </trkpt>
      <trkpt lat="46.124108" lon="6.783009">
        <time>1970-01-01T00:00:00+00:00</time>
        <ele>1810.0</ele>
      </trkpt>
      <trkpt lat="46.124108" lon="6.783009">
        <time>1970-01-01T00:00:00+00:00</time>
        <ele>1810.0</ele>
      </trkpt>
      <trkpt lat="46.1239737996702" lon="6.782836217075383">
        <time>1970-01-01T00:00:00+00:00</time>
        <ele>1806.0</ele>
      </trkpt>
      <trkpt lat="46.123948" lon="6.782803">
        <time>1970-01-01T00:00:00+00:00</time>
        <ele>1805.0</ele>
      </trkpt>
      <trkpt lat="46.123948" lon="6.782803">
        <time>1970-01-01T00:00:00+00:00</time>
        <ele>1805.0</ele>
      </trkpt>
      <trkpt lat="46.12385" lon="6.782735">
        <time>1970-01-01T00:00:00+00:00</time>
        <ele>1803.0</ele>
      </trkpt>
      <trkpt lat="46.12385" lon="6.782735">
        <time>1970-01-01T00:00:00+00:00</time>
        <ele>1803.0</ele>
      </trkpt>
      <trkpt lat="46.123758" lon="6.782793">
        <time>1970-01-01T00:00:00+00:00</time>
        <ele>1801.0</ele>
      </trkpt>
      <trkpt lat="46.123758" lon="6.782793">
        <time>1970-01-01T00:00:00+00:00</time>
        <ele>1801.0</ele>
      </trkpt>
      <trkpt lat="46.12367" lon="6.782819">
        <time>1970-01-01T00:00:00+00:00</time>
        <ele>1802.0</ele>
      </trkpt>
      <trkpt lat="46.12367" lon="6.782819">
        <time>1970-01-01T00:00:00+00:00</time>
        <ele>1802.0</ele>
      </trkpt>
      <trkpt lat="46.123585" lon="6.782922">
        <time>1970-01-01T00:00:00+00:00</time>
        <ele>1808.0</ele>
      </trkpt>
      <trkpt lat="46.123585" lon="6.782922">
        <time>1970-01-01T00:00:00+00:00</time>
        <ele>1808.0</ele>
      </trkpt>
      <trkpt lat="46.12351" lon="6.782769">
        <time>1970-01-01T00:00:00+00:00</time>
        <ele>1807.0</ele>
      </trkpt>
      <trkpt lat="46.12351" lon="6.782769">
        <time>1970-01-01T00:00:00+00:00</time>
        <ele>1807.0</ele>
      </trkpt>
      <trkpt lat="46.123509" lon="6.78261">
        <time>1970-01-01T00:00:00+00:00</time>
        <ele>1800.0</ele>
      </trkpt>
      <trkpt lat="46.123509" lon="6.78261">
        <time>1970-01-01T00:00:00+00:00</time>
        <ele>1800.0</ele>
      </trkpt>
      <trkpt lat="46.12341594672199" lon="6.782387923269303">
        <time>1970-01-01T00:00:00+00:00</time>
        <ele>1795.0</ele>
      </trkpt>
      <trkpt lat="46.12339" lon="6.782326">
        <time>1970-01-01T00:00:00+00:00</time>
        <ele>1794.0</ele>
      </trkpt>
      <trkpt lat="46.12339" lon="6.782326">
        <time>1970-01-01T00:00:00+00:00</time>
        <ele>1794.0</ele>
      </trkpt>
      <trkpt lat="46.12333213410761" lon="6.782080292518467">
        <time>1970-01-01T00:00:00+00:00</time>
        <ele>1791.0</ele>
      </trkpt>
      <trkpt lat="46.123325" lon="6.78205">
        <time>1970-01-01T00:00:00+00:00</time>
        <ele>1791.0</ele>
      </trkpt>
      <trkpt lat="46.123325" lon="6.78205">
        <time>1970-01-01T00:00:00+00:00</time>
        <ele>1791.0</ele>
      </trkpt>
      <trkpt lat="46.12329133176037" lon="6.781795083328523">
        <time>1970-01-01T00:00:00+00:00</time>
        <ele>1790.0</ele>
      </trkpt>
      <trkpt lat="46.12325766352075" lon="6.781540166657047">
        <time>1970-01-01T00:00:00+00:00</time>
        <ele>1786.0</ele>
      </trkpt>
      <trkpt lat="46.123223995281116" lon="6.781285249985571">
        <time>1970-01-01T00:00:00+00:00</time>
        <ele>1781.0</ele>
      </trkpt>
      <trkpt lat="46.123199" lon="6.781096">
        <time>1970-01-01T00:00:00+00:00</time>
        <ele>1778.0</ele>
      </trkpt>
      <trkpt lat="46.123199" lon="6.781096">
        <time>1970-01-01T00:00:00+00:00</time>
        <ele>1778.0</ele>
      </trkpt>
      <trkpt lat="46.123102" lon="6.78097">
        <time>1970-01-01T00:00:00+00:00</time>
        <ele>1776.0</ele>
      </trkpt>
      <trkpt lat="46.123102" lon="6.78097">
        <time>1970-01-01T00:00:00+00:00</time>
        <ele>1776.0</ele>
      </trkpt>
      <trkpt lat="46.12292529493263" lon="6.78092157601519">
        <time>1970-01-01T00:00:00+00:00</time>
        <ele>1782.0</ele>
      </trkpt>
      <trkpt lat="46.122894" lon="6.780913">
        <time>1970-01-01T00:00:00+00:00</time>
        <ele>1784.0</ele>
      </trkpt>
      <trkpt lat="46.122894" lon="6.780913">
        <time>1970-01-01T00:00:00+00:00</time>
        <ele>1784.0</ele>
      </trkpt>
      <trkpt lat="46.122783524931066" lon="6.780708216945398">
        <time>1970-01-01T00:00:00+00:00</time>
        <ele>1785.0</ele>
      </trkpt>
      <trkpt lat="46.122771" lon="6.780685">
        <time>1970-01-01T00:00:00+00:00</time>
        <ele>1785.0</ele>
      </trkpt>
      <trkpt lat="46.122771" lon="6.780685">
        <time>1970-01-01T00:00:00+00:00</time>
        <ele>1785.0</ele>
      </trkpt>
      <trkpt lat="46.122695960842066" lon="6.78044916264649">
        <time>1970-01-01T00:00:00+00:00</time>
        <ele>1781.0</ele>
      </trkpt>
      <trkpt lat="46.12262092168413" lon="6.780213325292979">
        <time>1970-01-01T00:00:00+00:00</time>
        <ele>1775.0</ele>
      </trkpt>
      <trkpt lat="46.1225458825262" lon="6.779977487939469">
        <time>1970-01-01T00:00:00+00:00</time>
        <ele>1770.0</ele>
      </trkpt>
      <trkpt lat="46.12247084336826" lon="6.779741650585958">
        <time>1970-01-01T00:00:00+00:00</time>
        <ele>1768.0</ele>
      </trkpt>
      <trkpt lat="46.12239580421033" lon="6.779505813232447">
        <time>1970-01-01T00:00:00+00:00</time>
        <ele>1765.0</ele>
      </trkpt>
      <trkpt lat="46.12232076505239" lon="6.779269975878937">
        <time>1970-01-01T00:00:00+00:00</time>
        <ele>1762.0</ele>
      </trkpt>
      <trkpt lat="46.12224572589446" lon="6.779034138525425">
        <time>1970-01-01T00:00:00+00:00</time>
        <ele>1758.0</ele>
      </trkpt>
      <trkpt lat="46.12217068673652" lon="6.778798301171915">
        <time>1970-01-01T00:00:00+00:00</time>
        <ele>1756.0</ele>
      </trkpt>
      <trkpt lat="46.122134" lon="6.778683">
        <time>1970-01-01T00:00:00+00:00</time>
        <ele>1754.0</ele>
      </trkpt>
      <trkpt lat="46.122134" lon="6.778683">
        <time>1970-01-01T00:00:00+00:00</time>
        <ele>1754.0</ele>
      </trkpt>
      <trkpt lat="46.122068" lon="6.778554">
        <time>1970-01-01T00:00:00+00:00</time>
        <ele>1753.0</ele>
      </trkpt>
      <trkpt lat="46.122068" lon="6.778554">
        <time>1970-01-01T00:00:00+00:00</time>
        <ele>1753.0</ele>
      </trkpt>
      <trkpt lat="46.121968" lon="6.778447">
        <time>1970-01-01T00:00:00+00:00</time>
        <ele>1756.0</ele>
      </trkpt>
      <trkpt lat="46.121968" lon="6.778447">
        <time>1970-01-01T00:00:00+00:00</time>
        <ele>1756.0</ele>
      </trkpt>
      <trkpt lat="46.121924" lon="6.778294">
        <time>1970-01-01T00:00:00+00:00</time>
        <ele>1753.0</ele>
      </trkpt>
      <trkpt lat="46.121924" lon="6.778294">
        <time>1970-01-01T00:00:00+00:00</time>
        <ele>1753.0</ele>
      </trkpt>
      <trkpt lat="46.121914" lon="6.77809">
        <time>1970-01-01T00:00:00+00:00</time>
        <ele>1746.0</ele>
      </trkpt>
      <trkpt lat="46.121914" lon="6.77809">
        <time>1970-01-01T00:00:00+00:00</time>
        <ele>1746.0</ele>
      </trkpt>
      <trkpt lat="46.121866" lon="6.777963">
        <time>1970-01-01T00:00:00+00:00</time>
        <ele>1743.0</ele>
      </trkpt>
      <trkpt lat="46.121866" lon="6.777963">
        <time>1970-01-01T00:00:00+00:00</time>
        <ele>1743.0</ele>
      </trkpt>
      <trkpt lat="46.12184800460176" lon="6.7777048051557545">
        <time>1970-01-01T00:00:00+00:00</time>
        <ele>1735.0</ele>
      </trkpt>
      <trkpt lat="46.12183000920353" lon="6.77744661031151">
        <time>1970-01-01T00:00:00+00:00</time>
        <ele>1728.0</ele>
      </trkpt>
      <trkpt lat="46.12182" lon="6.777303">
        <time>1970-01-01T00:00:00+00:00</time>
        <ele>1724.0</ele>
      </trkpt>
      <trkpt lat="46.12182" lon="6.777303">
        <time>1970-01-01T00:00:00+00:00</time>
        <ele>1724.0</ele>
      </trkpt>
      <trkpt lat="46.121745" lon="6.777142">
        <time>1970-01-01T00:00:00+00:00</time>
        <ele>1722.0</ele>
      </trkpt>
      <trkpt lat="46.121745" lon="6.777142">
        <time>1970-01-01T00:00:00+00:00</time>
        <ele>1722.0</ele>
      </trkpt>
      <trkpt lat="46.121626" lon="6.777048">
        <time>1970-01-01T00:00:00+00:00</time>
        <ele>1721.0</ele>
      </trkpt>
      <trkpt lat="46.121626" lon="6.777048">
        <time>1970-01-01T00:00:00+00:00</time>
        <ele>1721.0</ele>
      </trkpt>
      <trkpt lat="46.121601" lon="6.776986">
        <time>1970-01-01T00:00:00+00:00</time>
        <ele>1720.0</ele>
      </trkpt>
      <trkpt lat="46.121601" lon="6.776986">
        <time>1970-01-01T00:00:00+00:00</time>
        <ele>1720.0</ele>
      </trkpt>
      <trkpt lat="46.121597" lon="6.776914">
        <time>1970-01-01T00:00:00+00:00</time>
        <ele>1719.0</ele>
      </trkpt>
      <trkpt lat="46.121597" lon="6.776914">
        <time>1970-01-01T00:00:00+00:00</time>
        <ele>1719.0</ele>
      </trkpt>
      <trkpt lat="46.121507" lon="6.776869">
        <time>1970-01-01T00:00:00+00:00</time>
        <ele>1719.0</ele>
      </trkpt>
      <trkpt lat="46.121507" lon="6.776869">
        <time>1970-01-01T00:00:00+00:00</time>
        <ele>1719.0</ele>
      </trkpt>
      <trkpt lat="46.12153268361633" lon="6.776612163836679">
        <time>1970-01-01T00:00:00+00:00</time>
        <ele>1712.0</ele>
      </trkpt>
      <trkpt lat="46.121536" lon="6.776579">
        <time>1970-01-01T00:00:00+00:00</time>
        <ele>1711.0</ele>
      </trkpt>
      <trkpt lat="46.121536" lon="6.776579">
        <time>1970-01-01T00:00:00+00:00</time>
        <ele>1711.0</ele>
      </trkpt>
      <trkpt lat="46.12140614471036" lon="6.776399447006926">
        <time>1970-01-01T00:00:00+00:00</time>
        <ele>1706.0</ele>
      </trkpt>
      <trkpt lat="46.121374" lon="6.776355">
        <time>1970-01-01T00:00:00+00:00</time>
        <ele>1705.0</ele>
      </trkpt>
      <trkpt lat="46.121374" lon="6.776355">
        <time>1970-01-01T00:00:00+00:00</time>
        <ele>1705.0</ele>
      </trkpt>
      <trkpt lat="46.12132958299415" lon="6.776103542434569">
        <time>1970-01-01T00:00:00+00:00</time>
        <ele>1697.0</ele>
      </trkpt>
      <trkpt lat="46.12128516598828" lon="6.775852084869138">
        <time>1970-01-01T00:00:00+00:00</time>
        <ele>1690.0</ele>
      </trkpt>
      <trkpt lat="46.12125" lon="6.775653">
        <time>1970-01-01T00:00:00+00:00</time>
        <ele>1685.0</ele>
      </trkpt>
      <trkpt lat="46.12125" lon="6.775653">
        <time>1970-01-01T00:00:00+00:00</time>
        <ele>1685.0</ele>
      </trkpt>
      <trkpt lat="46.1212" lon="6.775632">
        <time>1970-01-01T00:00:00+00:00</time>
        <ele>1684.0</ele>
      </trkpt>
      <trkpt lat="46.1212" lon="6.775632">
        <time>1970-01-01T00:00:00+00:00</time>
        <ele>1684.0</ele>
      </trkpt>
      <trkpt lat="46.121197" lon="6.775554">
        <time>1970-01-01T00:00:00+00:00</time>
        <ele>1683.0</ele>
      </trkpt>
      <trkpt lat="46.121197" lon="6.775554">
        <time>1970-01-01T00:00:00+00:00</time>
        <ele>1683.0</ele>
      </trkpt>
      <trkpt lat="46.121146" lon="6.775498">
        <time>1970-01-01T00:00:00+00:00</time>
        <ele>1681.0</ele>
      </trkpt>
      <trkpt lat="46.121146" lon="6.775498">
        <time>1970-01-01T00:00:00+00:00</time>
        <ele>1681.0</ele>
      </trkpt>
      <trkpt lat="46.121125" lon="6.775346">
        <time>1970-01-01T00:00:00+00:00</time>
        <ele>1677.0</ele>
      </trkpt>
      <trkpt lat="46.121125" lon="6.775346">
        <time>1970-01-01T00:00:00+00:00</time>
        <ele>1677.0</ele>
      </trkpt>
      <trkpt lat="46.121108" lon="6.775251">
        <time>1970-01-01T00:00:00+00:00</time>
        <ele>1675.0</ele>
      </trkpt>
      <trkpt lat="46.121108" lon="6.775251">
        <time>1970-01-01T00:00:00+00:00</time>
        <ele>1675.0</ele>
      </trkpt>
      <trkpt lat="46.121044" lon="6.775138">
        <time>1970-01-01T00:00:00+00:00</time>
        <ele>1673.0</ele>
      </trkpt>
      <trkpt lat="46.121044" lon="6.775138">
        <time>1970-01-01T00:00:00+00:00</time>
        <ele>1673.0</ele>
      </trkpt>
      <trkpt lat="46.121034" lon="6.774901">
        <time>1970-01-01T00:00:00+00:00</time>
        <ele>1667.0</ele>
      </trkpt>
      <trkpt lat="46.121034" lon="6.774901">
        <time>1970-01-01T00:00:00+00:00</time>
        <ele>1667.0</ele>
      </trkpt>
      <trkpt lat="46.121094" lon="6.774809">
        <time>1970-01-01T00:00:00+00:00</time>
        <ele>1667.0</ele>
      </trkpt>
      <trkpt lat="46.121094" lon="6.774809">
        <time>1970-01-01T00:00:00+00:00</time>
        <ele>1667.0</ele>
      </trkpt>
      <trkpt lat="46.121026" lon="6.774657">
        <time>1970-01-01T00:00:00+00:00</time>
        <ele>1664.0</ele>
      </trkpt>
      <trkpt lat="46.121026" lon="6.774657">
        <time>1970-01-01T00:00:00+00:00</time>
        <ele>1664.0</ele>
      </trkpt>
      <trkpt lat="46.12098802148208" lon="6.774403357755309">
        <time>1970-01-01T00:00:00+00:00</time>
        <ele>1660.0</ele>
      </trkpt>
      <trkpt lat="46.12097" lon="6.774283">
        <time>1970-01-01T00:00:00+00:00</time>
        <ele>1659.0</ele>
      </trkpt>
      <trkpt lat="46.12097" lon="6.774283">
        <time>1970-01-01T00:00:00+00:00</time>
        <ele>1659.0</ele>
      </trkpt>
      <trkpt lat="46.12099470000259" lon="6.774025965597975">
        <time>1970-01-01T00:00:00+00:00</time>
        <ele>1655.0</ele>
      </trkpt>
      <trkpt lat="46.121002" lon="6.77395">
        <time>1970-01-01T00:00:00+00:00</time>
        <ele>1655.0</ele>
      </trkpt>
      <trkpt lat="46.121002" lon="6.77395">
        <time>1970-01-01T00:00:00+00:00</time>
        <ele>1655.0</ele>
      </trkpt>
      <trkpt lat="46.121061" lon="6.77381">
        <time>1970-01-01T00:00:00+00:00</time>
        <ele>1654.0</ele>
      </trkpt>
      <trkpt lat="46.121061" lon="6.77381">
        <time>1970-01-01T00:00:00+00:00</time>
        <ele>1654.0</ele>
      </trkpt>
      <trkpt lat="46.121053" lon="6.773648">
        <time>1970-01-01T00:00:00+00:00</time>
        <ele>1652.0</ele>
      </trkpt>
      <trkpt lat="46.121053" lon="6.773648">
        <time>1970-01-01T00:00:00+00:00</time>
        <ele>1652.0</ele>
      </trkpt>
      <trkpt lat="46.120893010522146" lon="6.773529429117933">
        <time>1970-01-01T00:00:00+00:00</time>
        <ele>1649.0</ele>
      </trkpt>
      <trkpt lat="46.120856" lon="6.773502">
        <time>1970-01-01T00:00:00+00:00</time>
        <ele>1648.0</ele>
      </trkpt>
      <trkpt lat="46.120856" lon="6.773502">
        <time>1970-01-01T00:00:00+00:00</time>
        <ele>1648.0</ele>
      </trkpt>
      <trkpt lat="46.12084" lon="6.773288">
        <time>1970-01-01T00:00:00+00:00</time>
        <ele>1644.0</ele>
      </trkpt>
      <trkpt lat="46.12084" lon="6.773288">
        <time>1970-01-01T00:00:00+00:00</time>
        <ele>1644.0</ele>
      </trkpt>
      <trkpt lat="46.120806" lon="6.77314">
        <time>1970-01-01T00:00:00+00:00</time>
        <ele>1642.0</ele>
      </trkpt>
      <trkpt lat="46.120806" lon="6.77314">
        <time>1970-01-01T00:00:00+00:00</time>
        <ele>1642.0</ele>
      </trkpt>
      <trkpt lat="46.12073" lon="6.773054">
        <time>1970-01-01T00:00:00+00:00</time>
        <ele>1640.0</ele>
      </trkpt>
      <trkpt lat="46.12073" lon="6.773054">
        <time>1970-01-01T00:00:00+00:00</time>
        <ele>1640.0</ele>
      </trkpt>
      <trkpt lat="46.120638" lon="6.772981">
        <time>1970-01-01T00:00:00+00:00</time>
        <ele>1637.0</ele>
      </trkpt>
      <trkpt lat="46.120638" lon="6.772981">
        <time>1970-01-01T00:00:00+00:00</time>
        <ele>1637.0</ele>
      </trkpt>
      <trkpt lat="46.12057" lon="6.772877">
        <time>1970-01-01T00:00:00+00:00</time>
        <ele>1634.0</ele>
      </trkpt>
      <trkpt lat="46.12057" lon="6.772877">
        <time>1970-01-01T00:00:00+00:00</time>
        <ele>1634.0</ele>
      </trkpt>
      <trkpt lat="46.120546" lon="6.772704">
        <time>1970-01-01T00:00:00+00:00</time>
        <ele>1632.0</ele>
      </trkpt>
      <trkpt lat="46.120546" lon="6.772704">
        <time>1970-01-01T00:00:00+00:00</time>
        <ele>1632.0</ele>
      </trkpt>
      <trkpt lat="46.120436" lon="6.77263">
        <time>1970-01-01T00:00:00+00:00</time>
        <ele>1629.0</ele>
      </trkpt>
      <trkpt lat="46.120436" lon="6.77263">
        <time>1970-01-01T00:00:00+00:00</time>
        <ele>1629.0</ele>
      </trkpt>
      <trkpt lat="46.12028447462927" lon="6.772490190508454">
        <time>1970-01-01T00:00:00+00:00</time>
        <ele>1624.0</ele>
      </trkpt>
      <trkpt lat="46.120242" lon="6.772451">
        <time>1970-01-01T00:00:00+00:00</time>
        <ele>1623.0</ele>
      </trkpt>
      <trkpt lat="46.120242" lon="6.772451">
        <time>1970-01-01T00:00:00+00:00</time>
        <ele>1623.0</ele>
      </trkpt>
      <trkpt lat="46.120119" lon="6.772428">
        <time>1970-01-01T00:00:00+00:00</time>
        <ele>1619.0</ele>
      </trkpt>
      <trkpt lat="46.120119" lon="6.772428">
        <time>1970-01-01T00:00:00+00:00</time>
        <ele>1619.0</ele>
      </trkpt>
      <trkpt lat="46.12003" lon="6.77255">
        <time>1970-01-01T00:00:00+00:00</time>
        <ele>1618.0</ele>
      </trkpt>
      <trkpt lat="46.12003" lon="6.77255">
        <time>1970-01-01T00:00:00+00:00</time>
        <ele>1618.0</ele>
      </trkpt>
      <trkpt lat="46.11994737267254" lon="6.772319513244448">
        <time>1970-01-01T00:00:00+00:00</time>
        <ele>1615.0</ele>
      </trkpt>
      <trkpt lat="46.119935" lon="6.772285">
        <time>1970-01-01T00:00:00+00:00</time>
        <ele>1614.0</ele>
      </trkpt>
      <trkpt lat="46.119935" lon="6.772285">
        <time>1970-01-01T00:00:00+00:00</time>
        <ele>1614.0</ele>
      </trkpt>
      <trkpt lat="46.119813746508285" lon="6.772093341255044">
        <time>1970-01-01T00:00:00+00:00</time>
        <ele>1611.0</ele>
      </trkpt>
      <trkpt lat="46.11978" lon="6.77204">
        <time>1970-01-01T00:00:00+00:00</time>
        <ele>1611.0</ele>
      </trkpt>
      <trkpt lat="46.11978" lon="6.77204">
        <time>1970-01-01T00:00:00+00:00</time>
        <ele>1611.0</ele>
      </trkpt>
      <trkpt lat="46.119812" lon="6.771881">
        <time>1970-01-01T00:00:00+00:00</time>
        <ele>1608.0</ele>
      </trkpt>
      <trkpt lat="46.119812" lon="6.771881">
        <time>1970-01-01T00:00:00+00:00</time>
        <ele>1608.0</ele>
      </trkpt>
      <trkpt lat="46.119779" lon="6.771698">
        <time>1970-01-01T00:00:00+00:00</time>
        <ele>1603.0</ele>
      </trkpt>
      <trkpt lat="46.119779" lon="6.771698">
        <time>1970-01-01T00:00:00+00:00</time>
        <ele>1603.0</ele>
      </trkpt>
      <trkpt lat="46.119695" lon="6.771642">
        <time>1970-01-01T00:00:00+00:00</time>
        <ele>1600.0</ele>
      </trkpt>
      <trkpt lat="46.119695" lon="6.771642">
        <time>1970-01-01T00:00:00+00:00</time>
        <ele>1600.0</ele>
      </trkpt>
      <trkpt lat="46.119579" lon="6.771673">
        <time>1970-01-01T00:00:00+00:00</time>
        <ele>1600.0</ele>
      </trkpt>
      <trkpt lat="46.119579" lon="6.771673">
        <time>1970-01-01T00:00:00+00:00</time>
        <ele>1600.0</ele>
      </trkpt>
      <trkpt lat="46.119464" lon="6.771659">
        <time>1970-01-01T00:00:00+00:00</time>
        <ele>1600.0</ele>
      </trkpt>
      <trkpt lat="46.119464" lon="6.771659">
        <time>1970-01-01T00:00:00+00:00</time>
        <ele>1600.0</ele>
      </trkpt>
      <trkpt lat="46.11941" lon="6.771543">
        <time>1970-01-01T00:00:00+00:00</time>
        <ele>1597.0</ele>
      </trkpt>
      <trkpt lat="46.11941" lon="6.771543">
        <time>1970-01-01T00:00:00+00:00</time>
        <ele>1597.0</ele>
      </trkpt>
      <trkpt lat="46.119416" lon="6.771405">
        <time>1970-01-01T00:00:00+00:00</time>
        <ele>1593.0</ele>
      </trkpt>
      <trkpt lat="46.119416" lon="6.771405">
        <time>1970-01-01T00:00:00+00:00</time>
        <ele>1593.0</ele>
      </trkpt>
      <trkpt lat="46.1193981160536" lon="6.7711468005238675">
        <time>1970-01-01T00:00:00+00:00</time>
        <ele>1587.0</ele>
      </trkpt>
      <trkpt lat="46.119380232107204" lon="6.770888601047735">
        <time>1970-01-01T00:00:00+00:00</time>
        <ele>1584.0</ele>
      </trkpt>
      <trkpt lat="46.119368" lon="6.770712">
        <time>1970-01-01T00:00:00+00:00</time>
        <ele>1581.0</ele>
      </trkpt>
      <trkpt lat="46.119368" lon="6.770712">
        <time>1970-01-01T00:00:00+00:00</time>
        <ele>1581.0</ele>
      </trkpt>
      <trkpt lat="46.119379" lon="6.770554">
        <time>1970-01-01T00:00:00+00:00</time>
        <ele>1579.0</ele>
      </trkpt>
      <trkpt lat="46.119379" lon="6.770554">
        <time>1970-01-01T00:00:00+00:00</time>
        <ele>1579.0</ele>
      </trkpt>
      <trkpt lat="46.119258" lon="6.770539">
        <time>1970-01-01T00:00:00+00:00</time>
        <ele>1578.0</ele>
      </trkpt>
      <trkpt lat="46.119258" lon="6.770539">
        <time>1970-01-01T00:00:00+00:00</time>
        <ele>1578.0</ele>
      </trkpt>
      <trkpt lat="46.11913163046902" lon="6.770354350457015">
        <time>1970-01-01T00:00:00+00:00</time>
        <ele>1573.0</ele>
      </trkpt>
      <trkpt lat="46.119039" lon="6.770219">
        <time>1970-01-01T00:00:00+00:00</time>
        <ele>1568.0</ele>
      </trkpt>
      <trkpt lat="46.119039" lon="6.770219">
        <time>1970-01-01T00:00:00+00:00</time>
        <ele>1568.0</ele>
      </trkpt>
      <trkpt lat="46.118949" lon="6.770174">
        <time>1970-01-01T00:00:00+00:00</time>
        <ele>1566.0</ele>
      </trkpt>
      <trkpt lat="46.118949" lon="6.770174">
        <time>1970-01-01T00:00:00+00:00</time>
        <ele>1566.0</ele>
      </trkpt>
      <trkpt lat="46.118836" lon="6.770143">
        <time>1970-01-01T00:00:00+00:00</time>
        <ele>1563.0</ele>
      </trkpt>
      <trkpt lat="46.118836" lon="6.770143">
        <time>1970-01-01T00:00:00+00:00</time>
        <ele>1563.0</ele>
      </trkpt>
      <trkpt lat="46.118757" lon="6.770078">
        <time>1970-01-01T00:00:00+00:00</time>
        <ele>1560.0</ele>
      </trkpt>
      <trkpt lat="46.118757" lon="6.770078">
        <time>1970-01-01T00:00:00+00:00</time>
        <ele>1560.0</ele>
      </trkpt>
      <trkpt lat="46.118688" lon="6.769948">
        <time>1970-01-01T00:00:00+00:00</time>
        <ele>1555.0</ele>
      </trkpt>
      <trkpt lat="46.118688" lon="6.769948">
        <time>1970-01-01T00:00:00+00:00</time>
        <ele>1555.0</ele>
      </trkpt>
      <trkpt lat="46.1186" lon="6.769858">
        <time>1970-01-01T00:00:00+00:00</time>
        <ele>1553.0</ele>
      </trkpt>
      <trkpt lat="46.1186" lon="6.769858">
        <time>1970-01-01T00:00:00+00:00</time>
        <ele>1553.0</ele>
      </trkpt>
      <trkpt lat="46.118495" lon="6.769749">
        <time>1970-01-01T00:00:00+00:00</time>
        <ele>1551.0</ele>
      </trkpt>
      <trkpt lat="46.118495" lon="6.769749">
        <time>1970-01-01T00:00:00+00:00</time>
        <ele>1551.0</ele>
      </trkpt>
      <trkpt lat="46.11843041920872" lon="6.769506822032691">
        <time>1970-01-01T00:00:00+00:00</time>
        <ele>1546.0</ele>
      </trkpt>
      <trkpt lat="46.118387" lon="6.769344">
        <time>1970-01-01T00:00:00+00:00</time>
        <ele>1542.0</ele>
      </trkpt>
      <trkpt lat="46.118387" lon="6.769344">
        <time>1970-01-01T00:00:00+00:00</time>
        <ele>1542.0</ele>
      </trkpt>
      <trkpt lat="46.118254721841424" lon="6.769168176857548">
        <time>1970-01-01T00:00:00+00:00</time>
        <ele>1538.0</ele>
      </trkpt>
      <trkpt lat="46.118226" lon="6.76913">
        <time>1970-01-01T00:00:00+00:00</time>
        <ele>1537.0</ele>
      </trkpt>
      <trkpt lat="46.118226" lon="6.76913">
        <time>1970-01-01T00:00:00+00:00</time>
        <ele>1537.0</ele>
      </trkpt>
      <trkpt lat="46.11814176308501" lon="6.76890073664374">
        <time>1970-01-01T00:00:00+00:00</time>
        <ele>1531.0</ele>
      </trkpt>
      <trkpt lat="46.118129" lon="6.768866">
        <time>1970-01-01T00:00:00+00:00</time>
        <ele>1530.0</ele>
      </trkpt>
      <trkpt lat="46.118129" lon="6.768866">
        <time>1970-01-01T00:00:00+00:00</time>
        <ele>1530.0</ele>
      </trkpt>
      <trkpt lat="46.118041" lon="6.768748">
        <time>1970-01-01T00:00:00+00:00</time>
        <ele>1528.0</ele>
      </trkpt>
      <trkpt lat="46.118041" lon="6.768748">
        <time>1970-01-01T00:00:00+00:00</time>
        <ele>1528.0</ele>
      </trkpt>
      <trkpt lat="46.117955" lon="6.768641">
        <time>1970-01-01T00:00:00+00:00</time>
        <ele>1525.0</ele>
      </trkpt>
      <trkpt lat="46.117955" lon="6.768641">
        <time>1970-01-01T00:00:00+00:00</time>
        <ele>1525.0</ele>
      </trkpt>
      <trkpt lat="46.117999" lon="6.768486">
        <time>1970-01-01T00:00:00+00:00</time>
        <ele>1521.0</ele>
      </trkpt>
      <trkpt lat="46.117999" lon="6.768486">
        <time>1970-01-01T00:00:00+00:00</time>
        <ele>1521.0</ele>
      </trkpt>
      <trkpt lat="46.118078" lon="6.768401">
        <time>1970-01-01T00:00:00+00:00</time>
        <ele>1518.0</ele>
      </trkpt>
      <trkpt lat="46.118078" lon="6.768401">
        <time>1970-01-01T00:00:00+00:00</time>
        <ele>1518.0</ele>
      </trkpt>
      <trkpt lat="46.118174" lon="6.76824">
        <time>1970-01-01T00:00:00+00:00</time>
        <ele>1515.0</ele>
      </trkpt>
      <trkpt lat="46.118174" lon="6.76824">
        <time>1970-01-01T00:00:00+00:00</time>
        <ele>1515.0</ele>
      </trkpt>
      <trkpt lat="46.11818107927879" lon="6.767980721414293">
        <time>1970-01-01T00:00:00+00:00</time>
        <ele>1509.0</ele>
      </trkpt>
      <trkpt lat="46.11818815855758" lon="6.767721442828586">
        <time>1970-01-01T00:00:00+00:00</time>
        <ele>1505.0</ele>
      </trkpt>
      <trkpt lat="46.11819" lon="6.767654">
        <time>1970-01-01T00:00:00+00:00</time>
        <ele>1504.0</ele>
      </trkpt>
      <trkpt lat="46.11819" lon="6.767654">
        <time>1970-01-01T00:00:00+00:00</time>
        <ele>1504.0</ele>
      </trkpt>
      <trkpt lat="46.11812400433795" lon="6.767412618605945">
        <time>1970-01-01T00:00:00+00:00</time>
        <ele>1499.0</ele>
      </trkpt>
      <trkpt lat="46.11805800867591" lon="6.767171237211892">
        <time>1970-01-01T00:00:00+00:00</time>
        <ele>1496.0</ele>
      </trkpt>
      <trkpt lat="46.118044" lon="6.76712">
        <time>1970-01-01T00:00:00+00:00</time>
        <ele>1496.0</ele>
      </trkpt>
      <trkpt lat="46.118044" lon="6.76712">
        <time>1970-01-01T00:00:00+00:00</time>
        <ele>1496.0</ele>
      </trkpt>
      <trkpt lat="46.118018" lon="6.766974">
        <time>1970-01-01T00:00:00+00:00</time>
        <ele>1494.0</ele>
      </trkpt>
      <trkpt lat="46.118018" lon="6.766974">
        <time>1970-01-01T00:00:00+00:00</time>
        <ele>1494.0</ele>
      </trkpt>
      <trkpt lat="46.117911402358814" lon="6.766765001475158">
        <time>1970-01-01T00:00:00+00:00</time>
        <ele>1491.0</ele>
      </trkpt>
      <trkpt lat="46.117891" lon="6.766725">
        <time>1970-01-01T00:00:00+00:00</time>
        <ele>1491.0</ele>
      </trkpt>
      <trkpt lat="46.117891" lon="6.766725">
        <time>1970-01-01T00:00:00+00:00</time>
        <ele>1491.0</ele>
      </trkpt>
      <trkpt lat="46.11774519757322" lon="6.7665730585236785">
        <time>1970-01-01T00:00:00+00:00</time>
        <ele>1487.0</ele>
      </trkpt>
      <trkpt lat="46.117701" lon="6.766527">
        <time>1970-01-01T00:00:00+00:00</time>
        <ele>1485.0</ele>
      </trkpt>
      <trkpt lat="46.117701" lon="6.766527">
        <time>1970-01-01T00:00:00+00:00</time>
        <ele>1485.0</ele>
      </trkpt>
      <trkpt lat="46.11761401854356" lon="6.766299881752646">
        <time>1970-01-01T00:00:00+00:00</time>
        <ele>1480.0</ele>
      </trkpt>
      <trkpt lat="46.117593" lon="6.766245">
        <time>1970-01-01T00:00:00+00:00</time>
        <ele>1479.0</ele>
      </trkpt>
      <trkpt lat="46.117593" lon="6.766245">
        <time>1970-01-01T00:00:00+00:00</time>
        <ele>1479.0</ele>
      </trkpt>
      <trkpt lat="46.117529" lon="6.76615">
        <time>1970-01-01T00:00:00+00:00</time>
        <ele>1476.0</ele>
      </trkpt>
      <trkpt lat="46.117529" lon="6.76615">
        <time>1970-01-01T00:00:00+00:00</time>
        <ele>1476.0</ele>
      </trkpt>
      <trkpt lat="46.117459" lon="6.766049">
        <time>1970-01-01T00:00:00+00:00</time>
        <ele>1472.0</ele>
      </trkpt>
      <trkpt lat="46.117459" lon="6.766049">
        <time>1970-01-01T00:00:00+00:00</time>
        <ele>1472.0</ele>
      </trkpt>
      <trkpt lat="46.117365" lon="6.765951">
        <time>1970-01-01T00:00:00+00:00</time>
        <ele>1468.0</ele>
      </trkpt>
      <trkpt lat="46.117365" lon="6.765951">
        <time>1970-01-01T00:00:00+00:00</time>
        <ele>1468.0</ele>
      </trkpt>
      <trkpt lat="46.117274" lon="6.765995">
        <time>1970-01-01T00:00:00+00:00</time>
        <ele>1466.0</ele>
      </trkpt>
      <trkpt lat="46.117274" lon="6.765995">
        <time>1970-01-01T00:00:00+00:00</time>
        <ele>1466.0</ele>
      </trkpt>
      <trkpt lat="46.117181" lon="6.765953">
        <time>1970-01-01T00:00:00+00:00</time>
        <ele>1463.0</ele>
      </trkpt>
      <trkpt lat="46.117181" lon="6.765953">
        <time>1970-01-01T00:00:00+00:00</time>
        <ele>1463.0</ele>
      </trkpt>
      <trkpt lat="46.11713" lon="6.765838">
        <time>1970-01-01T00:00:00+00:00</time>
        <ele>1461.0</ele>
      </trkpt>
      <trkpt lat="46.11713" lon="6.765838">
        <time>1970-01-01T00:00:00+00:00</time>
        <ele>1461.0</ele>
      </trkpt>
      <trkpt lat="46.117032" lon="6.765915">
        <time>1970-01-01T00:00:00+00:00</time>
        <ele>1460.0</ele>
      </trkpt>
      <trkpt lat="46.117032" lon="6.765915">
        <time>1970-01-01T00:00:00+00:00</time>
        <ele>1460.0</ele>
      </trkpt>
      <trkpt lat="46.117014" lon="6.766093">
        <time>1970-01-01T00:00:00+00:00</time>
        <ele>1464.0</ele>
      </trkpt>
      <trkpt lat="46.117014" lon="6.766093">
        <time>1970-01-01T00:00:00+00:00</time>
        <ele>1464.0</ele>
      </trkpt>
      <trkpt lat="46.116866" lon="6.766051">
        <time>1970-01-01T00:00:00+00:00</time>
        <ele>1464.0</ele>
      </trkpt>
      <trkpt lat="46.116866" lon="6.766051">
        <time>1970-01-01T00:00:00+00:00</time>
        <ele>1464.0</ele>
      </trkpt>
      <trkpt lat="46.116776" lon="6.765955">
        <time>1970-01-01T00:00:00+00:00</time>
        <ele>1462.0</ele>
      </trkpt>
      <trkpt lat="46.116776" lon="6.765955">
        <time>1970-01-01T00:00:00+00:00</time>
        <ele>1462.0</ele>
      </trkpt>
      <trkpt lat="46.116769" lon="6.765799">
        <time>1970-01-01T00:00:00+00:00</time>
        <ele>1458.0</ele>
      </trkpt>
      <trkpt lat="46.116769" lon="6.765799">
        <time>1970-01-01T00:00:00+00:00</time>
        <ele>1458.0</ele>
      </trkpt>
      <trkpt lat="46.11663114081077" lon="6.765632343557906">
        <time>1970-01-01T00:00:00+00:00</time>
        <ele>1454.0</ele>
      </trkpt>
      <trkpt lat="46.116544" lon="6.765527">
        <time>1970-01-01T00:00:00+00:00</time>
        <ele>1453.0</ele>
      </trkpt>
      <trkpt lat="46.116544" lon="6.765527">
        <time>1970-01-01T00:00:00+00:00</time>
        <ele>1453.0</ele>
      </trkpt>
      <trkpt lat="46.116444" lon="6.765337">
        <time>1970-01-01T00:00:00+00:00</time>
        <ele>1449.0</ele>
      </trkpt>
      <trkpt lat="46.116444" lon="6.765337">
        <time>1970-01-01T00:00:00+00:00</time>
        <ele>1449.0</ele>
      </trkpt>
      <trkpt lat="46.11641278246256" lon="6.765081466755399">
        <time>1970-01-01T00:00:00+00:00</time>
        <ele>1442.0</ele>
      </trkpt>
      <trkpt lat="46.11638156492512" lon="6.7648259335107985">
        <time>1970-01-01T00:00:00+00:00</time>
        <ele>1436.0</ele>
      </trkpt>
      <trkpt lat="46.11635034738768" lon="6.764570400266197">
        <time>1970-01-01T00:00:00+00:00</time>
        <ele>1431.0</ele>
      </trkpt>
      <trkpt lat="46.116347" lon="6.764543">
        <time>1970-01-01T00:00:00+00:00</time>
        <ele>1431.0</ele>
      </trkpt>
      <trkpt lat="46.116347" lon="6.764543">
        <time>1970-01-01T00:00:00+00:00</time>
        <ele>1431.0</ele>
      </trkpt>
      <trkpt lat="46.116301123210945" lon="6.764292111309862">
        <time>1970-01-01T00:00:00+00:00</time>
        <ele>1428.0</ele>
      </trkpt>
      <trkpt lat="46.116283" lon="6.764193">
        <time>1970-01-01T00:00:00+00:00</time>
        <ele>1427.0</ele>
      </trkpt>
      <trkpt lat="46.116283" lon="6.764193">
        <time>1970-01-01T00:00:00+00:00</time>
        <ele>1427.0</ele>
      </trkpt>
      <trkpt lat="46.116192" lon="6.764105">
        <time>1970-01-01T00:00:00+00:00</time>
        <ele>1427.0</ele>
      </trkpt>
      <trkpt lat="46.116192" lon="6.764105">
        <time>1970-01-01T00:00:00+00:00</time>
        <ele>1427.0</ele>
      </trkpt>
      <trkpt lat="46.11621" lon="6.763897">
        <time>1970-01-01T00:00:00+00:00</time>
        <ele>1425.0</ele>
      </trkpt>
      <trkpt lat="46.11621" lon="6.763897">
        <time>1970-01-01T00:00:00+00:00</time>
        <ele>1425.0</ele>
      </trkpt>
      <trkpt lat="46.116211" lon="6.763715">
        <time>1970-01-01T00:00:00+00:00</time>
        <ele>1422.0</ele>
      </trkpt>
      <trkpt lat="46.116211" lon="6.763715">
        <time>1970-01-01T00:00:00+00:00</time>
        <ele>1422.0</ele>
      </trkpt>
      <trkpt lat="46.116163521676015" lon="6.763464732902388">
        <time>1970-01-01T00:00:00+00:00</time>
        <ele>1419.0</ele>
      </trkpt>
      <trkpt lat="46.11611604335204" lon="6.763214465804776">
        <time>1970-01-01T00:00:00+00:00</time>
        <ele>1414.0</ele>
      </trkpt>
      <trkpt lat="46.116093" lon="6.763093">
        <time>1970-01-01T00:00:00+00:00</time>
        <ele>1411.0</ele>
      </trkpt>
      <trkpt lat="46.116093" lon="6.763093">
        <time>1970-01-01T00:00:00+00:00</time>
        <ele>1411.0</ele>
      </trkpt>
      <trkpt lat="46.115987" lon="6.763018">
        <time>1970-01-01T00:00:00+00:00</time>
        <ele>1410.0</ele>
      </trkpt>
      <trkpt lat="46.115987" lon="6.763018">
        <time>1970-01-01T00:00:00+00:00</time>
        <ele>1410.0</ele>
      </trkpt>
      <trkpt lat="46.11589869946715" lon="6.762791950635911">
        <time>1970-01-01T00:00:00+00:00</time>
        <ele>1405.0</ele>
      </trkpt>
      <trkpt lat="46.115862" lon="6.762698">
        <time>1970-01-01T00:00:00+00:00</time>
        <ele>1403.0</ele>
      </trkpt>
      <trkpt lat="46.115862" lon="6.762698">
        <time>1970-01-01T00:00:00+00:00</time>
        <ele>1403.0</ele>
      </trkpt>
      <trkpt lat="46.115851" lon="6.762492">
        <time>1970-01-01T00:00:00+00:00</time>
        <ele>1397.0</ele>
      </trkpt>
      <trkpt lat="46.115851" lon="6.762492">
        <time>1970-01-01T00:00:00+00:00</time>
        <ele>1397.0</ele>
      </trkpt>
      <trkpt lat="46.1159" lon="6.762337">
        <time>1970-01-01T00:00:00+00:00</time>
        <ele>1393.0</ele>
      </trkpt>
      <trkpt lat="46.1159" lon="6.762337">
        <time>1970-01-01T00:00:00+00:00</time>
        <ele>1393.0</ele>
      </trkpt>
      <trkpt lat="46.115879" lon="6.762195">
        <time>1970-01-01T00:00:00+00:00</time>
        <ele>1389.0</ele>
      </trkpt>
      <trkpt lat="46.115879" lon="6.762195">
        <time>1970-01-01T00:00:00+00:00</time>
        <ele>1389.0</ele>
      </trkpt>
      <trkpt lat="46.115822" lon="6.762062">
        <time>1970-01-01T00:00:00+00:00</time>
        <ele>1386.0</ele>
      </trkpt>
      <trkpt lat="46.115822" lon="6.762062">
        <time>1970-01-01T00:00:00+00:00</time>
        <ele>1386.0</ele>
      </trkpt>
      <trkpt lat="46.115723" lon="6.762067">
        <time>1970-01-01T00:00:00+00:00</time>
        <ele>1384.0</ele>
      </trkpt>
      <trkpt lat="46.115723" lon="6.762067">
        <time>1970-01-01T00:00:00+00:00</time>
        <ele>1384.0</ele>
      </trkpt>
      <trkpt lat="46.115656" lon="6.76193">
        <time>1970-01-01T00:00:00+00:00</time>
        <ele>1381.0</ele>
      </trkpt>
      <trkpt lat="46.115656" lon="6.76193">
        <time>1970-01-01T00:00:00+00:00</time>
        <ele>1381.0</ele>
      </trkpt>
      <trkpt lat="46.115578422897755" lon="6.761695907691456">
        <time>1970-01-01T00:00:00+00:00</time>
        <ele>1374.0</ele>
      </trkpt>
      <trkpt lat="46.1155008457955" lon="6.76146181538291">
        <time>1970-01-01T00:00:00+00:00</time>
        <ele>1369.0</ele>
      </trkpt>
      <trkpt lat="46.11542326869325" lon="6.761227723074366">
        <time>1970-01-01T00:00:00+00:00</time>
        <ele>1365.0</ele>
      </trkpt>
      <trkpt lat="46.115371" lon="6.76107">
        <time>1970-01-01T00:00:00+00:00</time>
        <ele>1362.0</ele>
      </trkpt>
      <trkpt lat="46.115371" lon="6.76107">
        <time>1970-01-01T00:00:00+00:00</time>
        <ele>1362.0</ele>
      </trkpt>
      <trkpt lat="46.11531888970466" lon="6.760821661873758">
        <time>1970-01-01T00:00:00+00:00</time>
        <ele>1358.0</ele>
      </trkpt>
      <trkpt lat="46.115307" lon="6.760765">
        <time>1970-01-01T00:00:00+00:00</time>
        <ele>1357.0</ele>
      </trkpt>
      <trkpt lat="46.115307" lon="6.760765">
        <time>1970-01-01T00:00:00+00:00</time>
        <ele>1357.0</ele>
      </trkpt>
      <trkpt lat="46.115253" lon="6.760632">
        <time>1970-01-01T00:00:00+00:00</time>
        <ele>1355.0</ele>
      </trkpt>
      <trkpt lat="46.115253" lon="6.760632">
        <time>1970-01-01T00:00:00+00:00</time>
        <ele>1355.0</ele>
      </trkpt>
      <trkpt lat="46.115189" lon="6.7605">
        <time>1970-01-01T00:00:00+00:00</time>
        <ele>1354.0</ele>
      </trkpt>
      <trkpt lat="46.115189" lon="6.7605">
        <time>1970-01-01T00:00:00+00:00</time>
        <ele>1354.0</ele>
      </trkpt>
      <trkpt lat="46.11513899698585" lon="6.760250763186235">
        <time>1970-01-01T00:00:00+00:00</time>
        <ele>1348.0</ele>
      </trkpt>
      <trkpt lat="46.11508899397169" lon="6.76000152637247">
        <time>1970-01-01T00:00:00+00:00</time>
        <ele>1343.0</ele>
      </trkpt>
      <trkpt lat="46.11503899095753" lon="6.759752289558705">
        <time>1970-01-01T00:00:00+00:00</time>
        <ele>1337.0</ele>
      </trkpt>
      <trkpt lat="46.11498898794337" lon="6.759503052744939">
        <time>1970-01-01T00:00:00+00:00</time>
        <ele>1330.0</ele>
      </trkpt>
      <trkpt lat="46.11493898492921" lon="6.7592538159311735">
        <time>1970-01-01T00:00:00+00:00</time>
        <ele>1324.0</ele>
      </trkpt>
      <trkpt lat="46.114932" lon="6.759219">
        <time>1970-01-01T00:00:00+00:00</time>
        <ele>1323.0</ele>
      </trkpt>
      <trkpt lat="46.114932" lon="6.759219">
        <time>1970-01-01T00:00:00+00:00</time>
        <ele>1323.0</ele>
      </trkpt>
      <trkpt lat="46.114869" lon="6.759066">
        <time>1970-01-01T00:00:00+00:00</time>
        <ele>1320.0</ele>
      </trkpt>
      <trkpt lat="46.114869" lon="6.759066">
        <time>1970-01-01T00:00:00+00:00</time>
        <ele>1320.0</ele>
      </trkpt>
      <trkpt lat="46.114989" lon="6.758977">
        <time>1970-01-01T00:00:00+00:00</time>
        <ele>1318.0</ele>
      </trkpt>
      <trkpt lat="46.114989" lon="6.758977">
        <time>1970-01-01T00:00:00+00:00</time>
        <ele>1318.0</ele>
      </trkpt>
      <trkpt lat="46.11490647379921" lon="6.758746459064873">
        <time>1970-01-01T00:00:00+00:00</time>
        <ele>1314.0</ele>
      </trkpt>
      <trkpt lat="46.114834" lon="6.758544">
        <time>1970-01-01T00:00:00+00:00</time>
        <ele>1310.0</ele>
      </trkpt>
      <trkpt lat="46.114834" lon="6.758544">
        <time>1970-01-01T00:00:00+00:00</time>
        <ele>1310.0</ele>
      </trkpt>
      <trkpt lat="46.11471922183088" lon="6.758344233415567">
        <time>1970-01-01T00:00:00+00:00</time>
        <ele>1306.0</ele>
      </trkpt>
      <trkpt lat="46.114604443661754" lon="6.758144466831134">
        <time>1970-01-01T00:00:00+00:00</time>
        <ele>1301.0</ele>
      </trkpt>
      <trkpt lat="46.114572" lon="6.758088">
        <time>1970-01-01T00:00:00+00:00</time>
        <ele>1300.0</ele>
      </trkpt>
      <trkpt lat="46.114572" lon="6.758088">
        <time>1970-01-01T00:00:00+00:00</time>
        <ele>1300.0</ele>
      </trkpt>
      <trkpt lat="46.114536" lon="6.757954">
        <time>1970-01-01T00:00:00+00:00</time>
        <ele>1297.0</ele>
      </trkpt>
      <trkpt lat="46.114536" lon="6.757954">
        <time>1970-01-01T00:00:00+00:00</time>
        <ele>1297.0</ele>
      </trkpt>
      <trkpt lat="46.114563002324815" lon="6.757697477914265">
        <time>1970-01-01T00:00:00+00:00</time>
        <ele>1289.0</ele>
      </trkpt>
      <trkpt lat="46.11459000464963" lon="6.757440955828531">
        <time>1970-01-01T00:00:00+00:00</time>
        <ele>1283.0</ele>
      </trkpt>
      <trkpt lat="46.114592" lon="6.757422">
        <time>1970-01-01T00:00:00+00:00</time>
        <ele>1282.0</ele>
      </trkpt>
      <trkpt lat="46.114592" lon="6.757422">
        <time>1970-01-01T00:00:00+00:00</time>
        <ele>1282.0</ele>
      </trkpt>
      <trkpt lat="46.114562" lon="6.757274">
        <time>1970-01-01T00:00:00+00:00</time>
        <ele>1279.0</ele>
      </trkpt>
      <trkpt lat="46.114562" lon="6.757274">
        <time>1970-01-01T00:00:00+00:00</time>
        <ele>1279.0</ele>
      </trkpt>
      <trkpt lat="46.114508" lon="6.757045">
        <time>1970-01-01T00:00:00+00:00</time>
        <ele>1272.0</ele>
      </trkpt>
      <trkpt lat="46.114508" lon="6.757045">
        <time>1970-01-01T00:00:00+00:00</time>
        <ele>1272.0</ele>
      </trkpt>
      <trkpt lat="46.114492" lon="6.756802">
        <time>1970-01-01T00:00:00+00:00</time>
        <ele>1264.0</ele>
      </trkpt>
      <trkpt lat="46.114492" lon="6.756802">
        <time>1970-01-01T00:00:00+00:00</time>
        <ele>1264.0</ele>
      </trkpt>
      <trkpt lat="46.11447633477043" lon="6.756543523711983">
        <time>1970-01-01T00:00:00+00:00</time>
        <ele>1256.0</ele>
      </trkpt>
      <trkpt lat="46.114476" lon="6.756538">
        <time>1970-01-01T00:00:00+00:00</time>
        <ele>1256.0</ele>
      </trkpt>
      <trkpt lat="46.114476" lon="6.756538">
        <time>1970-01-01T00:00:00+00:00</time>
        <ele>1256.0</ele>
      </trkpt>
      <trkpt lat="46.114423" lon="6.756415">
        <time>1970-01-01T00:00:00+00:00</time>
        <ele>1252.0</ele>
      </trkpt>
      <trkpt lat="46.114423" lon="6.756415">
        <time>1970-01-01T00:00:00+00:00</time>
        <ele>1252.0</ele>
      </trkpt>
      <trkpt lat="46.114403" lon="6.756277">
        <time>1970-01-01T00:00:00+00:00</time>
        <ele>1247.0</ele>
      </trkpt>
      <trkpt lat="46.114403" lon="6.756277">
        <time>1970-01-01T00:00:00+00:00</time>
        <ele>1247.0</ele>
      </trkpt>
      <trkpt lat="46.11442" lon="6.756132">
        <time>1970-01-01T00:00:00+00:00</time>
        <ele>1243.0</ele>
      </trkpt>
      <trkpt lat="46.11442" lon="6.756132">
        <time>1970-01-01T00:00:00+00:00</time>
        <ele>1243.0</ele>
      </trkpt>
      <trkpt lat="46.114474" lon="6.756017">
        <time>1970-01-01T00:00:00+00:00</time>
        <ele>1239.0</ele>
      </trkpt>
      <trkpt lat="46.114474" lon="6.756017">
        <time>1970-01-01T00:00:00+00:00</time>
        <ele>1239.0</ele>
      </trkpt>
      <trkpt lat="46.114479" lon="6.755878">
        <time>1970-01-01T00:00:00+00:00</time>
        <ele>1235.0</ele>
      </trkpt>
      <trkpt lat="46.114479" lon="6.755878">
        <time>1970-01-01T00:00:00+00:00</time>
        <ele>1235.0</ele>
      </trkpt>
      <trkpt lat="46.114565" lon="6.755685">
        <time>1970-01-01T00:00:00+00:00</time>
        <ele>1229.0</ele>
      </trkpt>
      <trkpt lat="46.114565" lon="6.755685">
        <time>1970-01-01T00:00:00+00:00</time>
        <ele>1229.0</ele>
      </trkpt>
      <trkpt lat="46.114661" lon="6.755634">
        <time>1970-01-01T00:00:00+00:00</time>
        <ele>1226.0</ele>
      </trkpt>
      <trkpt lat="46.114661" lon="6.755634">
        <time>1970-01-01T00:00:00+00:00</time>
        <ele>1226.0</ele>
      </trkpt>
      <trkpt lat="46.11478712469257" lon="6.755449017117575">
        <time>1970-01-01T00:00:00+00:00</time>
        <ele>1219.0</ele>
      </trkpt>
      <trkpt lat="46.114856" lon="6.755348">
        <time>1970-01-01T00:00:00+00:00</time>
        <ele>1215.0</ele>
      </trkpt>
      <trkpt lat="46.114856" lon="6.755348">
        <time>1970-01-01T00:00:00+00:00</time>
        <ele>1215.0</ele>
      </trkpt>
      <trkpt lat="46.114952" lon="6.755288">
        <time>1970-01-01T00:00:00+00:00</time>
        <ele>1212.0</ele>
      </trkpt>
      <trkpt lat="46.114952" lon="6.755288">
        <time>1970-01-01T00:00:00+00:00</time>
        <ele>1212.0</ele>
      </trkpt>
      <trkpt lat="46.11513125844707" lon="6.755266721119591">
        <time>1970-01-01T00:00:00+00:00</time>
        <ele>1208.0</ele>
      </trkpt>
      <trkpt lat="46.11531051689415" lon="6.755245442239184">
        <time>1970-01-01T00:00:00+00:00</time>
        <ele>1203.0</ele>
      </trkpt>
      <trkpt lat="46.115489775341224" lon="6.7552241633587755">
        <time>1970-01-01T00:00:00+00:00</time>
        <ele>1197.0</ele>
      </trkpt>
      <trkpt lat="46.11566903378829" lon="6.755202884478368">
        <time>1970-01-01T00:00:00+00:00</time>
        <ele>1194.0</ele>
      </trkpt>
      <trkpt lat="46.115786" lon="6.755189">
        <time>1970-01-01T00:00:00+00:00</time>
        <ele>1192.0</ele>
      </trkpt>
      <trkpt lat="46.115786" lon="6.755189">
        <time>1970-01-01T00:00:00+00:00</time>
        <ele>1192.0</ele>
      </trkpt>
      <trkpt lat="46.11586" lon="6.755101">
        <time>1970-01-01T00:00:00+00:00</time>
        <ele>1190.0</ele>
      </trkpt>
      <trkpt lat="46.11586" lon="6.755101">
        <time>1970-01-01T00:00:00+00:00</time>
        <ele>1190.0</ele>
      </trkpt>
      <trkpt lat="46.11583" lon="6.754949">
        <time>1970-01-01T00:00:00+00:00</time>
        <ele>1188.0</ele>
      </trkpt>
      <trkpt lat="46.11583" lon="6.754949">
        <time>1970-01-01T00:00:00+00:00</time>
        <ele>1188.0</ele>
      </trkpt>
      <trkpt lat="46.115776" lon="6.754819">
        <time>1970-01-01T00:00:00+00:00</time>
        <ele>1186.0</ele>
      </trkpt>
      <trkpt lat="46.115776" lon="6.754819">
        <time>1970-01-01T00:00:00+00:00</time>
        <ele>1186.0</ele>
      </trkpt>
      <trkpt lat="46.115635" lon="6.754711">
        <time>1970-01-01T00:00:00+00:00</time>
        <ele>1186.0</ele>
      </trkpt>
      <trkpt lat="46.115635" lon="6.754711">
        <time>1970-01-01T00:00:00+00:00</time>
        <ele>1186.0</ele>
      </trkpt>
      <trkpt lat="46.11548793682027" lon="6.754561614770072">
        <time>1970-01-01T00:00:00+00:00</time>
        <ele>1186.0</ele>
      </trkpt>
      <trkpt lat="46.115445" lon="6.754518">
        <time>1970-01-01T00:00:00+00:00</time>
        <ele>1186.0</ele>
      </trkpt>
      <trkpt lat="46.115445" lon="6.754518">
        <time>1970-01-01T00:00:00+00:00</time>
        <ele>1186.0</ele>
      </trkpt>
      <trkpt lat="46.11528530545635" lon="6.754398616700373">
        <time>1970-01-01T00:00:00+00:00</time>
        <ele>1186.0</ele>
      </trkpt>
      <trkpt lat="46.115136" lon="6.754287">
        <time>1970-01-01T00:00:00+00:00</time>
        <ele>1185.0</ele>
      </trkpt>
      <trkpt lat="46.115136" lon="6.754287">
        <time>1970-01-01T00:00:00+00:00</time>
        <ele>1185.0</ele>
      </trkpt>
      <trkpt lat="46.11501880304026" lon="6.754090176397754">
        <time>1970-01-01T00:00:00+00:00</time>
        <ele>1182.0</ele>
      </trkpt>
      <trkpt lat="46.114927" lon="6.753936">
        <time>1970-01-01T00:00:00+00:00</time>
        <ele>1179.0</ele>
      </trkpt>
      <trkpt lat="46.114927" lon="6.753936">
        <time>1970-01-01T00:00:00+00:00</time>
        <ele>1179.0</ele>
      </trkpt>
      <trkpt lat="46.114864111696065" lon="6.753692912517466">
        <time>1970-01-01T00:00:00+00:00</time>
        <ele>1174.0</ele>
      </trkpt>
      <trkpt lat="46.114823" lon="6.753534">
        <time>1970-01-01T00:00:00+00:00</time>
        <ele>1171.0</ele>
      </trkpt>
      <trkpt lat="46.114823" lon="6.753534">
        <time>1970-01-01T00:00:00+00:00</time>
        <ele>1171.0</ele>
      </trkpt>
      <trkpt lat="46.11471538305252" lon="6.753326103624186">
        <time>1970-01-01T00:00:00+00:00</time>
        <ele>1168.0</ele>
      </trkpt>
      <trkpt lat="46.114647" lon="6.753194">
        <time>1970-01-01T00:00:00+00:00</time>
        <ele>1166.0</ele>
      </trkpt>
      <trkpt lat="46.114647" lon="6.753194">
        <time>1970-01-01T00:00:00+00:00</time>
        <ele>1166.0</ele>
      </trkpt>
      <trkpt lat="46.11446716922284" lon="6.753188989235311">
        <time>1970-01-01T00:00:00+00:00</time>
        <ele>1164.0</ele>
      </trkpt>
      <trkpt lat="46.114324" lon="6.753185">
        <time>1970-01-01T00:00:00+00:00</time>
        <ele>1162.0</ele>
      </trkpt>
      <trkpt lat="46.114324" lon="6.753185">
        <time>1970-01-01T00:00:00+00:00</time>
        <ele>1162.0</ele>
      </trkpt>
      <trkpt lat="46.11416932261034" lon="6.753317415410222">
        <time>1970-01-01T00:00:00+00:00</time>
        <ele>1161.0</ele>
      </trkpt>
      <trkpt lat="46.114014645220664" lon="6.753449830820443">
        <time>1970-01-01T00:00:00+00:00</time>
        <ele>1163.0</ele>
      </trkpt>
      <trkpt lat="46.11385996783099" lon="6.753582246230665">
        <time>1970-01-01T00:00:00+00:00</time>
        <ele>1166.0</ele>
      </trkpt>
      <trkpt lat="46.113789" lon="6.753643">
        <time>1970-01-01T00:00:00+00:00</time>
        <ele>1169.0</ele>
      </trkpt>
      <trkpt lat="46.113789" lon="6.753643">
        <time>1970-01-01T00:00:00+00:00</time>
        <ele>1169.0</ele>
      </trkpt>
      <trkpt lat="46.113676" lon="6.753626">
        <time>1970-01-01T00:00:00+00:00</time>
        <ele>1168.0</ele>
      </trkpt>
      <trkpt lat="46.113676" lon="6.753626">
        <time>1970-01-01T00:00:00+00:00</time>
        <ele>1168.0</ele>
      </trkpt>
      <trkpt lat="46.11355613049271" lon="6.753432559789825">
        <time>1970-01-01T00:00:00+00:00</time>
        <ele>1161.0</ele>
      </trkpt>
      <trkpt lat="46.113487" lon="6.753321">
        <time>1970-01-01T00:00:00+00:00</time>
        <ele>1157.0</ele>
      </trkpt>
      <trkpt lat="46.113487" lon="6.753321">
        <time>1970-01-01T00:00:00+00:00</time>
        <ele>1157.0</ele>
      </trkpt>
      <trkpt lat="46.113369" lon="6.753269">
        <time>1970-01-01T00:00:00+00:00</time>
        <ele>1156.0</ele>
      </trkpt>
      <trkpt lat="46.113369" lon="6.753269">
        <time>1970-01-01T00:00:00+00:00</time>
        <ele>1156.0</ele>
      </trkpt>
      <trkpt lat="46.11325955819221" lon="6.753063101005683">
        <time>1970-01-01T00:00:00+00:00</time>
        <ele>1152.0</ele>
      </trkpt>
      <trkpt lat="46.113192" lon="6.752936">
        <time>1970-01-01T00:00:00+00:00</time>
        <ele>1151.0</ele>
      </trkpt>
      <trkpt lat="46.113192" lon="6.752936">
        <time>1970-01-01T00:00:00+00:00</time>
        <ele>1151.0</ele>
      </trkpt>
      <trkpt lat="46.11312702764917" lon="6.752694063483089">
        <time>1970-01-01T00:00:00+00:00</time>
        <ele>1150.0</ele>
      </trkpt>
      <trkpt lat="46.113062055298336" lon="6.752452126966177">
        <time>1970-01-01T00:00:00+00:00</time>
        <ele>1148.0</ele>
      </trkpt>
      <trkpt lat="46.11304" lon="6.75237">
        <time>1970-01-01T00:00:00+00:00</time>
        <ele>1147.0</ele>
      </trkpt>
      <trkpt lat="46.11304" lon="6.75237">
        <time>1970-01-01T00:00:00+00:00</time>
        <ele>1147.0</ele>
      </trkpt>
      <trkpt lat="46.11295415056765" lon="6.752142006425562">
        <time>1970-01-01T00:00:00+00:00</time>
        <ele>1144.0</ele>
      </trkpt>
      <trkpt lat="46.112918" lon="6.752046">
        <time>1970-01-01T00:00:00+00:00</time>
        <ele>1142.0</ele>
      </trkpt>
      <trkpt lat="46.112918" lon="6.752046">
        <time>1970-01-01T00:00:00+00:00</time>
        <ele>1142.0</ele>
      </trkpt>
      <trkpt lat="46.112901" lon="6.751868">
        <time>1970-01-01T00:00:00+00:00</time>
        <ele>1139.0</ele>
      </trkpt>
      <trkpt lat="46.112901" lon="6.751868">
        <time>1970-01-01T00:00:00+00:00</time>
        <ele>1139.0</ele>
      </trkpt>
      <trkpt lat="46.112826983594076" lon="6.751631532001835">
        <time>1970-01-01T00:00:00+00:00</time>
        <ele>1134.0</ele>
      </trkpt>
      <trkpt lat="46.112824" lon="6.751622">
        <time>1970-01-01T00:00:00+00:00</time>
        <ele>1134.0</ele>
      </trkpt>
      <trkpt lat="46.112824" lon="6.751622">
        <time>1970-01-01T00:00:00+00:00</time>
        <ele>1134.0</ele>
      </trkpt>
      <trkpt lat="46.112713" lon="6.751487">
        <time>1970-01-01T00:00:00+00:00</time>
        <ele>1131.0</ele>
      </trkpt>
      <trkpt lat="46.112713" lon="6.751487">
        <time>1970-01-01T00:00:00+00:00</time>
        <ele>1131.0</ele>
      </trkpt>
      <trkpt lat="46.112632" lon="6.751292">
        <time>1970-01-01T00:00:00+00:00</time>
        <ele>1126.0</ele>
      </trkpt>
      <trkpt lat="46.112632" lon="6.751292">
        <time>1970-01-01T00:00:00+00:00</time>
        <ele>1126.0</ele>
      </trkpt>
      <trkpt lat="46.112612" lon="6.751138">
        <time>1970-01-01T00:00:00+00:00</time>
        <ele>1123.0</ele>
      </trkpt>
      <trkpt lat="46.112612" lon="6.751138">
        <time>1970-01-01T00:00:00+00:00</time>
        <ele>1123.0</ele>
      </trkpt>
      <trkpt lat="46.112508664199694" lon="6.750925640190196">
        <time>1970-01-01T00:00:00+00:00</time>
        <ele>1119.0</ele>
      </trkpt>
      <trkpt lat="46.112503" lon="6.750914">
        <time>1970-01-01T00:00:00+00:00</time>
        <ele>1119.0</ele>
      </trkpt>
      <trkpt lat="46.112503" lon="6.750914">
        <time>1970-01-01T00:00:00+00:00</time>
        <ele>1119.0</ele>
      </trkpt>
      <trkpt lat="46.112467" lon="6.750791">
        <time>1970-01-01T00:00:00+00:00</time>
        <ele>1117.0</ele>
      </trkpt>
      <trkpt lat="46.112467" lon="6.750791">
        <time>1970-01-01T00:00:00+00:00</time>
        <ele>1117.0</ele>
      </trkpt>
      <trkpt lat="46.112393" lon="6.750711">
        <time>1970-01-01T00:00:00+00:00</time>
        <ele>1115.0</ele>
      </trkpt>
      <trkpt lat="46.112393" lon="6.750711">
        <time>1970-01-01T00:00:00+00:00</time>
        <ele>1115.0</ele>
      </trkpt>
      <trkpt lat="46.112252" lon="6.750719">
        <time>1970-01-01T00:00:00+00:00</time>
        <ele>1117.0</ele>
      </trkpt>
      <trkpt lat="46.112252" lon="6.750719">
        <time>1970-01-01T00:00:00+00:00</time>
        <ele>1117.0</ele>
      </trkpt>
      <trkpt lat="46.112319" lon="6.750823">
        <time>1970-01-01T00:00:00+00:00</time>
        <ele>1118.0</ele>
      </trkpt>
      <trkpt lat="46.112319" lon="6.750823">
        <time>1970-01-01T00:00:00+00:00</time>
        <ele>1118.0</ele>
      </trkpt>
      <trkpt lat="46.112203" lon="6.750833">
        <time>1970-01-01T00:00:00+00:00</time>
        <ele>1119.0</ele>
      </trkpt>
      <trkpt lat="46.112203" lon="6.750833">
        <time>1970-01-01T00:00:00+00:00</time>
        <ele>1119.0</ele>
      </trkpt>
      <trkpt lat="46.112382476647525" lon="6.750815974547271">
        <time>1970-01-01T00:00:00+00:00</time>
        <ele>1117.0</ele>
      </trkpt>
      <trkpt lat="46.112456" lon="6.750809">
        <time>1970-01-01T00:00:00+00:00</time>
        <ele>1117.0</ele>
      </trkpt>
    </trkseg>
  </trk>
</gpx>
